[[{"header":{"parameterUnit":"m.s-1","parameterCategory":1,"la1":30.6,"la2":29.2853,"lo1":-89.7004,"lo2":-87.6739,"dy":0.0162,"dx":0.0183,"nx":112,"ny":82,"refTime":"2024-03-19T18:00:00:Z","depth":0,"parameterNumber":2,"parameterNumberName":"U-component_of_WINDS"},"data":[0.0,0.0,0.0,0.0,0.0,0.0,0.0,0.0,0.0,0.0,0.0,0.0,0.0,0.0,0.0,0.0,0.0,0.0,0.0,0.0,0.0,0.0,0.0,0.0,0.0,0.0,0.0,0.0,0.0,0.0,0.0,0.0,0.0,0.0,0.0,0.0,0.0,0.0,0.0,0.0,0.0,0.0,0.0,0.0,0.0,0.0,0.0,0.0,0.0,0.0,0.0,0.0,0.0,0.0,0.0,0.0,0.0,0.0,0.0,0.0,0.0,0.0,0.0,0.0,0.0,0.0,0.0,0.0,0.0,0.0,0.0,0.0,0.0,0.0,0.0,0.0,0.0,0.0,0.0,0.0,0.0,0.0,0.0,0.0,0.0,0.0,0.0,0.0,0.0,0.0,-1.2773,-1.3113,-1.3552,-1.3875,-1.3875,-1.4268,-1.4317,-1.4254,0.0,0.0,0.0,0.0,0.0,0.0,0.0,0.0,0.0,0.0,0.0,0.0,0.0,0.0,0.0,0.0,0.0,0.0,0.0,0.0,0.0,0.0,0.0,0.0,0.0,0.0,0.0,0.0,0.0,0.0,0.0,0.0,0.0,0.0,0.0,0.0,0.0,0.0,0.0,0.0,0.0,0.0,0.0,0.0,0.0,0.0,0.0,0.0,0.0,0.0,0.0,0.0,0.0,0.0,0.0,0.0,0.0,0.0,0.0,0.0,0.0,0.0,0.0,0.0,0.0,0.0,0.0,0.0,0.0,0.0,0.0,0.0,0.0,0.0,0.0,0.0,0.0,0.0,0.0,0.0,0.0,0.0,0.0,0.0,0.0,0.0,0.0,0.0,0.0,0.0,0.0,0.0,0.0,0.0,0.0,0.0,0.0,0.0,0.0,0.0,0.0,0.0,0.0,0.0,-1.2775,-1.2849,-1.3202,-1.3621,-1.3875,-1.4268,-1.4577,-1.4885,0.0,0.0,0.0,0.0,0.0,0.0,0.0,0.0,0.0,0.0,0.0,0.0,0.0,0.0,0.0,0.0,0.0,0.0,0.0,0.0,0.0,0.0,0.0,0.0,0.0,0.0,0.0,0.0,0.0,0.0,0.0,0.0,0.0,0.0,0.0,0.0,0.0,0.0,0.0,0.0,0.0,0.0,0.0,0.0,0.0,0.0,0.0,0.0,0.0,0.0,0.0,0.0,0.0,0.0,0.0,0.0,0.0,0.0,0.0,0.0,0.0,0.0,0.0,0.0,0.0,0.0,0.0,0.0,0.0,0.0,0.0,0.0,0.0,0.0,0.0,0.0,0.0,0.0,0.0,0.0,0.0,0.0,0.0,0.0,0.0,0.0,0.0,0.0,0.0,0.0,0.0,0.0,0.0,0.0,0.0,0.0,0.0,0.0,0.0,0.0,0.0,0.0,0.0,-1.3161,-1.3062,-1.3325,-1.3367,-1.363,-1.4146,-1.4539,-1.4884,-1.5564,-1.5867,0.0,0.0,0.0,0.0,0.0,0.0,0.0,0.0,0.0,0.0,0.0,0.0,0.0,0.0,0.0,0.0,0.0,0.0,0.0,0.0,0.0,0.0,0.0,0.0,0.0,0.0,0.0,0.0,0.0,0.0,0.0,0.0,0.0,0.0,0.0,0.0,0.0,0.0,0.0,0.0,0.0,0.0,0.0,0.0,0.0,0.0,0.0,0.0,0.0,0.0,0.0,0.0,0.0,0.0,0.0,0.0,0.0,0.0,0.0,0.0,0.0,0.0,0.0,0.0,0.0,0.0,0.0,0.0,0.0,0.0,0.0,0.0,0.0,0.0,0.0,0.0,0.0,0.0,0.0,0.0,0.0,0.0,0.0,0.0,0.0,0.0,0.0,0.0,0.0,0.0,0.0,0.0,0.0,0.0,0.0,0.0,0.0,0.0,0.0,0.0,0.0,0.0,-1.3642,-1.3734,-1.4059,-1.3866,-1.4139,-1.4735,-1.5128,-1.5633,-1.6364,-1.6812,0.0,0.0,0.0,0.0,0.0,0.0,0.0,0.0,0.0,0.0,0.0,0.0,0.0,0.0,0.0,0.0,0.0,0.0,0.0,0.0,0.0,0.0,0.0,0.0,0.0,0.0,0.0,0.0,0.0,0.0,0.0,0.0,0.0,0.0,0.0,0.0,0.0,0.0,0.0,0.0,0.0,0.0,0.0,0.0,0.0,0.0,0.0,0.0,0.0,0.0,0.0,0.0,0.0,0.0,0.0,0.0,0.0,0.0,0.0,0.0,0.0,0.0,0.0,0.0,0.0,0.0,0.0,0.0,0.0,0.0,0.0,0.0,0.0,0.0,0.0,0.0,0.0,0.0,0.0,0.0,0.0,0.0,0.0,0.0,0.0,0.0,0.0,0.0,0.0,0.0,0.0,0.0,0.0,0.0,0.0,0.0,0.0,0.0,0.0,0.0,0.0,0.0,-1.4529,-1.4725,-1.4787,-1.4855,-1.5297,-1.6155,-1.6135,-1.6702,-1.7787,-1.769,0.0,0.0,0.0,0.0,0.0,0.0,0.0,0.0,0.0,0.0,0.0,0.0,0.0,0.0,0.0,0.0,0.0,0.0,0.0,0.0,0.0,0.0,0.0,0.0,0.0,0.0,0.0,0.0,0.0,0.0,0.0,0.0,0.0,0.0,0.0,0.0,0.0,0.0,0.0,0.0,0.0,0.0,0.0,0.0,0.0,0.0,0.0,0.0,0.0,0.0,0.0,0.0,0.0,0.0,0.0,0.0,0.0,0.0,0.0,0.0,0.0,0.0,0.0,0.0,0.0,0.0,0.0,0.0,0.0,0.0,0.0,0.0,0.0,0.0,0.0,0.0,0.0,0.0,0.0,0.0,0.0,0.0,0.0,0.0,0.0,0.0,0.0,0.0,0.0,0.0,0.0,0.0,0.0,0.0,0.0,0.0,0.0,0.0,0.0,0.0,0.0,0.0,-1.5603,-1.5737,-1.6211,-1.6175,-1.653,-1.7499,-1.761,-1.8035,-1.8944,0.0,0.0,0.0,0.0,0.0,0.0,0.0,0.0,0.0,0.0,0.0,0.0,0.0,0.0,0.0,0.0,0.0,0.0,0.0,0.0,0.0,0.0,0.0,0.0,0.0,0.0,0.0,0.0,0.0,0.0,0.0,0.0,0.0,0.0,0.0,0.0,0.0,0.0,0.0,0.0,0.0,0.0,0.0,0.0,0.0,0.0,0.0,0.0,0.0,0.0,0.0,0.0,0.0,0.0,0.0,0.0,0.0,0.0,0.0,0.0,0.0,0.0,0.0,0.0,0.0,0.0,0.0,0.0,0.0,0.0,0.0,0.0,0.0,0.0,0.0,0.0,0.0,0.0,0.0,0.0,0.0,0.0,0.0,0.0,0.0,0.0,0.0,0.0,0.0,0.0,0.0,0.0,0.0,0.0,0.0,0.0,0.0,0.0,0.0,0.0,0.0,0.0,-1.6829,-1.6623,-1.6892,-1.7662,-1.7612,-1.7966,-1.8939,-1.8979,-1.934,-1.9977,0.0,0.0,0.0,0.0,0.0,0.0,0.0,0.0,0.0,0.0,0.0,0.0,0.0,0.0,0.0,0.0,0.0,0.0,0.0,0.0,0.0,0.0,0.0,0.0,0.0,0.0,0.0,0.0,0.0,0.0,0.0,0.0,0.0,0.0,0.0,0.0,0.0,0.0,0.0,0.0,0.0,0.0,0.0,0.0,0.0,0.0,0.0,0.0,0.0,0.0,0.0,0.0,0.0,0.0,0.0,0.0,0.0,0.0,0.0,0.0,0.0,0.0,0.0,0.0,0.0,0.0,0.0,0.0,0.0,0.0,0.0,0.0,0.0,0.0,0.0,0.0,0.0,0.0,0.0,0.0,0.0,0.0,0.0,0.0,0.0,0.0,0.0,0.0,0.0,0.0,0.0,0.0,0.0,0.0,0.0,0.0,0.0,0.0,0.0,0.0,0.0,0.0,-1.7613,-1.7951,-1.8339,-1.872,-1.9243,-1.9715,-2.0303,-2.0429,-2.0555,0.0,0.0,0.0,0.0,0.0,0.0,0.0,0.0,0.0,0.0,0.0,0.0,0.0,0.0,0.0,0.0,0.0,0.0,0.0,0.0,0.0,0.0,0.0,0.0,0.0,0.0,0.0,0.0,0.0,0.0,0.0,0.0,0.0,0.0,0.0,0.0,0.0,0.0,0.0,0.0,0.0,0.0,0.0,0.0,0.0,0.0,0.0,0.0,0.0,0.0,0.0,0.0,0.0,0.0,0.0,0.0,0.0,0.0,0.0,0.0,0.0,0.0,0.0,0.0,0.0,0.0,0.0,0.0,0.0,0.0,0.0,0.0,0.0,0.0,0.0,0.0,0.0,0.0,0.0,0.0,0.0,0.0,0.0,0.0,0.0,0.0,0.0,0.0,0.0,0.0,0.0,0.0,0.0,0.0,0.0,0.0,0.0,0.0,0.0,0.0,0.0,0.0,0.0,-1.8336,-1.8574,-1.8958,-1.9945,-2.0201,-2.0695,-2.1378,-2.1219,-2.1201,-2.1434,0.0,0.0,0.0,0.0,0.0,0.0,0.0,0.0,0.0,0.0,0.0,0.0,0.0,0.0,0.0,0.0,0.0,0.0,0.0,0.0,0.0,0.0,0.0,0.0,0.0,0.0,0.0,0.0,0.0,0.0,0.0,0.0,0.0,0.0,0.0,0.0,0.0,0.0,0.0,0.0,0.0,0.0,0.0,0.0,0.0,0.0,0.0,0.0,0.0,0.0,0.0,0.0,0.0,0.0,0.0,0.0,0.0,0.0,0.0,0.0,0.0,0.0,0.0,0.0,0.0,0.0,0.0,0.0,0.0,0.0,0.0,0.0,0.0,0.0,0.0,0.0,0.0,0.0,0.0,0.0,0.0,0.0,0.0,0.0,0.0,0.0,0.0,0.0,0.0,0.0,0.0,0.0,0.0,0.0,0.0,0.0,0.0,0.0,0.0,0.0,0.0,0.0,-1.9072,-1.9212,-1.9669,-2.0617,-2.0804,-2.1145,-2.1531,-2.1417,-2.1253,-2.1346,0.0,0.0,0.0,0.0,0.0,0.0,0.0,0.0,0.0,0.0,0.0,0.0,0.0,0.0,0.0,0.0,0.0,0.0,0.0,0.0,0.0,0.0,0.0,0.0,0.0,0.0,0.0,0.0,0.0,0.0,0.0,0.0,0.0,0.0,0.0,0.0,0.0,0.0,0.0,0.0,0.0,0.0,0.0,0.0,0.0,0.0,0.0,0.0,0.0,0.0,0.0,0.0,0.0,0.0,0.0,0.0,0.0,0.0,0.0,0.0,0.0,0.0,0.0,0.0,0.0,0.0,0.0,0.0,0.0,0.0,0.0,0.0,0.0,0.0,0.0,0.0,0.0,0.0,0.0,0.0,0.0,0.0,0.0,0.0,0.0,0.0,0.0,0.0,0.0,0.0,0.0,0.0,0.0,0.0,0.0,0.0,0.0,0.0,0.0,0.0,0.0,0.0,-1.9748,-1.9905,-2.011,-2.0756,-2.1081,-2.1207,-2.1207,-2.1007,-2.0958,-2.0933,0.0,0.0,0.0,0.0,0.0,0.0,0.0,0.0,0.0,0.0,0.0,0.0,0.0,0.0,0.0,0.0,0.0,0.0,0.0,0.0,0.0,0.0,0.0,0.0,0.0,0.0,0.0,0.0,0.0,0.0,0.0,0.0,0.0,0.0,0.0,0.0,0.0,0.0,0.0,0.0,0.0,0.0,0.0,0.0,0.0,0.0,0.0,0.0,0.0,0.0,0.0,0.0,0.0,0.0,0.0,0.0,0.0,0.0,0.0,0.0,-1.1216,-1.1167,0.0,0.0,0.0,0.0,0.0,0.0,0.0,0.0,0.0,0.0,0.0,0.0,0.0,0.0,0.0,0.0,0.0,0.0,0.0,0.0,0.0,0.0,0.0,0.0,0.0,0.0,0.0,0.0,0.0,0.0,0.0,0.0,0.0,0.0,0.0,0.0,0.0,0.0,0.0,0.0,-1.9772,-2.0062,-2.0452,-2.1044,-2.122,-2.1346,-2.1622,-2.1454,-2.1162,-2.0946,-2.0027,0.0,0.0,0.0,0.0,0.0,0.0,0.0,0.0,0.0,0.0,0.0,0.0,0.0,0.0,0.0,0.0,0.0,0.0,0.0,0.0,0.0,0.0,0.0,0.0,0.0,0.0,0.0,0.0,0.0,0.0,0.0,0.0,0.0,0.0,0.0,0.0,0.0,0.0,0.0,0.0,0.0,0.0,0.0,0.0,0.0,0.0,0.0,0.0,0.0,0.0,0.0,0.0,0.0,0.0,0.0,0.0,0.0,0.0,0.0,-1.1567,-1.1614,0.0,0.0,0.0,0.0,0.0,0.0,0.0,0.0,0.0,0.0,0.0,0.0,0.0,0.0,0.0,0.0,0.0,0.0,0.0,0.0,0.0,0.0,0.0,0.0,0.0,0.0,0.0,0.0,0.0,0.0,0.0,0.0,0.0,0.0,0.0,0.0,0.0,0.0,0.0,0.0,-1.9796,-2.011,-2.0513,-2.0918,-2.0943,-2.1081,-2.122,-2.0959,-2.0749,-2.0612,-1.9825,0.0,0.0,0.0,0.0,0.0,0.0,0.0,0.0,0.0,0.0,0.0,0.0,0.0,0.0,0.0,0.0,0.0,0.0,0.0,0.0,0.0,0.0,0.0,0.0,0.0,0.0,0.0,0.0,0.0,0.0,0.0,0.0,0.0,0.0,0.0,0.0,0.0,0.0,0.0,0.0,0.0,0.0,0.0,0.0,0.0,0.0,0.0,0.0,0.0,0.0,0.0,0.0,0.0,-1.2077,-1.2174,-1.2606,-1.2004,-1.178,-1.1795,-1.1933,-1.194,-1.1829,-1.158,0.0,0.0,0.0,0.0,0.0,0.0,0.0,0.0,0.0,0.0,0.0,0.0,0.0,0.0,0.0,0.0,0.0,0.0,0.0,0.0,0.0,0.0,-2.0806,-2.0806,-2.0843,-2.0806,-2.0529,0.0,0.0,0.0,0.0,0.0,0.0,0.0,0.0,0.0,0.0,0.0,-1.9941,-2.0255,-2.0521,-2.0786,-2.0762,-2.0738,-2.0738,-2.0496,-2.0327,-2.0279,-1.9652,-1.9241,0.0,0.0,0.0,0.0,0.0,0.0,0.0,0.0,0.0,0.0,0.0,0.0,0.0,0.0,0.0,0.0,0.0,0.0,0.0,0.0,0.0,0.0,0.0,0.0,0.0,0.0,0.0,0.0,0.0,0.0,0.0,0.0,-1.6954,-1.64,0.0,0.0,0.0,0.0,0.0,0.0,0.0,0.0,0.0,0.0,0.0,0.0,0.0,-1.1549,-1.1697,-1.1948,-1.2097,-1.1894,-1.1894,-1.1726,-1.163,-1.1642,-1.1791,-1.194,-1.2187,0.0,-1.1255,-1.1255,0.0,0.0,0.0,0.0,0.0,0.0,0.0,0.0,0.0,0.0,0.0,0.0,0.0,0.0,0.0,0.0,0.0,0.0,0.0,0.0,0.0,0.0,-2.0695,-2.0695,-2.0877,-2.0974,-2.0707,-2.0552,-2.034,-2.0265,-1.9597,-1.9139,0.0,0.0,0.0,0.0,0.0,0.0,-2.0472,-2.0798,-2.1064,-2.1341,-2.1148,-2.1003,-2.1003,-2.0762,-2.0521,-2.0291,-2.0183,-1.9905,-1.9434,-1.9132,0.0,0.0,0.0,0.0,0.0,0.0,0.0,0.0,0.0,0.0,0.0,0.0,0.0,0.0,0.0,0.0,0.0,0.0,0.0,0.0,0.0,0.0,0.0,0.0,0.0,0.0,0.0,0.0,0.0,-1.7241,-1.6436,-1.5835,-1.4407,-1.3125,0.0,0.0,0.0,0.0,0.0,0.0,0.0,0.0,0.0,-1.1283,-1.1683,-1.2032,-1.2235,-1.2366,-1.2281,-1.1969,-1.1969,-1.1873,-1.1538,-1.161,-1.1682,-1.1481,-1.1544,-1.1424,-1.1164,-1.1344,-1.1388,-1.1553,0.0,0.0,0.0,0.0,-1.5366,-1.6647,-1.7573,-1.8406,-1.9052,-1.9309,0.0,0.0,0.0,0.0,0.0,0.0,0.0,-1.9978,-2.0219,-2.0467,-2.0509,-2.0509,-2.0626,-2.0638,-2.0239,-2.0145,-2.0138,-2.0099,-1.9688,-1.9256,-1.9256,-1.8806,0.0,0.0,0.0,-1.9558,-1.9912,-2.0473,-2.0876,-2.115,-2.1067,-2.0936,-2.0793,-2.0674,-2.0495,-2.0245,-2.0227,-2.0171,-1.9929,-1.9664,-1.9338,0.0,0.0,0.0,0.0,0.0,0.0,0.0,0.0,0.0,0.0,0.0,0.0,0.0,0.0,0.0,0.0,0.0,0.0,0.0,0.0,0.0,0.0,0.0,0.0,0.0,0.0,0.0,0.0,-1.6669,-1.591,-1.5152,-1.366,-1.2515,0.0,0.0,0.0,0.0,0.0,0.0,-1.069,-1.069,-1.1156,-1.2111,-1.2111,-1.2234,-1.2361,-1.2361,-1.2149,-1.1986,-1.1848,-1.1593,-1.1219,-1.1358,-1.124,-1.1141,-1.1141,-1.128,-1.1406,-1.1488,-1.161,-1.1762,-1.1894,-1.2636,-1.3569,-1.4894,-1.6369,-1.7741,-1.8596,-1.9346,-1.9881,-1.9881,-1.9748,-1.9567,-1.9567,0.0,0.0,0.0,0.0,-2.0024,-2.0005,-2.0309,-2.06,-2.0497,-2.0397,-2.034,-2.0158,-2.0066,-1.9968,-1.9811,-1.9475,-1.9294,-1.9294,-1.8979,0.0,-1.889,-1.9107,-1.9392,-1.9712,-2.0248,-2.0647,-2.0904,-2.0869,-2.0729,-2.0472,-2.039,-2.0239,-1.9982,-2.0209,-2.0239,-2.0239,-2.0122,-1.976,-1.9289,0.0,0.0,0.0,0.0,0.0,0.0,0.0,0.0,0.0,0.0,0.0,0.0,0.0,0.0,0.0,0.0,0.0,0.0,0.0,0.0,0.0,0.0,0.0,0.0,0.0,0.0,0.0,0.0,0.0,-1.4404,-1.3035,0.0,0.0,0.0,0.0,-1.0991,-1.1386,-1.165,-1.1963,-1.1978,-1.2052,-1.2224,-1.2224,-1.2239,-1.2253,-1.1841,-1.1427,-1.1158,-1.0744,-1.0398,-1.0254,-1.0254,-1.0605,-1.1018,-1.1018,-1.1449,-1.2144,-1.1831,-1.1696,-1.1826,-1.2917,-1.3738,-1.4547,-1.6059,-1.7286,-1.8373,-1.9055,-1.9614,-1.9881,-1.9881,-1.9881,-1.9869,-1.9869,-1.959,0.0,0.0,-1.9623,-1.9598,-1.9849,-2.0272,-2.0637,-2.0649,-2.0649,-2.0649,-2.0637,-2.0443,-2.0123,-1.9598,-1.9312,-1.9153,-1.9153,0.0,-1.8878,-1.9118,-1.937,-1.9712,-2.0203,-2.0477,-2.0729,-2.1003,-2.0797,-2.0546,-2.0306,-2.0066,-1.9815,-1.9552,-1.9959,-2.0098,-2.0098,-2.0263,-2.0122,-1.9857,-1.9338,0.0,0.0,0.0,0.0,0.0,0.0,0.0,0.0,0.0,0.0,0.0,0.0,0.0,0.0,0.0,0.0,0.0,0.0,0.0,0.0,0.0,0.0,0.0,0.0,0.0,0.0,0.0,0.0,-1.4493,-1.3464,0.0,-1.2311,-1.1821,-1.1696,-1.1858,-1.2008,-1.2052,-1.2171,-1.2179,-1.2298,-1.2567,-1.2292,-1.2109,-1.2025,-1.1735,-1.1299,-1.0863,-1.063,-1.0468,-1.0082,-1.0575,-1.0706,-1.075,-1.1476,-1.1907,-1.2187,-1.2917,-1.3076,-1.2974,-1.3955,-1.4787,-1.5468,-1.6569,-1.7496,-1.8451,-1.9003,-1.9416,-1.9691,-1.9977,-1.9839,-1.9725,-2.0178,-1.9947,-1.9715,-1.9968,-2.0106,-1.9946,-2.005,-2.0106,-2.0273,-2.028,-2.0164,-2.0131,-1.9977,-1.9867,-1.9713,-1.9382,-1.9271,-1.9245,-1.9245,-1.8894,-1.8677,-1.892,-1.903,-1.9261,-1.9746,-2.0025,-2.0478,-2.0725,-2.0669,-2.0455,-1.9904,-1.9793,-1.9569,-1.9145,-1.9541,-1.982,-1.982,-1.9877,-1.9632,-1.9212,-1.9026,-1.8594,0.0,0.0,0.0,0.0,0.0,0.0,0.0,0.0,0.0,0.0,0.0,0.0,0.0,0.0,0.0,0.0,0.0,0.0,0.0,0.0,0.0,0.0,0.0,0.0,0.0,-1.5525,-1.4772,-1.4647,-1.373,-1.3102,-1.2811,-1.2573,-1.2445,-1.262,-1.2542,-1.2734,-1.2795,-1.2567,-1.2408,-1.2474,-1.2046,-1.185,-1.1612,-1.1164,-1.0865,-1.0565,-1.0328,-1.0287,-1.0139,-1.0639,-1.0888,-1.1027,-1.1852,-1.2561,-1.2986,-1.3928,-1.439,-1.4561,-1.5131,-1.5691,-1.6519,-1.7215,-1.8015,-1.8714,-1.9122,-1.9401,-1.968,-1.9831,-1.982,-1.9715,-2.0028,-1.9945,-1.9696,-1.9855,-1.9825,-1.9782,-1.9646,-1.9757,-1.9708,-1.9723,-1.9607,-1.9564,-1.9413,-1.9381,-1.9359,-1.9284,-1.9224,-1.9205,-1.9205,-1.8921,-1.8724,-1.8885,-1.8972,-1.9133,-1.9456,-1.9861,-2.012,-2.0274,-2.0296,-2.0098,-1.9479,-1.9435,-1.9227,-1.8876,-1.9122,-1.9401,-1.9401,-1.9541,-1.9312,-1.881,-1.8547,-1.8041,-1.7404,0.0,0.0,0.0,0.0,0.0,0.0,0.0,0.0,0.0,0.0,0.0,0.0,0.0,0.0,0.0,0.0,0.0,0.0,0.0,0.0,0.0,0.0,0.0,-1.712,-1.5724,-1.4846,-1.4556,-1.3933,-1.3255,-1.298,-1.285,-1.292,-1.3091,-1.3255,-1.3418,-1.359,-1.3015,-1.2359,-1.2067,-1.1619,-1.117,-1.0727,-1.0427,-1.0277,-1.0277,-0.9827,-0.9977,-1.0272,-1.0421,-1.1014,-1.2203,-1.2346,-1.316,-1.4318,-1.4845,-1.5479,-1.6197,-1.6188,-1.6744,-1.7449,-1.8153,-1.8714,-1.8993,-1.9401,-1.9541,-1.9541,-1.9541,-1.9541,-1.9541,-1.9552,-1.9273,-1.9005,-1.9005,-1.8899,-1.8799,-1.8799,-1.8972,-1.9155,-1.9155,-1.9155,-1.9155,-1.9155,-1.9155,-1.9219,-1.9445,-1.9305,-1.9155,-1.9155,-1.9155,-1.9155,-1.9155,-1.9348,0.0,-1.951,-1.9704,-1.9844,-1.9844,-1.9844,-1.9661,-1.9187,-1.9155,-1.8939,-1.8466,-1.8714,-1.8993,-1.8993,-1.9401,-1.9312,-1.8821,-1.795,-1.7438,-1.7174,0.0,0.0,0.0,0.0,0.0,0.0,0.0,0.0,0.0,0.0,0.0,0.0,0.0,0.0,0.0,0.0,0.0,0.0,0.0,0.0,0.0,-2.199,-1.989,-1.7001,-1.5988,-1.5512,-1.5081,-1.4638,-1.4374,-1.4231,-1.4058,-1.4011,-1.4067,-1.383,-1.3583,-1.3333,-1.2933,-1.2407,-1.1769,-1.1315,-1.0908,-1.0691,-1.0537,-1.0537,-1.0537,-1.0603,-1.086,-1.1302,-1.1802,-1.2345,-1.3089,-1.394,-1.4514,-1.4956,-1.5629,-1.6332,-1.703,-1.7014,-1.7308,-1.7721,-1.8293,-1.8433,-1.8573,-1.8714,-1.8714,-1.8854,-1.9133,-1.8993,-1.8746,-1.9204,-1.9118,-1.8866,-1.904,-1.8993,-1.9047,-1.9047,-1.9101,-1.9155,-1.9155,-1.9155,-1.9155,-1.9155,-1.9155,-1.902,-1.8937,-1.8749,-1.8905,-1.937,-1.9262,-1.9208,-1.9381,-1.9456,-1.9564,-1.9736,-1.9811,-1.9844,-1.9844,-1.9844,-1.9661,-1.9187,-1.9155,-1.8939,-1.8466,-1.8433,-1.8573,-1.8573,-1.8714,-1.8571,-1.8276,-1.7719,-1.7435,0.0,0.0,0.0,0.0,0.0,0.0,0.0,0.0,0.0,0.0,0.0,0.0,0.0,0.0,0.0,0.0,0.0,0.0,0.0,0.0,0.0,0.0,-2.4579,-2.2438,-1.9388,-1.7662,-1.649,-1.6112,-1.5767,-1.5351,-1.5293,-1.4965,-1.4728,-1.4728,-1.4207,-1.3806,-1.3656,-1.3115,-1.2588,-1.2066,-1.1613,-1.1337,-1.1107,-1.1107,-1.1262,-1.1417,-1.1798,-1.2213,-1.2512,-1.3181,-1.3748,-1.435,-1.5027,-1.5589,-1.6035,-1.6536,-1.7233,-1.7945,0.0,0.0,0.0,0.0,-1.8519,-1.8433,-1.8433,-1.8433,-1.8433,-1.8714,-1.8573,-1.8466,-1.8888,-1.878,-1.867,-1.881,-1.8853,-1.8853,-1.8853,-1.8853,-1.8853,-1.8853,-1.8699,-1.8555,-1.8555,-1.8422,-1.83,-1.8249,-1.8269,0.0,-1.8842,-1.8938,-1.878,-1.9159,-1.9051,-1.9243,-1.9531,-1.9542,-1.9693,-1.9844,-1.9844,-1.9661,-1.9187,-1.9155,0.0,0.0,0.0,-1.8433,-1.8433,-1.8347,0.0,0.0,0.0,-1.7518,-1.7518,-1.7658,0.0,0.0,-1.7335,-1.7432,0.0,0.0,0.0,0.0,0.0,0.0,0.0,0.0,0.0,0.0,0.0,0.0,0.0,0.0,0.0,0.0,-2.7645,-2.5997,-2.3223,-2.0167,-1.8036,-1.7305,-1.6962,-1.6623,-1.637,-1.5676,-1.524,-1.5249,-1.4643,-1.4279,-1.4279,-1.3662,0.0,0.0,0.0,-1.2192,-1.2037,-1.2185,-1.2494,-1.2811,-1.3259,-1.3722,-1.403,-1.4491,-1.5113,-1.588,-1.6161,-1.6542,-1.7273,-1.7536,-1.8047,-1.8623,-1.8289,-1.8571,-1.9122,-1.8907,-1.867,-1.8476,-1.8476,0.0,0.0,-1.8433,-1.8433,-1.8433,-1.8433,-1.8455,-1.8476,-1.8476,-1.8498,-1.8519,-1.8519,-1.8519,-1.8519,-1.8519,-1.8227,-1.7934,-1.7913,-1.7621,-1.7389,-1.7561,-1.7602,-1.7733,-1.804,-1.8279,-1.838,-1.8613,-1.8643,-1.8795,-1.9098,-1.9088,-1.9249,-1.9693,-1.9844,0.0,-1.9084,-1.902,-1.8961,-1.8509,-1.8455,-1.8433,-1.8433,-1.8218,-1.811,-1.8132,-1.7884,-1.7787,-1.7841,-1.7841,-1.8067,-1.8509,-1.8024,-1.7949,0.0,0.0,0.0,0.0,0.0,0.0,0.0,0.0,0.0,0.0,0.0,0.0,0.0,0.0,0.0,-3.2835,-3.0779,-2.8476,-2.6072,-2.3749,-2.1328,-1.8767,-1.8102,-1.7743,-1.7038,-1.6596,-1.6393,-1.5946,-1.5514,-1.5378,-1.5378,-1.4952,-1.4345,-1.4037,-1.3883,-1.3722,-1.3414,-1.403,-1.4491,-1.4483,-1.5259,0.0,-1.6186,-1.6644,-1.7102,-1.7569,-1.7986,-1.8128,-1.827,-1.8381,-1.8662,-1.9072,-1.9001,-1.8998,-1.9144,-1.9101,-1.8928,-1.8713,-1.8713,-1.8595,-1.8433,-1.8433,-1.8433,-1.8433,-1.8433,-1.8562,0.0,-1.8713,-1.8853,-1.9015,-1.9015,-1.9015,-1.9015,-1.9015,-1.8715,-1.8373,-1.8185,-1.7857,-1.7388,-1.6964,-1.6935,-1.693,-1.7086,-1.7743,-1.838,-1.8613,-1.8643,-1.8643,-1.8643,-1.8795,-1.8795,-1.8795,-1.9098,-1.9285,-1.9012,-1.8969,-1.9025,-1.8735,-1.8541,-1.8433,-1.8433,-1.8218,-1.8186,-1.8369,-1.8142,-1.8207,-1.8573,-1.8573,-1.8724,-1.9004,-1.8519,-1.853,0.0,0.0,0.0,0.0,0.0,0.0,0.0,0.0,0.0,0.0,0.0,1.0302,-0.3618,0.0,-2.8897,-3.4804,-3.4146,-3.2035,-2.9492,-2.732,-2.451,-2.0573,-1.9779,-1.9085,-1.8301,-1.7805,-1.7569,-1.7111,-1.6806,-1.6492,-1.6492,-1.6195,-1.5735,-1.5573,-1.542,-1.5267,-1.5267,-1.5871,-1.633,-1.6483,-1.7245,-1.7702,-1.7711,-1.8168,-1.8329,-1.8339,-1.8491,-1.8643,-1.8946,-1.9098,-1.9401,-1.952,-1.9436,-1.9424,-1.9327,-1.9327,-1.9176,-1.8972,-1.8972,-1.881,-1.8605,-1.8605,-1.853,-1.8433,-1.8433,-1.8519,-1.8605,-1.8605,-1.8549,-1.8502,-1.8502,-1.8359,-1.8247,-1.8352,-1.8094,-1.7804,-1.7804,-1.7514,-1.7049,-1.6798,-1.6769,-1.673,-1.6897,-1.7336,-1.7781,-1.8006,-1.8035,-1.8035,-1.8339,-1.8339,-1.8339,-1.8643,-1.8795,-1.8854,-1.8628,-1.8549,-1.8508,-1.8672,-1.8555,-1.8502,-1.8789,-1.8562,-1.8498,-1.8605,-1.8379,-1.8433,-1.8789,-1.8789,-1.8972,-1.9316,-1.9079,-1.9101,0.0,0.0,0.0,0.0,0.0,0.0,0.0,4.3194,4.3903,4.4611,3.4166,2.0468,0.5453,-0.8728,-2.2688,-3.64,-3.733,-3.5537,-3.2841,-3.0684,-2.7802,-2.3469,-2.2044,-2.0969,-1.9822,-1.938,-1.8926,-1.8471,-1.8168,-1.8006,-1.8006,-1.7711,-1.7559,-1.7559,-1.7255,-1.7102,-1.7559,-1.7864,-1.8168,-1.8481,-1.9229,-1.938,-1.9077,-1.939,-1.9239,-1.8946,-1.8946,-1.9098,-1.939,-1.9693,-1.9844,-1.9844,-1.9844,-1.9736,-1.9564,-1.9564,-1.9413,-1.9219,-1.9219,-1.9058,-1.8853,-1.8853,-1.8724,-1.8562,-1.8519,-1.8541,-1.8562,-1.8519,-1.8248,-1.7997,-1.7997,-1.7724,-1.748,-1.7652,-1.7414,-1.7165,-1.7292,-1.7029,-1.6745,-1.6745,-1.6745,-1.6821,-1.6917,-1.6955,-1.703,-1.7398,-1.7426,-1.7578,-1.7873,-1.7873,-1.8016,-1.828,-1.8431,-1.8341,-1.8259,-1.8117,-1.8016,-1.8414,-1.8404,-1.855,-1.8998,-1.8763,-1.8789,-1.8789,-1.8552,-1.8573,-1.8853,-1.8853,-1.9101,-1.9564,-1.9564,-1.9564,4.3514,4.2608,4.1799,4.1526,4.1529,4.1746,0.0,4.2851,4.3598,4.4439,3.3152,1.8447,0.3425,-1.0774,-2.4795,-3.8868,-3.9373,-3.7434,-3.53,-3.3289,-3.1288,-2.9075,-2.5674,-2.3227,-2.1924,-2.1475,-2.0876,-2.0135,-2.0135,-2.0135,-2.0135,-1.9984,-2.0135,-2.0575,-2.0135,-1.9984,-1.9984,-1.9984,-2.0135,-2.0135,-2.0609,-2.091,-2.0759,-2.0447,-2.0296,-2.0296,-1.9844,-1.9844,-1.9844,-1.9844,-1.9844,-1.9844,-1.9844,-1.9833,-1.9811,-1.9811,-1.9661,-1.9456,-1.9456,-1.9305,-1.9112,-1.9112,-1.909,-1.9025,-1.881,-1.8896,-1.9025,-1.881,-1.8608,-1.8477,-1.8477,-1.8196,-1.7915,-1.7935,-1.7643,-1.7302,-1.7145,-1.6808,-1.6519,-1.6519,-1.6519,-1.6496,-1.66,-1.6514,-1.6738,-1.7398,-1.7426,-1.7426,-1.7426,-1.7426,-1.735,-1.7311,-1.7592,-1.7812,-1.8036,-1.8168,-1.8178,-1.7986,-1.7976,-1.8122,-1.855,-1.8341,-1.8502,-1.8778,-1.8552,-1.8659,-1.9112,-1.9112,-1.9348,-1.9811,-1.9811,-1.9811,4.3517,4.25,4.1867,4.2032,4.2118,4.2312,4.3098,4.3557,4.4037,4.4716,4.0411,2.91,0.4845,-0.3956,-1.527,-3.876,-4.1633,-4.0167,-3.8118,-3.6363,-3.4605,-3.2719,-3.0165,-2.7423,-2.4529,-2.4127,-2.3684,-2.2955,-2.2806,-2.2806,-2.2521,-2.2521,-2.2521,-2.2372,-2.2073,-2.1775,-2.1775,-2.1487,-2.1499,-2.1499,-2.166,-2.166,-2.1372,-2.106,-2.0609,-2.0145,-1.9995,-1.9844,-1.9844,-1.9844,-1.9844,-1.9844,-1.9844,-1.9758,-1.9661,-1.9801,-1.979,-1.9704,-1.9704,-1.9553,-1.9348,-1.9348,-1.9165,-1.8918,-1.881,-1.8613,-1.8418,-1.8322,-1.7938,-1.7438,-1.7438,-1.7152,-1.7047,-1.7174,-1.7049,-1.6913,-1.6961,-1.6816,-1.667,-1.6369,-1.6369,-1.6278,-1.6008,-1.6035,-1.6107,-1.6455,-1.659,-1.6662,-1.6662,-1.6968,-1.7037,-1.7123,-1.7149,-1.7192,-1.7253,-1.7437,-1.7663,-1.7734,-1.7842,-1.821,-1.8509,-1.8591,-1.855,-1.8704,-1.8752,-1.895,-1.9155,-1.9284,-1.9521,-1.9844,-1.9844,-1.9844,4.3408,4.2684,4.2355,4.2449,4.2611,4.2887,4.3674,4.3992,4.4441,4.5126,4.5711,3.6767,0.5941,0.0957,-0.8366,-3.8799,-4.3268,-4.2305,-4.0709,-3.9226,-3.7712,-3.6102,-3.4258,-3.1953,-2.8632,-2.7538,-2.6648,-2.5862,-2.5862,-2.5583,-2.5171,-2.5024,-2.4877,-2.4596,-2.4005,-2.3561,-2.3413,-2.2992,-2.2694,-2.2545,-2.2558,-2.2259,-2.196,-2.1372,-2.0759,-1.9995,-1.9995,-1.9844,-1.9844,-1.9844,-1.9844,-1.9844,-1.9844,-1.9704,-1.9521,-1.9693,-1.9714,-1.9661,-1.9661,-1.9542,-1.9402,-1.9402,-1.9165,-1.8875,-1.8799,-1.8375,-1.7945,-1.7882,-1.7298,-1.6734,-1.6734,-1.6452,-1.6216,-1.6215,-1.6252,-1.6299,-1.6313,-1.6341,-1.6214,-1.5967,-1.5976,-1.5847,-1.5606,-1.5467,-1.5519,-1.5509,-1.5647,-1.5759,-1.6116,-1.633,-1.6505,-1.6657,-1.6508,-1.6424,-1.6571,-1.6758,-1.7048,-1.7553,-1.7699,-1.7967,-1.8491,-1.8581,-1.8673,-1.8654,-1.8884,-1.9187,-1.9252,-1.9413,-1.9618,-1.9844,-1.9995,-1.9995,4.3231,4.3226,4.3191,4.2669,4.2784,4.3154,4.3729,4.3859,4.4255,4.5342,4.5582,3.6237,0.5602,0.0744,-0.8817,-3.9672,-4.4004,-4.3305,-4.2568,-4.1515,-4.0442,-3.9234,-3.7827,-3.6403,-3.5182,-3.198,-2.9773,-2.9139,-2.9028,-2.8757,-2.8068,-2.765,-2.736,-2.739,-2.6225,-2.5492,-2.5198,-2.4327,-2.3735,-2.329,-2.3005,-2.2856,-2.2856,-2.166,-2.091,-2.0447,-1.9995,-1.9844,-1.9844,-1.9844,-1.9844,-1.9844,-1.9844,-1.9704,-1.9499,-1.951,-1.937,-1.9165,-1.9165,-1.9165,-1.9165,-1.9165,-1.9155,-1.909,-1.8853,-1.8492,-1.8153,-1.7924,-1.7298,-1.6734,-1.6734,-1.6452,-1.6037,-1.5753,-1.5612,-1.5479,-1.5203,-1.507,-1.5123,-1.5452,-1.5487,-1.5404,-1.5146,-1.518,-1.5032,-1.444,-1.444,-1.4811,-1.5746,-1.5588,-1.5505,-1.5496,-1.5487,-1.5632,-1.5922,-1.6104,-1.6444,-1.7095,-1.7114,-1.735,-1.8016,-1.8271,-1.8448,-1.8905,-1.8969,-1.9262,-1.9488,-1.9499,-1.9618,-1.9844,-2.0296,-2.0447,4.3047,4.3111,4.2982,4.3544,4.3677,4.3729,4.4304,4.4434,4.4594,4.5449,4.5609,3.6237,0.5597,0.0423,-0.9389,-4.0294,-4.5045,-4.4611,-4.4016,-4.31,-4.2114,-4.1351,-3.9951,-3.8828,-3.8015,-3.525,-3.3101,-3.2409,-3.2556,-3.2158,-3.1192,-3.0768,-3.0233,-2.9393,-2.8259,-2.739,-2.6663,-2.5639,-2.4918,-2.4193,-2.36,-2.3005,-2.2408,-2.196,-2.1349,-2.0447,-2.0296,-2.0145,-1.9844,-1.9844,-1.9844,-1.9833,-1.9671,-1.9478,-1.9252,-1.9079,-1.8875,-1.8724,-1.9036,-1.9155,-1.9155,-1.9155,-1.9036,-1.8896,-1.8524,-1.7969,-1.7541,-1.7178,-1.6734,-1.632,-1.632,-1.6037,-1.5753,-1.5603,-1.547,-1.5186,-1.5052,-1.5052,-1.4927,-1.4845,-1.4854,-1.4736,-1.4363,-1.4372,-1.4268,-1.4245,-1.4359,-1.4605,-1.5266,-1.5052,-1.5035,-1.5334,-1.5219,-1.514,-1.5292,-1.5461,-1.5949,-1.6444,-1.6453,-1.6759,-1.7559,-1.812,-1.8448,-1.8895,-1.9564,-2.0169,-2.0229,-2.0407,-2.068,-2.0759,-2.1048,-2.1199,4.2478,4.2858,4.3075,4.3702,4.3828,4.3981,4.4344,4.4531,4.4748,4.5287,4.5342,3.6004,0.5474,-0.0105,-1.012,-4.1014,-4.5954,-4.5888,-4.5422,-4.4729,-4.3916,-4.3437,-4.2168,-4.1057,-4.0575,-3.8905,-3.7115,-3.5593,-3.5779,-3.5354,-3.4121,-3.3448,-3.263,-3.1666,-3.0392,-2.9393,-2.8532,-2.739,-2.6225,-2.5065,-2.4179,-2.3438,-2.2843,-2.2545,-2.1948,-2.1048,-2.0898,-2.0597,-2.0145,-2.0145,-1.9995,-1.9822,-1.9585,-1.9359,-1.9122,-1.8875,-1.8638,-1.8476,-1.8789,-1.8896,-1.8896,-1.8896,-1.8789,-1.8659,-1.8233,-1.7703,-1.7168,-1.6875,-1.6461,-1.6178,-1.6037,-1.5753,-1.5461,-1.5328,-1.5044,-1.4759,-1.4617,-1.4617,-1.4474,-1.4332,-1.4332,-1.4189,-1.3904,-1.3904,-1.3945,-1.4058,-1.4172,-1.4416,-1.4776,-1.4625,-1.4499,-1.4796,-1.4694,-1.4617,-1.4768,-1.5075,-1.5413,-1.6195,-1.6277,-1.6768,-1.7559,-1.82,-1.887,-1.9159,-2.0369,-2.0968,-2.0957,-2.1279,-2.151,-2.151,-2.181,-2.2109,4.1647,4.2499,4.3325,4.3054,4.3489,4.3899,4.3899,4.4068,4.437,4.5046,4.4282,3.4589,0.501,-0.1344,-1.1887,-4.2035,-4.6862,-4.6894,-4.6894,-4.6354,-4.5919,-4.559,-4.43,-4.333,-4.3073,-4.2928,-4.1672,-3.8873,-3.8717,-3.82,-3.6729,-3.5665,-3.4708,-3.4038,-3.2491,-3.135,-3.0643,-2.9393,-2.7825,-2.5946,-2.5212,-2.4636,-2.4179,-2.329,-2.2694,-2.2247,-2.181,-2.1199,-2.0597,-2.0597,-2.0296,-1.9973,-1.9585,-1.9359,-1.9122,-1.8875,-1.8638,-1.8433,-1.8433,-1.8433,-1.8433,-1.8433,-1.8293,-1.8293,-1.8002,-1.758,-1.7168,-1.6734,-1.6452,-1.6037,-1.5744,-1.5603,-1.5328,-1.4617,-1.4474,-1.4332,-1.4047,-1.3904,-1.3904,-1.3904,-1.3904,-1.3904,-1.3904,-1.3904,-1.3904,-1.3904,-1.3904,-1.3969,-1.414,-1.401,-1.3904,-1.3904,-1.3904,-1.4047,-1.4491,-1.4643,-1.5113,-1.6204,-1.6396,-1.7049,-1.8016,-1.8774,-1.938,-1.9833,-2.1048,-2.1648,-2.166,-2.2097,-2.2247,-2.2247,-2.2694,-2.2856,4.1651,4.2233,4.2536,4.2881,4.3108,4.3321,4.3517,4.3431,4.3558,4.4334,3.5642,2.1976,0.3043,-0.9851,-2.4115,-4.3654,-4.7402,-4.7763,-4.7763,-4.7273,-4.6855,-4.654,-4.5635,-4.4853,-4.4523,-4.4649,-4.4327,-4.3385,-4.2074,-4.071,-3.9277,-3.8729,-3.7934,-3.6614,-3.5354,-3.4121,-3.2874,-3.0926,-2.9377,-2.8388,-2.7795,-2.7085,-2.621,-2.5625,-2.4743,-2.3574,-2.2843,-2.2097,-2.1349,-2.106,-2.0759,-2.0274,-2.0032,-1.9643,-1.9122,-1.8875,-1.8638,-1.8433,-1.8433,-1.8293,-1.8002,-1.8002,-1.7872,-1.7449,-1.7157,-1.6875,-1.6734,-1.6461,-1.632,-1.6037,-1.5744,-1.5328,-1.5044,-1.4617,-1.4332,-1.4047,-1.3904,-1.3904,-1.3904,-1.3904,-1.3904,-1.3904,-1.3904,-1.3904,-1.3904,-1.3904,-1.3904,-1.392,-1.3969,-1.3928,-1.3904,-1.3904,-1.3904,-1.3961,-1.4244,-1.4575,-1.5319,-1.6396,-1.6638,-1.7336,-1.8774,-1.9233,-1.996,-2.1176,-2.1798,-2.2396,-2.2992,-2.2992,-2.3141,-2.3141,-2.3438,-2.3851,4.109,4.1509,4.178,4.21,4.2174,4.2287,4.2488,4.2534,4.2678,4.3566,3.1728,1.678,0.1797,-1.3667,-2.9261,-4.4782,-4.7985,-4.8594,-4.8878,-4.8499,-4.8089,-4.7751,-4.7264,-4.6706,-4.6107,-4.6316,-4.6372,-4.5984,-4.4451,-4.313,-4.1947,-4.1309,-4.0537,-3.9606,-3.8423,-3.6938,-3.5062,-3.3255,-3.1878,-3.1175,-3.0343,-2.9488,-2.8644,-2.7924,-2.6765,-2.5171,-2.4449,-2.3426,-2.2384,-2.181,-2.136,-2.0876,-2.0478,-2.0003,-1.9555,-1.9194,-1.8845,-1.8573,-1.8466,-1.8012,-1.7731,-1.7861,-1.759,-1.7168,-1.6875,-1.6734,-1.6593,-1.632,-1.6037,-1.5895,-1.547,-1.5044,-1.4617,-1.4332,-1.4047,-1.3904,-1.3904,-1.3904,-1.3904,-1.3904,-1.3904,-1.3904,-1.3904,-1.3904,-1.3904,-1.3904,-1.3904,-1.3904,-1.3904,-1.3904,-1.3904,-1.3904,-1.4112,-1.4347,-1.4455,-1.519,-1.5963,-1.7076,-1.7375,-1.837,-1.9973,-2.0303,-2.09,-2.2085,-2.2694,-2.3141,-2.3587,-2.3883,-2.3896,-2.3896,-2.4193,-2.4499,3.3963,3.4379,3.4706,3.4727,3.4727,3.4862,3.5312,3.5511,3.5825,3.6744,2.4904,1.0529,-0.2257,-1.7466,-3.2433,-4.5761,-4.8436,-4.9123,-4.9867,-4.9649,-4.9342,-4.9221,-4.8964,-4.8489,-4.7702,-4.7829,-4.7906,-4.7617,-4.6518,-4.5451,-4.4596,-4.3707,-4.306,-4.2534,-4.1264,-3.9584,-3.7452,-3.611,-3.5024,-3.4203,-3.2959,-3.2001,-3.1456,-3.0326,-2.89,-2.7331,-2.6474,-2.5171,-2.3709,-2.2831,-2.2247,-2.1775,-2.1105,-2.0706,-2.0173,-1.9714,-1.9239,-1.8888,-1.8519,-1.8012,-1.7449,-1.7721,-1.759,-1.7026,-1.6734,-1.6593,-1.6593,-1.632,-1.5895,-1.5461,-1.5052,-1.4768,-1.4332,-1.4047,-1.3904,-1.3904,-1.3904,-1.3904,-1.3904,-1.3904,-1.3904,-1.3904,-1.3904,-1.3904,-1.3904,-1.3904,-1.3904,-1.3904,-1.3904,-1.392,-1.3937,-1.408,-1.4524,-1.4941,-1.4967,-1.5999,-1.7105,-1.7891,-1.8512,-1.952,-2.1037,-2.1487,-2.2085,-2.2992,-2.3587,-2.4044,-2.4044,-2.4488,-2.4636,-2.4636,-2.4636,-2.4796,0.1004,0.1211,0.1316,0.1427,0.153,0.1833,0.2831,0.3204,0.3657,0.494,-0.6472,-1.7316,-1.9652,-3.2855,-4.4329,-4.7326,-4.8478,-4.9417,-5.0411,-5.0054,-4.9819,-5.0153,-4.9665,-4.9356,-4.92,-4.92,-4.9331,-4.9481,-4.9562,-4.8532,-4.632,-4.608,-4.5451,-4.4326,-4.3185,-4.1902,-4.0449,-3.9563,-3.8513,-3.7185,-3.7031,-3.611,-3.4515,-3.3651,-3.2123,-3.0058,-2.8485,-2.7055,-2.5772,-2.4327,-2.3438,-2.2967,-2.2198,-2.1597,-2.0932,-2.005,-1.9526,-1.9173,-1.866,-1.8153,-1.7721,-1.7449,-1.6885,-1.632,-1.632,-1.632,-1.632,-1.6178,-1.5895,-1.5461,-1.5052,-1.4768,-1.4332,-1.4047,-1.3904,-1.3904,-1.3904,-1.3904,-1.3904,-1.3904,-1.3904,-1.3904,-1.3904,-1.3904,-1.3904,-1.3904,-1.3904,-1.4047,-1.4332,-1.4178,-1.4268,-1.4558,-1.4872,-1.5337,-1.608,-1.7057,-1.7921,-1.8864,-1.9962,-2.1037,-2.1948,-2.2396,-2.2992,-2.3735,-2.3896,-2.4193,-2.4488,-2.4636,-2.4636,-2.4636,-2.4636,-2.4796,-0.7687,-0.7601,-0.7608,-0.7534,-0.7353,-0.6936,-0.5841,-0.5498,-0.4945,-0.3688,-1.4903,-2.4937,-2.4666,-3.704,-4.7486,-4.7852,-4.8588,-4.9493,-5.0581,-5.0443,-5.0235,-5.0104,-5.0354,-5.0237,-4.9768,-5.0187,-5.0685,-5.1072,-5.1293,-5.0489,-4.8673,-4.8442,-4.7834,-4.6509,-4.5668,-4.4646,-4.3512,-4.2534,-4.152,-4.0751,-3.9975,-3.9061,-3.7739,-3.6669,-3.5043,-3.2856,-3.0876,-2.9202,-2.765,-2.5918,-2.5051,-2.4609,-2.3587,-2.2818,-2.2093,-2.0967,-2.0278,-1.9884,-1.9071,-1.8433,-1.8153,-1.7721,-1.7017,-1.6461,-1.6178,-1.6178,-1.6178,-1.5895,-1.5612,-1.5186,-1.491,-1.4474,-1.4189,-1.3904,-1.3904,-1.3904,-1.3904,-1.3904,-1.3904,-1.3904,-1.3904,-1.3904,-1.3904,-1.3904,-1.3904,-1.3904,-1.4047,-1.4332,-1.4474,-1.4788,-1.5189,-1.547,-1.5793,-1.6444,-1.7385,-1.855,-1.9564,-2.0425,-2.1337,-2.2235,-2.3141,-2.329,-2.3748,-2.4341,-2.4341,-2.4341,-2.4636,-2.4636,-2.4636,-2.4636,-2.4636,-2.4877,-1.8303,-1.8384,-1.8369,-1.8222,-1.8075,-1.7548,-1.632,-1.5737,-1.5201,-1.3841,-2.2444,-3.0209,-2.9935,-3.9536,-4.7552,-4.7988,-4.8571,-4.9384,-5.0377,-5.0601,-5.0583,-5.0211,-5.0982,-5.1225,-5.0424,-5.122,-5.1976,-5.2408,-5.2516,-5.2056,-5.0851,-5.0517,-4.9843,-4.8789,-4.8094,-4.7365,-4.6295,-4.5086,-4.4227,-4.3855,-4.258,-4.1693,-4.0924,-3.9389,-3.7637,-3.5472,-3.345,-3.1496,-2.9563,-2.7712,-2.6764,-2.6125,-2.4742,-2.4037,-2.3391,-2.205,-2.1375,-2.0733,-1.9632,-1.8993,-1.8714,-1.8153,-1.7439,-1.6593,-1.6461,-1.632,-1.6178,-1.5753,-1.5328,-1.491,-1.4617,-1.4189,-1.3904,-1.3904,-1.3904,-1.3904,-1.3904,-1.3904,-1.3904,-1.3904,-1.3904,-1.3904,-1.3904,-1.3904,-1.3904,-1.4047,-1.4332,-1.4617,-1.4759,-1.5605,-1.629,-1.6616,-1.7,-1.7674,-1.8736,-2.0003,-2.1037,-2.1786,-2.2545,-2.329,-2.4044,-2.4044,-2.4341,-2.4636,-2.4636,-2.4636,-2.4636,-2.4636,-2.4636,-2.4636,-2.4703,-2.4983,-5.1442,-5.1575,-5.1543,-5.1163,-5.0944,-5.0182,-4.8218,-4.7322,-4.6394,-4.4832,-4.5073,-4.5605,-4.5575,-4.6486,-4.7434,-4.7882,-4.8263,-4.8963,-4.9999,-5.0237,-5.0443,-5.1033,-5.165,-5.1947,-5.1937,-5.278,-5.329,-5.3395,-5.3605,-5.3261,-5.2085,-5.1759,-5.1348,-5.0656,-5.0068,-4.9274,-4.8326,-4.7416,-4.6585,-4.5985,-4.5257,-4.4374,-4.3333,-4.1514,-3.977,-3.7905,-3.5258,-3.3121,-3.1396,-2.9626,-2.8456,-2.7752,-2.5896,-2.51,-2.4823,-2.2834,-2.2064,-2.186,-2.0471,-1.997,-1.9831,-1.8714,-1.758,-1.6734,-1.6734,-1.6452,-1.6178,-1.6178,-1.5612,-1.5052,-1.491,-1.4474,-1.3904,-1.3904,-1.3904,-1.3904,-1.3904,-1.3904,-1.3904,-1.3904,-1.3904,-1.3904,-1.3904,-1.3904,-1.4047,-1.4332,-1.4474,-1.4901,-1.5895,-1.633,-1.7258,-1.8888,-1.8446,-1.8725,-2.0217,-2.1038,-2.1786,-2.2694,-2.3438,-2.3896,-2.4044,-2.4341,-2.4488,-2.4636,-2.4636,-2.4636,-2.4636,-2.4636,-2.4636,-2.4649,-2.4917,-2.5064,-5.5955,-5.6165,-5.6086,-5.5846,-5.5442,-5.4562,-5.2663,-5.1685,-5.0807,-4.9161,-4.8301,-4.7794,-4.7794,-4.7538,-4.7344,-4.7614,-4.8083,-4.8664,-4.9164,-4.9791,-5.0198,-5.0254,-5.1121,-5.186,-5.2267,-5.3128,-5.3891,-5.4539,-5.4466,-5.4259,-5.3815,-5.3184,-5.2544,-5.1976,-5.1183,-5.0517,-4.9983,-4.893,-4.8236,-4.7886,-4.6637,-4.5629,-4.4957,-4.3096,-4.1498,-3.9869,-3.7847,-3.5848,-3.4197,-3.2326,-3.0955,-2.9881,-2.8217,-2.7031,-2.6121,-2.447,-2.3583,-2.3006,-2.166,-2.1081,-2.0943,-1.9831,-1.8843,-1.7861,-1.7017,-1.6593,-1.6452,-1.5895,-1.5612,-1.5328,-1.4759,-1.4332,-1.3904,-1.3904,-1.3904,-1.3904,-1.3904,-1.3904,-1.3937,-1.405,-1.4066,-1.4066,-1.4066,-1.4211,-1.4449,-1.4768,-1.5186,-1.5895,-1.6734,-1.7693,-1.8801,-1.9895,-1.9648,-2.0072,-2.1543,-2.2238,-2.2992,-2.3438,-2.4044,-2.4341,-2.4341,-2.4488,-2.4636,-2.4636,-2.4636,-2.4636,-2.4636,-2.4636,-2.473,-2.4903,-2.5024,-2.5264,-5.5784,-5.6159,-5.6244,-5.6165,-5.5685,-5.4645,-5.2745,-5.1852,-5.0891,-4.9192,-4.8385,-4.7964,-4.788,-4.7452,-4.7167,-4.7288,-4.7874,-4.8395,-4.8457,-4.9455,-5.0092,-4.9824,-5.0924,-5.1953,-5.2556,-5.3625,-5.454,-5.525,-5.5078,-5.4905,-5.4905,-5.4259,-5.3605,-5.2837,-5.1976,-5.143,-5.1128,-5.0096,-4.9335,-4.9033,-4.7607,-4.663,-4.6078,-4.422,-4.2919,-4.1804,-3.9909,-3.8226,-3.6624,-3.508,-3.3608,-3.2162,-3.0571,-2.9245,-2.8051,-2.6315,-2.5334,-2.4481,-2.3256,-2.2585,-2.2173,-2.1069,-2.0388,-1.9541,-1.7991,-1.7157,-1.6734,-1.631,-1.5886,-1.5612,-1.4901,-1.4474,-1.4189,-1.4189,-1.4189,-1.4189,-1.4189,-1.4231,-1.4449,-1.4583,-1.465,-1.4692,-1.4692,-1.4975,-1.536,-1.565,-1.6358,-1.7063,-1.8049,-1.9195,-2.0163,-2.1006,-2.1258,-2.1788,-2.2727,-2.3286,-2.3735,-2.4193,-2.4488,-2.4636,-2.4636,-2.4636,-2.4636,-2.4636,-2.4636,-2.4636,-2.4636,-2.4636,-2.4783,-2.5077,-2.517,-2.5684,-5.5005,-5.5842,-5.6603,-5.6244,-5.5766,-5.4777,-5.2517,-5.1685,-5.0807,-4.8745,-4.8133,-4.788,-4.7624,-4.7193,-4.6931,-4.6931,-4.755,-4.8126,-4.8126,-4.9267,-5.0086,-5.0086,-5.132,-5.2456,-5.3114,-5.4669,-5.5581,-5.5581,-5.5381,-5.5209,-5.5209,-5.4905,-5.4363,-5.353,-5.2652,-5.2004,-5.1787,-5.0906,-5.0047,-4.9142,-4.8444,-4.7675,-4.6784,-4.5063,-4.3992,-4.3576,-4.1523,-3.9896,-3.8557,-3.7243,-3.5913,-3.4505,-3.2568,-3.1395,-3.0557,-2.8461,-2.7137,-2.647,-2.5278,-2.4481,-2.3665,-2.2585,-2.2035,-2.1484,-1.9947,-1.8422,-1.7308,-1.7308,-1.6744,-1.6037,-1.5195,-1.5052,-1.5052,-1.5052,-1.5052,-1.5052,-1.5052,-1.5202,-1.5334,-1.5334,-1.5483,-1.5606,-1.5606,-1.6057,-1.6499,-1.7223,-1.7663,-1.8529,-2.0127,-2.0717,-2.1306,-2.2443,-2.3563,-2.4024,-2.3614,-2.3875,-2.4193,-2.4636,-2.4636,-2.4636,-2.4636,-2.4636,-2.4636,-2.4636,-2.4636,-2.4636,-2.4636,-2.4636,-2.4783,-2.509,-2.5371,-2.598,-5.4865,-5.5402,-5.5587,-5.5763,-5.5134,-5.4034,-5.2207,-5.1059,-5.0049,-4.8569,-4.7964,-4.7709,-4.7624,-4.7193,-4.6844,-4.6756,-4.7137,-4.7566,-4.7911,-4.8763,-4.9655,-5.0346,-5.2217,-5.3637,-5.4135,-5.5189,-5.588,-5.588,-5.5481,-5.5179,-5.5179,-5.5006,-5.4568,-5.4097,-5.3395,-5.2771,-5.2023,-5.114,-5.0429,-4.9602,-4.8408,-4.7677,-4.7136,-4.579,-4.4765,-4.4104,-4.2986,-4.1761,-4.0616,-3.9756,-3.8529,-3.6954,-3.5683,-3.4238,-3.2734,-3.1304,-3.0107,-2.8969,-2.7916,-2.7137,-2.6203,-2.4993,-2.4046,-2.3379,-2.2134,-2.0352,-1.8703,-1.7861,-1.7298,-1.6866,-1.631,-1.6037,-1.5753,-1.5753,-1.5753,-1.5895,-1.6169,-1.6226,-1.6492,-1.7068,-1.7185,-1.7272,-1.7121,-1.7595,-1.8138,-1.8142,-1.8977,-1.9994,-2.1006,-2.1897,-2.2734,-2.3602,-2.4448,-2.4701,-2.4485,-2.4888,-2.5212,-2.5359,-2.5226,-2.5079,-2.5359,-2.5226,-2.5079,-2.5359,-2.5359,-2.5359,-2.5359,-2.5714,-2.6087,-2.6599,-2.6735,-2.7139,-5.3858,-5.4305,-5.4522,-5.455,-5.4035,-5.3067,-5.1434,-5.0465,-4.955,-4.8255,-4.7794,-4.7538,-4.7366,-4.7019,-4.6668,-4.6491,-4.6871,-4.7362,-4.7882,-4.8805,-4.9917,-5.1309,-5.317,-5.4531,-5.5005,-5.5633,-5.5979,-5.5979,-5.5481,-5.5179,-5.5179,-5.5006,-5.4773,-5.4539,-5.3581,-5.2845,-5.2232,-5.1375,-5.0424,-4.9595,-4.8653,-4.7823,-4.7288,-4.6274,-4.5582,-4.5046,-4.4396,-4.3517,0.0,-4.1899,-4.0822,-3.9428,-3.8439,-3.698,-3.5273,-3.4262,-3.301,-3.1888,-3.0753,-2.9865,-2.9083,-2.7735,-2.6439,-2.5383,-2.4709,-2.2532,-2.0074,-1.9251,-1.8681,-1.8401,-1.7851,-1.758,-1.7439,-1.7439,-1.7439,-1.7439,-1.771,-1.7913,-1.8222,-1.8891,-1.9187,-1.918,-1.9117,-1.9607,-1.9999,-2.0003,-2.0715,-2.1594,-2.2481,-2.3216,-2.3904,-2.4779,-2.5249,-2.5583,-2.5679,-2.5688,-2.58,-2.58,-2.5506,-2.5506,-2.58,-2.5506,-2.5506,-2.58,-2.58,-2.58,-2.58,-2.622,-2.6696,-2.7186,-2.7493,-2.779,0.0,-5.2888,-5.3363,-5.2797,-5.2475,-5.1846,-5.0362,-4.9789,0.0,-4.786,-4.7538,-4.7452,-4.7019,-4.6756,-4.6491,-4.6314,-4.678,-4.7453,-4.816,-4.9267,-5.084,-5.2758,-5.4157,-5.5267,-5.5684,-5.5847,-5.5979,-5.5979,-5.5481,-5.5179,-5.5179,-5.5179,-5.5078,-5.4743,-5.3349,-5.2617,-5.2617,-5.1362,-5.0189,-4.9024,-4.9024,-4.8434,-4.7288,-4.6742,-4.6428,-4.6428,-4.5609,-4.4964,-4.4313,-4.3738,-4.2824,-4.1696,-4.0707,-3.9499,-3.8342,-3.7101,-3.5987,-3.5005,-3.3928,-3.2922,-3.2016,-3.0846,-2.9179,-2.7503,-2.7503,-2.4815,-2.1859,-2.117,-2.0906,-2.0768,-1.9935,-1.9808,-1.9808,-1.9808,-1.9669,-1.9808,-1.9808,-2.0262,-2.0793,-2.1078,-2.1329,-2.1443,-2.1727,-2.1924,-2.2073,-2.2372,-2.2831,-2.3438,-2.4488,-2.4784,-2.5065,-2.5946,-2.6385,-2.6692,-2.7129,-2.6385,-2.5946,-2.5946,-2.5946,-2.5946,-2.5946,-2.5946,-2.5946,-2.5946,-2.596,-2.5988,-2.6017,-2.6608,-2.7211,-2.7368,-2.7664,-2.8261,-5.181,0.0,-5.2482,-5.2428,-5.1851,-5.1114,0.0,-4.9166,-4.8401,-4.7739,-4.7452,-4.7279,-4.6931,-4.6756,-4.658,-4.6491,-4.705,-4.7788,-4.8591,-5.0598,-5.2329,-5.3099,-5.4443,-5.5459,-5.5684,-5.6041,-5.6274,-5.5979,-5.5681,-5.5381,-5.5179,-5.5179,-5.497,-5.4361,-5.3476,-5.2723,-5.2121,-5.1178,-5.014,-4.9209,-4.8808,-4.832,-4.7875,-4.7596,-4.7184,-4.6769,-4.6323,-4.5795,-4.5287,-4.4964,-4.4177,-4.3245,-4.2799,-4.1874,-4.0683,-3.9873,-3.903,-3.806,-3.7122,-3.6252,-3.5354,-3.3868,-3.2232,-3.0974,-3.0735,-2.7851,-2.4573,-2.4017,-2.3746,-2.3338,-2.2656,-2.2382,-2.2382,-2.2134,-2.1996,-2.2134,-2.2408,-2.2598,-2.2935,-2.3749,-2.4039,-2.4112,-2.4342,-2.4583,-2.4583,-2.4153,-2.4891,-2.5492,-2.5506,-2.6225,-2.6954,-2.752,-2.797,-2.8274,-2.8722,-2.784,-2.726,-2.755,-2.726,-2.726,-2.755,-2.726,-2.726,-2.755,-2.8097,-2.8501,-2.8313,-2.932,-2.9686,-2.9389,-2.9774,-2.9974,-5.1921,-5.1876,-5.1662,-5.1391,-5.0833,-5.0178,-4.9356,-4.8745,-4.8218,-4.7709,-4.7538,-4.7279,-4.6931,-4.6844,-4.6874,-4.717,-4.7585,-4.8417,-4.9824,-5.1939,-5.3493,-5.3867,-5.5092,-5.5919,-5.6176,-5.6322,-5.6274,-5.5979,-5.578,-5.5481,-5.5179,-5.491,-5.468,-5.4419,-5.3458,-5.2659,-5.1945,-5.1101,-5.0311,-4.9502,-4.9178,-4.8881,-4.8481,-4.8106,-4.7699,-4.7391,-4.6977,-4.656,-4.6139,-4.5928,-4.5261,-4.4587,-4.4287,-4.3602,-4.2774,-4.2188,-4.1623,-4.0822,-3.9989,-3.903,-3.7821,-3.6838,-3.56,-3.449,-3.4366,-3.2447,-2.9742,-2.7719,-2.6941,-2.6542,-2.5874,-2.5606,-2.5487,-2.5099,-2.4964,-2.4964,-2.5113,-2.5366,-2.5906,-2.6568,-2.6919,-2.7175,-2.7256,-2.7475,-2.7475,-2.6765,-2.7201,-2.765,-2.7665,-2.8372,-2.8947,-2.9377,-2.9679,-3.0107,-3.0551,-2.9965,-2.9393,-2.8722,-2.8418,-2.8434,-2.8563,-2.8418,-2.864,-2.9215,-2.9695,-3.0192,-3.0553,-3.1195,-3.1317,-3.1194,-3.1501,-3.1654,-5.2047,-5.1736,-5.1167,-5.0448,-4.9979,-4.9501,-4.8852,-4.8552,-4.8301,-4.7794,-4.7709,-4.7538,-4.7106,-4.7078,-4.7346,-4.797,-4.8535,-4.9519,-5.1356,-5.3193,-5.4512,-5.4699,-5.5708,-5.6567,-5.6761,-5.6567,-5.6372,-5.6077,-5.5789,-5.543,-5.513,-5.45,-5.4179,-5.4382,-5.3295,-5.2472,-5.1942,-5.1185,-5.0537,-4.9863,-4.9766,-4.9473,-4.898,-4.8481,-4.8179,-4.8179,-4.7699,-4.7288,-4.7081,-4.6742,-4.6323,-4.5822,-4.5502,-4.5154,-4.4587,-4.4261,-4.3823,-4.327,-4.2662,-4.1485,-4.0198,-3.9966,-3.9007,-3.8037,-3.7918,-3.732,-3.5945,-3.2428,-3.0828,-3.0089,-2.9683,-2.9309,-2.9065,-2.8673,-2.841,-2.8279,-2.8015,-2.8461,-2.9127,-2.9493,-3.0119,-3.0611,-3.0576,-3.0626,-3.0468,-2.99,-2.99,-3.0058,-3.0217,-3.0785,-3.1209,-3.1491,-3.1913,-3.2333,-3.2613,-3.2613,-3.207,-3.0409,-2.9997,-2.9855,-2.9855,-2.9903,-3.0353,-3.092,-3.1471,-3.2115,-3.2591,-3.2808,-3.2993,-3.3163,-3.3163,-3.3314,-5.1589,-5.1806,-5.1794,-5.0876,-5.0292,-4.9773,-4.9259,-4.9047,-4.8749,-4.8301,-4.8218,-4.8049,-4.7538,-4.7989,-4.8468,-4.8762,-5.0376,-5.1915,-5.2922,-5.414,-5.5008,-5.5008,-5.6025,-5.6761,-5.6761,-5.6761,-5.6664,-5.6372,-5.5725,-5.5262,-5.5001,-5.4364,-5.3823,-5.3528,-5.353,-5.3254,-5.255,-5.1632,-5.1011,-5.0603,-4.996,-4.9669,-4.9571,-4.898,-4.881,-4.881,-4.8481,-4.8179,-4.7875,-4.7596,-4.7184,-4.6665,-4.6665,-4.6455,-4.598,-4.5795,-4.5582,-4.5449,-4.4886,-4.4183,-4.35,-4.3169,-4.2588,-4.1864,-4.1322,-4.0865,-4.0358,-3.9477,-3.685,-3.4222,-3.3848,-3.3618,-3.3242,-3.2826,-3.234,-3.1997,-3.1997,-3.2078,-3.2376,-3.2652,-3.3211,-3.3774,-3.4046,-3.3964,-3.3826,-3.3116,-3.3273,-3.3291,-3.2752,-3.3568,-3.4121,-3.4258,-3.4808,-3.5218,-3.5354,-3.5354,-3.5218,-3.4945,-3.3188,-3.2246,-3.2246,-3.2844,-3.3322,-3.3376,-3.4721,-3.5267,-3.5102,-3.6054,-3.6239,-3.5551,-3.5849,-3.5849,-5.1292,-5.1512,-5.152,-5.1516,-5.0984,-5.0448,-5.0058,-4.9821,-4.9501,-4.9097,-4.9015,-4.8975,-4.8929,-4.9151,-4.961,-5.0549,-5.194,-5.3153,-5.3552,-5.4594,-5.5254,-5.5254,-5.6215,-5.6761,-5.6761,-5.6761,-5.6511,-5.5822,-5.5612,-5.5275,-5.4622,-5.4234,-5.3899,-5.3866,-5.3765,-5.3601,-5.3465,-5.2815,-5.2185,-5.1356,-5.0917,-5.0632,-5.0442,-4.996,-4.9737,-4.964,-4.9277,-4.9079,-4.898,-4.8681,-4.828,-4.8004,-4.7773,-4.7568,-4.726,-4.7129,-4.7205,-4.7205,-4.684,-4.6397,-4.5978,-4.5845,-4.5395,-4.4862,-4.4621,-4.4379,-4.4219,-4.3976,-4.1128,-3.7948,-3.7807,-3.7569,-3.721,-3.6806,-3.6467,-3.621,-3.6321,-3.6373,-3.6623,-3.6954,-3.7561,-3.7847,-3.7678,-3.7719,-3.7452,-3.7031,-3.6918,-3.6824,-3.64,-3.6938,-3.736,-3.736,-3.8026,-3.8423,-3.8423,-3.8687,-3.7893,-3.6034,-3.5173,-3.477,-3.477,-3.5845,-3.647,-3.6682,-3.7779,-3.8379,-3.8472,-3.8977,-3.9076,-3.8622,-3.8767,-3.8767,-5.0827,-5.1121,-5.1343,-5.1905,-5.1631,-5.1167,-5.1025,-5.0826,-5.0579,-5.0374,-5.0325,-5.0322,-5.0445,-5.058,-5.1109,-5.2355,-5.3271,-5.3876,-5.3789,-5.4773,-5.5345,-5.5345,-5.6215,-5.6761,-5.6761,-5.6607,-5.63,-5.5555,-5.5438,-5.5037,-5.4421,-5.4171,-5.4157,-5.4511,-5.4151,-5.4125,-5.4412,-5.4125,-5.3434,-5.2215,-5.1941,-5.1665,-5.1386,-5.0981,-5.0763,-5.0763,-5.0412,-5.0124,-5.0154,-4.9834,-4.9542,-4.9375,-4.905,-4.8852,-4.8753,-4.8724,-4.8795,-4.8964,-4.8837,-4.8638,-4.8511,-4.8382,-4.8183,-4.7752,-4.7752,-4.7724,-4.7668,-4.774,-4.5445,-4.2815,-4.214,-4.1692,-4.133,-4.108,-4.0763,-4.0588,-4.0832,-4.0927,-4.0982,-4.1368,-4.1923,-4.2189,-4.1683,-4.1474,-4.1242,-4.0963,-4.06,-4.0342,-4.0212,-4.0622,-4.0751,-4.0751,-4.1415,-4.1865,-4.1979,-4.2234,-4.1209,-3.8674,-3.8106,-3.794,-3.7803,-3.8938,-3.9765,-3.9956,-4.0759,-4.127,-4.1651,-4.1651,-4.1651,-4.1651,-4.1651,-4.1714,-4.9787,-5.076,-5.173,-5.1797,-5.163,-5.1662,-5.2172,-5.2183,-5.2146,-5.2429,-5.2509,-5.2348,-5.1973,-5.246,-5.3155,-5.3828,-5.3985,-5.4017,-5.3789,-5.4773,-5.5345,-5.5101,-5.612,-5.6761,-5.6761,-5.6146,-5.584,-5.6029,-5.4946,-5.4414,-5.471,-5.4285,-5.422,-5.4697,-5.4915,-5.5081,-5.5328,-5.5081,-5.438,-5.329,-5.2785,-5.2457,-5.2215,-5.1911,-5.1789,-5.1789,-5.1789,-5.1604,-5.1326,-5.1169,-5.0887,-5.0668,-5.0383,-5.0383,-5.0573,-5.0573,-5.0733,-5.0922,-5.1143,-5.1113,-5.1113,-5.1083,-5.1083,-5.1053,-5.1023,-5.1023,-5.0993,-5.1241,-5.0996,-5.0094,-4.7151,-4.6256,-4.6048,-4.5944,-4.5393,-4.489,-4.5444,-4.5415,-4.5335,-4.5988,-4.6137,-4.6119,-4.6094,-4.5544,-4.5085,-4.4719,-4.4475,-4.4106,-4.3836,-4.3983,-4.4229,-4.4229,-4.467,-4.5135,-4.5599,-4.5648,-4.5844,-4.6056,-4.3448,-4.1815,-4.1433,-4.2184,-4.2742,-4.2787,-4.3481,-4.3863,-4.3907,-4.3907,-4.3907,-4.3907,-4.3907,-4.4291,-5.0332,-5.1094,-5.1949,-5.2425,-5.2707,-5.2931,-5.3016,-5.3033,-5.3006,-5.3221,-5.3304,-5.3276,-5.3213,-5.3637,-5.401,-5.4295,-5.4157,-5.4261,-5.4529,-5.5023,-5.5501,-5.5968,-5.6091,-5.6084,-5.6084,-5.5688,-5.5225,-5.4884,-5.4719,-5.4694,-5.46,-5.4877,-5.5213,-5.5507,-5.5861,-5.6053,-5.5974,-5.5974,-5.5572,-5.48,-5.4179,-5.3836,-5.3608,-5.3315,-5.3139,-5.3051,-5.2874,-5.2695,-5.2606,-5.2516,-5.2336,-5.2124,-5.185,-5.2033,-5.2365,-5.2365,-5.2544,-5.29,-5.3134,-5.319,-5.319,-5.3333,-5.3507,-5.3561,-5.3561,-5.367,-5.3893,-5.4146,-5.4313,-5.366,-5.0657,-4.9743,-4.9647,-4.9647,-4.9621,-4.9733,-5.034,-5.0469,-5.0578,-5.096,-5.0788,-5.0464,-5.0133,-4.963,-4.9093,-4.855,-4.832,-4.7974,-4.7626,-4.7768,-4.7768,-4.7768,-4.8142,-4.8637,-4.9452,-4.9823,-5.0155,-5.0427,-4.7478,-4.5468,-4.5207,-4.5988,-4.6272,-4.6029,-4.6642,-4.6894,-4.6894,-4.6894,-4.6894,-4.6894,-4.7203,-4.7599,-5.1074,-5.1777,-5.2601,-5.3038,-5.3839,-5.459,-5.4565,-5.4309,-5.4177,-5.4612,-5.4456,-5.4273,-5.4439,-5.4512,-5.4497,-5.4497,-5.4274,-5.4261,-5.4648,-5.4956,-5.5312,-5.5719,-5.5565,-5.547,-5.547,-5.507,-5.4696,-5.438,-5.4662,-5.4835,-5.4665,-5.5458,-5.602,-5.6179,-5.668,-5.6834,-5.668,-5.6603,-5.6447,-5.61,-5.562,-5.5131,-5.4749,-5.4549,-5.438,-5.421,-5.4008,-5.3922,-5.3922,-5.3922,-5.375,-5.349,-5.3371,-5.3632,-5.3976,-5.4115,-5.4369,-5.4819,-5.5117,-5.5166,-5.5247,-5.5618,-5.5745,-5.5903,-5.606,-5.6261,-5.6535,-5.6763,-5.6988,-5.6729,-5.4697,-5.365,-5.3146,-5.3146,-5.3471,-5.3979,-5.4601,-5.4792,-5.5092,-5.5445,-5.5038,-5.447,-5.4137,-5.3451,-5.2751,-5.2358,-5.2039,-5.1638,-5.145,-5.1369,-5.1369,-5.1288,-5.1397,-5.1787,-5.2682,-5.3105,-5.336,-5.3664,-5.1695,-4.9961,-4.8938,-4.9316,-4.9543,-4.9207,-4.949,-4.949,-4.9515,-4.9515,-4.959,-4.9766,-5.0142,-5.0519,-5.1682,-5.263,-5.369,-5.3495,-5.4966,-5.6606,-5.7039,-5.6268,-5.5732,-5.6763,-5.6369,-5.5685,-5.5409,-5.5031,-5.4813,-5.4813,-5.4359,-5.4017,-5.3789,-5.4386,-5.4648,-5.42,-5.4698,-5.5101,-5.5101,-5.4481,-5.4348,-5.5027,-5.4623,-5.4749,-5.5328,-5.6053,-5.6447,-5.668,-5.7063,-5.7289,-5.7289,-5.7139,-5.6987,-5.6987,-5.6834,-5.629,-5.5409,-5.5409,-5.5409,-5.5409,-5.5409,-5.5409,-5.5409,-5.5246,-5.4966,-5.4768,-5.4934,-5.5181,-5.5426,-5.5763,-5.608,-5.6381,-5.6996,-5.7222,-5.7338,-5.7857,-5.8001,-5.8072,-5.853,-5.8703,-5.8874,-5.9044,-5.9245,-5.9443,-5.9604,-5.8078,-5.6459,-5.6459,-5.6867,-5.7437,-5.8129,-5.8329,-5.8592,-5.9253,-5.8556,-5.78,-5.78,-5.7059,-5.633,-5.6072,-5.5584,-5.5219,-5.495,-5.498,-5.488,-5.4535,-5.4331,-5.4392,-5.5041,-5.51,-5.526,-5.5907,-5.6368,-5.5424,-5.262,-5.2402,-5.2306,-5.2086,-5.2086,-5.1865,-5.1492,-5.1492,-5.1805,-5.2481,-5.2481,-5.311,-5.3901,-5.4626,-5.5331,-5.5688,-5.6866,-5.7998,-5.8514,-5.7814,-5.7123,-5.7096,-5.6525,-5.5927,-5.5685,-5.5278,-5.5031,-5.5031,-5.4581,-5.4518,-5.494,-5.4876,-5.4894,-5.5274,-5.4906,-5.4629,-5.4629,-5.4272,-5.4214,-5.4559,-5.496,-5.5409,-5.6053,-5.6525,-5.6987,-5.7289,-5.7588,-5.7662,-5.7514,-5.7439,-5.7364,-5.7214,-5.7139,-5.6757,-5.6132,-5.6132,-5.6053,-5.5927,-5.5927,-5.5974,-5.6132,-5.6211,-5.6211,-5.61,-5.6336,-5.6614,-5.6887,-5.7338,-5.7746,-5.8178,-5.8599,-5.8875,-5.9044,-5.9443,-5.9639,-5.9803,-6.0023,-6.0238,-6.0484,-6.064,-6.082,-6.1104,-6.1852,-6.1652,-6.0999,-5.9902,-6.0566,-6.1569,-6.1776,-6.1963,-6.2173,-6.2293,-6.1672,-6.1079,-6.0622,-6.0205,-5.9696,-5.8944,-5.8767,-5.8409,-5.7927,-5.7682,-5.762,-5.7527,-5.7433,-5.7621,-5.8308,-5.8371,-5.846,-5.8783,-5.8931,-5.7842,-5.514,-5.5278,-5.5271,-5.4921,-5.4713,-5.4623,-5.4505,-5.4828,-5.5012,-5.5232,-5.6059,-5.6665,-5.5589,-5.6398,-5.7201,-5.7826,-5.8825,-5.9907,-6.0491,-5.9562,-5.8425,-5.7895,-5.7147,-5.6603,-5.6244,-5.5733,-5.5328,-5.5278,-5.4864,-5.474,-5.5134,-5.5026,-5.4893,-5.5128,-5.4606,-5.4267,-5.4267,-5.4151,-5.4327,-5.4883,-5.5377,-5.5974,-5.6603,-5.6987,-5.7364,-5.7588,-5.7808,-5.7808,-5.7735,-5.7662,-5.7514,-5.7439,-5.7439,-5.7214,-5.6834,-5.6757,-5.668,-5.6603,-5.668,-5.6757,-5.6911,-5.7063,-5.7214,-5.7256,-5.7554,-5.7887,-5.8212,-5.8772,-5.9212,-5.9639,-6.0023,-6.0273,-6.0519,-6.0879,-6.1091,-6.1265,-6.1436,-6.1678,-6.195,-6.204,-6.2162,-6.2552,-6.3562,-6.4141,-6.4067,-6.2713,-6.328,-6.4207,-6.4207,-6.4492,-6.4729,-6.4629,-6.4183,-6.362,-6.3107,-6.2809,-6.2395,-6.1614,-6.1327,-6.1035,-6.0538,-6.0201,-6.0063,-6.001,-5.9924,-6.0001,-6.0424,-6.0457,-6.0476,-6.0451,-6.0908,-6.0392,-5.8776,-5.8264,-5.7942,-5.793,-5.7658,-5.7581,-5.7648,-5.7913,-5.8147,-5.8697,-5.9331,-5.9821,-5.6781,-5.7912,-5.9226,-5.9766,-6.0867,-6.1995,-6.2798,-6.1444,-5.9826,-5.8976,-5.8178,-5.752,-5.6954,-5.6257,-5.5781,-5.5572,-5.5196,-5.4896,-5.4896,-5.4896,-5.4697,-5.4274,-5.4189,-5.4189,-5.4189,-5.4189,-5.4665,-5.562,-5.5941,-5.6336,-5.7063,-5.7439,-5.7588,-5.7662,-5.7808,-5.7881,-5.7881,-5.7735,-5.7662,-5.7662,-5.7662,-5.7662,-5.7662,-5.7439,-5.7364,-5.7364,-5.7588,-5.7735,-5.7735,-5.7954,-5.8065,-5.8246,-5.8702,-5.9012,-5.938,-6.0058,-6.0519,-6.0843,-6.1379,-6.1604,-6.1824,-6.2287,-6.2442,-6.2493,-6.2745,-6.3036,-6.3224,-6.3299,-6.3482,-6.3891,-6.5047,-6.5827,-6.6118,-6.5228,-6.5459,-6.5897,-6.5897,-6.6256,-6.6474,-6.6332,-6.5992,-6.5645,-6.5332,-6.4968,-6.4529,-6.4007,-6.3432,-6.3021,-6.2795,-6.2532,-6.2266,-6.2178,-6.1908,-6.1749,-6.1749,-6.1749,-6.1703,-6.1528,-6.2599,-6.3145,-6.3053,-6.1313,-6.0439,-6.0856,-6.064,-6.0696,-6.0775,-6.0897,-6.1377,-6.2363,-6.2341,-6.2672,-5.7894,-5.9306,-6.0737,-6.1396,-6.249,-6.3548,-6.4139,-6.3575,-6.2435,-6.0701,-5.9504,-5.8565,-5.8035,-5.7338,-5.6768,-5.6447,-5.6053,-5.5733,-5.5572,-5.5328,-5.5164,-5.4948,-5.4864,-5.4781,-5.4645,-5.4948,-5.5328,-5.5861,-5.6336,-5.6911,-5.7662,-5.7662,-5.7735,-5.8027,-5.7954,-5.7881,-5.7881,-5.7881,-5.7881,-5.8027,-5.8277,-5.8385,-5.8422,-5.8027,-5.7881,-5.7993,-5.828,-5.8562,-5.8702,-5.8909,-5.9114,-5.9215,-5.9547,-5.9937,-6.0282,-6.0915,-6.1492,-6.1986,-6.2442,-6.2745,-6.2988,-6.3371,-6.3461,-6.3505,-6.3723,-6.3975,-6.4249,-6.4966,-6.5311,-6.5804,-6.743,-6.8034,-6.8337,-6.8714,-6.8472,-6.8108,-6.8108,-6.8111,-6.8023,-6.7731,-6.7537,-6.7268,-6.6842,-6.6649,-6.6295,-6.5681,-6.5196,-6.4866,-6.4767,-6.4427,-6.4218,-6.4218,-6.39,-6.3684,-6.3684,-6.3574,-6.3703,-6.4105,-6.4339,-6.4907,-6.5983,-6.4177,-6.3288,-6.3355,-6.3516,-6.3574,-6.3634,-6.4342,-6.4799,-6.501,-6.5076,-6.5235,-5.7935,-5.9669,-6.1559,-6.2927,-6.4037,-6.492,-6.5141,-6.4869,-6.4229,-6.2944,-6.1405,-6.007,-5.9404,-5.86,-5.7963,-5.756,-5.7072,-5.6691,-5.6614,-5.6336,-5.6132,-5.5861,-5.5653,-5.5491,-5.5409,-5.5572,-5.5861,-5.6414,-5.6911,-5.7364,-5.8027,-5.8027,-5.8099,-5.8348,-5.8133,-5.8099,-5.8205,-5.8099,-5.8171,-5.8456,-5.8736,-5.9081,-5.945,-5.8841,-5.8632,-5.8806,-5.9147,-5.9349,-5.9482,-5.9809,-6.0065,-6.0254,-6.0651,-6.0974,-6.1436,-6.1986,-6.2558,-6.3047,-6.3408,-6.3718,-6.3971,-6.4215,-6.4332,-6.4445,-6.5082,-6.5373,-6.5665,-6.6569,-6.6897,-6.7369,-6.8778,-6.9153,-6.9383,-7.0256,-6.9921,-6.9385,-6.9344,-6.9176,-6.9003,-6.875,-6.8614,-6.8426,-6.8,-6.7731,-6.7413,-6.6992,-6.6765,-6.6496,-6.6259,-6.6053,-6.5806,-6.5681,-6.5462,-6.5237,-6.5141,-6.5396,-6.5649,-6.5724,-6.6461,-6.709,-6.7601,-6.733,-6.6794,-6.6256,-6.6088,-6.6344,-6.6944,-6.7323,-6.759,-6.7851,-6.7645,-6.7535,-5.7066,-5.9276,-6.1852,-6.3776,-6.4977,-6.5699,-6.5645,-6.5523,-6.5351,-6.501,-6.335,-6.1766,-6.0898,-6.0132,-5.9373,-5.8771,-5.8285,-5.7891,-5.7819,-5.7594,-5.7222,-5.6887,-5.6614,-5.6303,-5.6257,-5.6257,-5.6492,-5.7139,-5.7514,-5.7881,-5.8314,-5.8456,-5.8561,-5.8631,-5.8456,-5.8419,-5.8561,-5.8385,-5.8526,-5.8841,-5.9351,-5.9879,-6.0477,-5.9937,-5.9744,-5.9744,-6.0065,-6.0254,-6.0379,-6.0772,-6.101,-6.1279,-6.1659,-6.2093,-6.2558,-6.3047,-6.355,-6.3971,-6.4253,-6.452,-6.4772,-6.4976,-6.5182,-6.5505,-6.6374,-6.6806,-6.7236,-6.8087,-6.8436,-6.877,-6.9749,-6.9965,-7.0135,-7.0915,-7.0679,-7.0228,-7.0103,-6.9925,-6.9778,-6.9587,-6.9506,-6.9344,-6.8966,-6.8614,-6.8331,-6.8185,-6.8037,-6.7885,-6.7537,-6.7413,-6.7287,-6.6915,-6.6889,-6.6763,-6.6474,-6.723,-6.7545,-6.7368,-6.8582,-6.9201,-6.9141,-7.013,-7.0313,-6.9543,-6.8891,-6.8999,-7.0013,-6.9917,-7.0142,-7.0473,-6.9916,-6.9727,-5.5022,-5.8121,-6.1413,-6.2842,-6.4031,-6.4947,-6.5272,-6.551,-6.5625,-6.5574,-6.4462,-6.3331,-6.2687,-6.1922,-6.124,-6.0522,-6.0008,-5.9569,-5.9108,-5.8941,-5.8634,-5.8144,-5.7925,-5.7668,-5.7372,-5.7331,-5.7514,-5.7735,-5.7954,-5.8314,-5.8875,-5.8736,-5.8806,-5.9183,-5.9012,-5.8875,-5.8944,-5.8875,-5.9046,-5.9415,-6.0227,-6.0843,-6.1315,-6.1508,-6.1279,-6.0807,-6.1022,-6.1279,-6.1676,-6.1732,-6.1969,-6.2339,-6.2595,-6.2951,-6.3288,-6.3808,-6.4176,-6.4557,-6.4871,-6.5099,-6.5321,-6.5624,-6.6192,-6.6871,-6.7108,-6.7779,-6.8618,-6.9473,-6.9847,-7.0156,-7.1025,-7.1287,-7.1373,-7.1497,-7.1409,-7.1164,-7.0689,-7.0554,-7.0494,-7.0298,-7.0171,-6.9997,-6.9778,-6.9625,-6.9466,-6.9223,-6.9176,-6.9003,-6.8697,-6.8521,-6.8416,-6.8161,-6.8587,-6.873,-6.844,-6.9059,-6.9595,-6.9987,-7.018,-7.0879,-7.2098,-7.2022,-7.2505,-7.369,-7.2283,-7.1631,-7.1804,-7.2216,-7.2345,-7.2228,-7.1727,-7.1376,-5.3637,-5.6436,-5.9029,-6.0567,-6.2061,-6.3308,-6.397,-6.4532,-6.4976,-6.525,-6.499,-6.4527,-6.4025,-6.3381,-6.2814,-6.223,-6.1745,-6.1279,-6.0863,-6.0522,-6.0167,-5.9797,-5.9377,-5.8976,-5.8669,-5.8668,-5.8633,-5.8598,-5.8909,-5.9182,-5.9485,-5.9516,-5.9648,-5.9879,-5.9744,-5.9744,-5.9809,-5.9744,-5.9966,-6.059,-6.1185,-6.1787,-6.2182,-6.2442,-6.2235,-6.1656,-6.1951,-6.2182,-6.2391,-6.2695,-6.294,-6.3141,-6.355,-6.3855,-6.4178,-6.4518,-6.4866,-6.5192,-6.5408,-6.5628,-6.5827,-6.5981,-6.6668,-6.7561,-6.8139,-6.8929,-6.9833,-7.0712,-7.099,-7.1148,-7.1622,-7.1741,-7.175,-7.178,-7.1741,-7.165,-7.1314,-7.1098,-7.094,-7.0783,-7.0643,-7.0494,-7.0432,-7.0271,-7.0141,-6.9923,-6.9815,-6.9701,-6.9544,-6.9758,-6.9847,-6.9627,-7.0154,-7.0448,-7.0138,-7.0671,-7.1138,-7.1213,-7.1615,-7.227,-7.3203,-7.3406,-7.4014,-7.4941,-7.376,-7.3416,-7.3764,-7.3928,-7.3913,-7.3869,-7.3276,-7.2949,-5.1191,-5.3468,-5.5577,-5.7092,-5.8944,-6.0674,-6.1643,-6.266,-6.352,-6.4205,-6.4579,-6.4773,-6.4626,-6.4424,-6.4159,-6.3839,-6.3375,-6.294,-6.2593,-6.2128,-6.1732,-6.1459,-6.089,-6.0473,-6.0229,-5.9988,-5.9832,-5.9674,-5.9902,-6.0065,-6.0129,-6.0415,-6.06,-6.0661,-6.0651,-6.0676,-6.0831,-6.0796,-6.1091,-6.1696,-6.2182,-6.2595,-6.294,-6.3224,-6.3131,-6.2745,-6.2892,-6.2988,-6.3131,-6.3543,-6.3761,-6.3934,-6.4332,-6.4664,-6.4938,-6.5184,-6.5482,-6.5755,-6.589,-6.6067,-6.6224,-6.6295,-6.7091,-6.8228,-6.8929,-6.9901,-7.0909,-7.1585,-7.1759,-7.1815,-7.1875,-7.1928,-7.1932,-7.1928,-7.1928,-7.187,-7.1731,-7.1474,-7.126,-7.1153,-7.1062,-7.0965,-7.0915,-7.0755,-7.0622,-7.0501,-7.0533,-7.0552,-7.0487,-7.1028,-7.1331,-7.1131,-7.1723,-7.204,-7.1724,-7.2331,-7.2745,-7.2694,-7.3172,-7.3828,-7.4494,-7.4926,-7.5422,-7.588,-7.52,-7.4975,-7.5335,-7.5118,-7.5044,-7.4971,-7.4522,-7.4293,-4.6485,-4.859,-5.0903,-5.2138,-5.4421,-5.6677,-5.8027,-5.9609,-6.1105,-6.2227,-6.2899,-6.3518,-6.4185,-6.4873,-6.5258,-6.5048,-6.4753,-6.4457,-6.4028,-6.38,-6.3467,-6.2928,-6.2585,-6.2223,-6.1841,-6.144,-6.1135,-6.0997,-6.0879,-6.0915,-6.1127,-6.1243,-6.1415,-6.162,-6.1732,-6.1842,-6.1842,-6.2076,-6.2287,-6.2442,-6.2988,-6.3317,-6.3587,-6.3967,-6.4212,-6.4254,-6.3841,-6.3835,-6.4131,-6.4214,-6.4483,-6.4739,-6.4971,-6.5222,-6.5493,-6.5779,-6.5942,-6.6108,-6.6312,-6.6431,-6.6489,-6.6552,-6.7735,-6.9128,-6.9249,-7.0473,-7.1845,-7.1875,-7.1932,-7.1978,-7.191,-7.1953,-7.1991,-7.1992,-7.1992,-7.1945,-7.175,-7.1641,-7.1559,-7.1481,-7.1465,-7.1413,-7.1299,-7.1131,-7.1053,-7.0966,-7.1563,-7.1927,-7.1733,-7.2401,-7.2799,-7.2507,-7.3232,-7.357,-7.3292,-7.4006,-7.4627,-7.5098,-7.5126,-7.5769,-7.6968,-7.6718,-7.6938,-7.7651,-7.7206,-7.6636,-7.5934,-7.5832,-7.5657,-7.5478,-7.5406,-7.5298,-4.2651,-4.4675,-4.6934,-4.7976,-5.0362,-5.2733,-5.4119,-5.6119,-5.8005,-5.9107,-6.0195,-6.1215,-6.1991,-6.372,-6.4945,-6.4513,-6.4432,-6.4372,-6.4191,-6.4026,-6.402,-6.4267,-6.3991,-6.3606,-6.3258,-6.2983,-6.2693,-6.2412,-6.2361,-6.2311,-6.2333,-6.2471,-6.2572,-6.2622,-6.2769,-6.2866,-6.2866,-6.3141,-6.3371,-6.3512,-6.3934,-6.4254,-6.4519,-6.4807,-6.4976,-6.5099,-6.4965,-6.4871,-6.4737,-6.4875,-6.5105,-6.535,-6.5536,-6.5765,-6.5989,-6.6167,-6.6306,-6.6425,-6.6516,-6.6585,-6.6736,-6.7305,-6.8312,-6.9429,-6.995,-7.097,-7.1912,-7.1913,-7.1911,-7.1947,-7.1897,-7.1924,-7.1963,-7.1971,-7.1986,-7.1992,-7.19,-7.1845,-7.178,-7.17,-7.1665,-7.1615,-7.1583,-7.1879,-7.2133,-7.2109,-7.266,-7.302,-7.2909,-7.356,-7.3942,-7.3739,-7.4437,-7.4789,-7.4638,-7.5281,-7.5766,-7.5906,-7.6355,-7.6972,-7.7775,-7.7666,-7.7826,-7.8404,-7.79,-7.7365,-7.6672,-7.6445,-7.628,-7.6176,-7.5971,-7.5796,-3.9285,-4.1037,-4.2868,-4.3847,-4.6003,-4.8204,-4.9682,-5.1978,-5.4114,-5.5472,-5.6949,-5.8233,-5.9218,-6.1167,-6.2873,-6.3696,-6.412,-6.432,-6.4431,-6.4489,-6.4662,-6.5161,-6.5041,-6.4792,-6.4527,-6.431,-6.4067,-6.3759,-6.3634,-6.3626,-6.3537,-6.3611,-6.3691,-6.3691,-6.3813,-6.3855,-6.3859,-6.4099,-6.4294,-6.4481,-6.4799,-6.5029,-6.5244,-6.5454,-6.5615,-6.5741,-6.5774,-6.5628,-6.5312,-6.5454,-6.5641,-6.5812,-6.601,-6.6183,-6.6329,-6.6452,-6.6546,-6.6627,-6.6642,-6.6678,-6.6862,-6.7726,-6.8631,-6.953,-7.0345,-7.12,-7.1897,-7.187,-7.1864,-7.1858,-7.1862,-7.1862,-7.1909,-7.1963,-7.1997,-7.1984,-7.1986,-7.1988,-7.1909,-7.1891,-7.1823,-7.1867,-7.2178,-7.2562,-7.2912,-7.3177,-7.376,-7.4146,-7.405,-7.4703,-7.5071,-7.4912,-7.5321,-7.5681,-7.5844,-7.6273,-7.6732,-7.7226,-7.768,-7.8163,-7.882,-7.8686,-7.8719,-7.8941,-7.8528,-7.8034,-7.7547,-7.7029,-7.681,-7.681,-7.6632,-7.6682,0.0,0.0,0.0,-3.9829,-4.1402,-4.3165,-4.4846,-4.7166,-4.9461,-5.1444,-5.3133,-5.4665,-5.607,-5.7216,-5.9062,-6.2485,-6.3657,-6.4321,-6.4828,-6.5143,-6.5407,-6.5656,-6.5691,-6.5621,-6.5513,-6.5332,-6.5139,-6.4928,-6.481,-6.4698,-6.4638,-6.4651,-6.4658,-6.4734,-6.4734,-6.4765,-6.4833,-6.5029,-6.5154,-6.5244,-6.5486,-6.5664,-6.5735,-6.5891,-6.607,-6.6217,-6.6221,-6.6105,-6.5925,-6.5972,-6.607,-6.6217,-6.6425,-6.6513,-6.6537,-6.6642,-6.6687,-6.6711,-6.6757,-6.6756,-6.6869,-6.7793,-6.8683,-6.9538,-7.0369,-7.1214,-7.187,-7.1828,-7.177,-7.1809,-7.1778,-7.1838,-7.1897,-7.1897,-7.1948,-7.1987,-7.1987,-7.1986,-7.1988,-7.201,-7.2006,-7.231,-7.308,-7.3202,-7.3425,-7.4155,-7.4878,-7.5314,-7.5253,-7.5809,-7.6172,-7.6118,-7.5947,-7.6171,-7.6952,-7.7007,-7.7632,-7.9129,-7.9171,-7.9399,-7.9996,-7.9908,-7.9696,-7.9387,-7.9053,-7.87,-7.8437,-7.751,-7.7092,-7.7129,-7.7611,-7.8146,-3.4042,0.0,0.0,0.0,0.0,0.0,-4.1209,-4.346,-4.5832,-4.7712,-4.933,-5.0848,-5.2343,-5.3712,-5.5148,-5.685,-5.9294,-6.1266,-6.2264,-6.2815,-6.3582,-6.4714,-6.5122,-6.534,-6.5351,-6.552,-6.5589,-6.5505,-6.5552,-6.5548,-6.5466,-6.5481,-6.5487,-6.5512,-6.5512,-6.55,-6.5538,-6.5658,-6.5754,-6.5858,-6.5985,-6.6096,-6.6217,-6.6279,-6.6342,-6.6414,-6.6421,-6.6394,-6.6394,-6.6379,-6.6396,-6.6507,-6.6564,-6.6605,-6.6669,-6.6679,-6.6672,-6.6644,-6.6634,-6.6603,-6.672,-6.7599,-6.8486,-6.9312,-7.0135,-7.0979,-7.1667,-7.1583,-7.1568,-7.1568,-7.1591,-7.1637,-7.1693,-7.1758,-7.1767,-7.1809,-7.1901,-7.1943,-7.1936,-7.1992,-7.2497,-7.2999,-7.3217,-7.4239,-7.5092,-7.525,-7.5924,-7.6365,-7.6298,-7.6361,-7.6366,-7.6248,-7.6646,-7.6967,-7.7109,-7.8174,-7.8956,-7.9382,-7.9889,-8.0238,-8.0354,-8.0275,-8.0113,-7.9865,-7.9562,-7.9284,-7.9079,-7.8071,-7.7487,-7.7243,-7.764,-7.854,0.0,0.0,-3.4134,-3.4469,0.0,0.0,-3.7618,-3.9586,-4.1723,-4.3508,-4.5358,-4.6968,-4.8384,-4.9764,-5.1091,-5.2109,-5.4207,-5.6789,-5.9651,-6.0739,-6.1718,-6.2997,-6.3753,-6.4301,-6.4614,-6.509,-6.5371,-6.5534,-6.5738,-6.5887,-6.5942,-6.5998,-6.5994,-6.5973,-6.5995,-6.5995,-6.6042,-6.5764,-6.5645,-6.5679,-6.5386,-6.5434,-6.5775,-6.578,-6.5975,-6.6312,-6.6297,-6.6316,-6.6362,-6.6312,-6.6406,-6.6599,-6.6561,-6.6586,-6.6561,-6.6571,-6.6507,-6.6474,-6.6474,-6.6438,-6.6567,-6.7422,-6.8069,-6.87,-6.9856,-7.0538,-7.0968,-7.1281,-7.1319,-7.1299,-7.1358,-7.1397,-7.1469,-7.1559,-7.1583,-7.1654,-7.1778,-7.1828,-7.2002,-7.245,-7.2968,-7.3515,-7.4251,-7.5177,-7.5936,-7.6255,-7.6625,-7.687,-7.6819,-7.6699,-7.6555,-7.6454,-7.7021,-7.7533,-7.7766,-7.8884,-7.9747,-8.0054,-8.0451,-8.0688,-8.0616,-8.058,-8.0468,-8.0197,-7.9996,-7.9886,-7.9896,-7.8714,-7.8233,-7.8357,-7.8885,-7.9719,0.0,0.0,0.0,-3.2342,-3.2644,0.0,-3.4159,-3.5801,-3.7551,-3.9193,-4.1134,-4.2993,-4.4069,-4.556,-4.6837,-4.7914,-4.8866,-5.1448,-5.684,-5.859,-5.9621,-6.0682,-6.1661,-6.2541,-6.327,-6.3932,-6.4537,-6.4967,-6.5387,-6.5714,-6.5972,-6.6093,-6.6164,-6.6145,-6.6209,-6.6209,-6.6184,-6.5417,-6.4997,-6.4883,-6.4158,-6.4157,-6.4778,-6.4782,-6.5193,-6.5945,-6.5879,-6.5851,-6.5893,-6.5877,-6.6125,-6.6525,-6.6439,-6.6385,-6.6348,-6.6344,-6.6306,-6.6221,-6.6221,-6.6242,-6.636,-6.7135,-6.7445,-6.7794,-6.9283,-6.9821,-7.0049,-7.0908,-7.1067,-7.1004,-7.1116,-7.1186,-7.1214,-7.1358,-7.1415,-7.1503,-7.1637,-7.1731,-7.2101,-7.3208,-7.3426,-7.3944,-7.5624,-7.5973,-7.6282,-7.6995,-7.705,-7.7028,-7.7024,-7.691,-7.6816,-7.6767,-7.7357,-7.8026,-7.87,-7.9408,-8.0158,-8.0849,-8.086,-8.0792,-8.0792,-8.0792,-8.0723,-8.0543,-8.0469,-8.0608,-8.0914,-7.9616,-7.9391,-8.0149,-8.0698,-8.1212,0.0,0.0,0.0,-3.047,-3.082,0.0,-3.2125,-3.3325,-3.4734,-3.6205,-3.7432,-3.8523,-3.9673,-4.0533,-4.1569,-4.2964,-4.394,-4.6799,-5.3176,-5.4946,-5.6103,-5.7535,-5.866,-5.9692,-6.0467,-6.1496,-6.2358,-6.2934,-6.3871,-6.4656,-6.5192,-6.5397,-6.5582,-6.5777,-6.5844,-6.558,-6.4978,-6.4733,-6.4247,-6.356,-6.323,-6.3438,-6.4067,-6.4039,-6.4359,-6.4956,-6.4967,-6.5015,-6.5102,-6.5053,-6.5422,-6.6045,-6.6087,-6.6013,-6.5933,-6.5947,-6.5836,-6.5755,-6.5755,-6.5743,-6.5756,-6.5949,-6.6513,-6.7179,-6.75,-6.8565,-6.9823,-7.0667,-7.0871,-7.0871,-7.0871,-7.0979,-7.1042,-7.1154,-7.1208,-7.1296,-7.1436,-7.1525,-7.2049,-7.3754,-7.4194,-7.4595,-7.5701,-7.6445,-7.6952,-7.7142,-7.7122,-7.7095,-7.7089,-7.7004,-7.717,-7.7671,-7.8318,-7.9003,-7.9671,-8.0384,-8.0869,-8.1061,-8.0959,-8.0855,-8.0855,-8.0826,-8.0792,-8.0723,-8.1156,-8.1685,-8.2314,-8.1169,-8.099,-8.1677,-8.1329,-8.1507,-2.8074,-2.8437,-2.8701,-2.8701,-2.8938,0.0,0.0,-3.0529,-3.1496,-3.2486,-3.3361,-3.424,-3.4891,-3.5615,-3.6498,-3.7768,-3.8877,-4.1072,-4.534,-4.8952,-5.1805,-5.3323,-5.4612,-5.5821,-5.7017,-5.8229,-5.9526,-6.0699,-6.1689,-6.2513,-6.3189,-6.3702,-6.4154,-6.4488,-6.4666,-6.4393,-6.3685,-6.318,-6.2465,-6.1529,-6.0953,-6.121,-6.2201,-6.2173,-6.2785,-6.3878,-6.38,-6.3914,-6.3991,-6.4066,-6.4292,-6.4595,-6.5178,-6.5339,-6.5322,-6.5341,-6.5321,-6.5261,-6.5261,-6.5299,-6.5337,-6.5268,-6.5605,-6.6154,-6.6604,-6.7936,-6.9498,-7.0286,-7.0483,-7.0515,-7.0578,-7.0699,-7.0777,-7.0979,-7.1056,-7.1154,-7.1274,-7.1647,-7.2444,-7.3845,-7.4599,-7.5296,-7.6263,-7.6829,-7.7148,-7.7148,-7.7139,-7.7126,-7.7112,-7.7059,-7.7272,-7.7929,-7.8612,-7.926,-7.9968,-8.0684,-8.1093,-8.1093,-8.1061,-8.0991,-8.0991,-8.1343,-8.1771,-8.2127,-8.2682,-8.318,-8.3481,-8.3225,-8.2837,-8.2403,-8.2251,-8.2375,-2.721,-2.7331,-2.7331,-2.7244,-2.7193,-2.7263,0.0,0.0,0.0,-2.8865,-2.9561,-3.0106,-3.0206,-3.0773,-3.1582,-3.2494,-3.3608,-3.504,-3.6991,-4.1472,-4.5649,-4.8431,-4.9868,-5.1328,-5.286,-5.4547,-5.6163,-5.7894,-5.8783,-5.9616,-6.0358,-6.1288,-6.2003,-6.2513,-6.2803,-6.2628,-6.2033,-6.1128,-6.0224,-5.936,-5.852,-5.8782,-5.9992,-6.011,-6.1018,-6.2451,-6.2475,-6.2561,-6.2708,-6.2925,-6.2962,-6.2973,-6.414,-6.459,-6.459,-6.4666,-6.4704,-6.4739,-6.4739,-6.4775,-6.4882,-6.4775,-6.4882,-6.5175,-6.6231,-6.7521,-6.8815,-6.9809,-7.0114,-7.0149,-7.0286,-7.0381,-7.0508,-7.0787,-7.0898,-7.1043,-7.1323,-7.1974,-7.28,-7.3976,-7.49,-7.5807,-7.6841,-7.7087,-7.7183,-7.7148,-7.7187,-7.7181,-7.713,-7.7206,-7.7511,-7.8192,-7.8865,-7.9516,-8.02,-8.0761,-8.1093,-8.1093,-8.1093,-8.117,-8.1323,-8.2131,-8.2945,-8.3764,-8.4205,-8.448,-8.4595,-8.5006,-8.4416,-8.3049,-8.3338,-8.3281,-2.6165,-2.6449,-2.664,-2.6358,-2.6275,-2.6172,-2.5907,0.0,-2.6261,-2.6001,0.0,-2.6503,-2.6261,0.0,0.0,-2.766,-2.8219,-2.9319,-3.1696,-3.2614,-3.5714,-4.2786,-4.4546,-4.584,-4.7659,-5.0179,-5.2293,-5.3661,-5.4593,-5.5605,-5.6915,-5.787,-5.8878,-5.9775,-6.0067,-6.0065,-5.9601,-5.8628,-5.7909,-5.7385,-5.6921,-5.7199,-5.8125,-5.885,-5.9645,-6.0413,-6.0784,-6.1055,-6.1135,-6.1492,-6.1715,-6.1896,-6.3206,-6.3766,-6.3841,-6.3841,-6.392,-6.4004,-6.4004,-6.4046,-6.4046,-6.4166,-6.4326,-6.4822,-6.6446,-6.7089,-6.7581,-6.9284,-6.9738,-6.9815,-7.0003,-7.0182,-7.0353,-7.0508,-7.0699,-7.1102,-7.1968,-7.2264,-7.2842,-7.4657,-7.5177,-7.5665,-7.6829,-7.7062,-7.7133,-7.7184,-7.7187,-7.7183,-7.7097,-7.7726,-7.8428,-7.9088,-7.9757,-8.0415,-8.1126,-8.1107,-8.1093,-8.1093,-8.1093,-8.14,-8.2131,-8.2978,-8.3862,-8.4714,-8.4686,-8.504,-8.5808,-8.559,-8.5105,-8.4352,-8.4064,-8.3675,-2.472,-2.5026,-2.5088,-2.4985,-2.4766,-2.4538,-2.4174,-2.4052,-2.3943,-2.3792,0.0,0.0,0.0,0.0,0.0,0.0,-2.4485,-2.5266,-2.686,-2.7027,-2.961,-3.6582,-3.8265,-3.9855,-4.2501,-4.4827,-4.6476,-4.742,-4.901,-5.0567,-5.2031,-5.368,-5.516,-5.6244,-5.679,-5.6879,-5.6542,-5.6269,-5.5653,-5.4655,-5.4904,-5.5348,-5.5994,-5.6679,-5.7638,-5.8703,-5.8907,-5.921,-5.9604,-5.996,-6.0211,-6.0423,-6.1292,-6.2126,-6.2745,-6.2843,-6.3036,-6.3178,-6.3178,-6.3354,-6.3729,-6.4301,-6.4918,-6.5608,-6.6893,-6.7273,-6.7584,-6.8913,-6.9294,-6.9378,-6.9622,-6.9853,-7.0073,-7.0353,-7.0923,-7.1602,-7.2101,-7.3004,-7.3944,-7.4771,-7.5492,-7.609,-7.666,-7.6917,-7.7044,-7.7139,-7.7187,-7.7186,-7.71,-7.7854,-7.8603,-7.9243,-7.9913,-8.057,-8.1242,-8.1184,-8.1093,-8.1093,-8.1554,-8.2401,-8.3747,-8.417,-8.4747,-8.5593,-8.556,-8.5681,-8.5996,-8.5779,-8.5473,-8.51,-8.4599,-8.4153,-2.3389,-2.3695,-2.3855,-2.3694,-2.3491,-2.3162,-2.2737,-2.2483,-2.2171,-2.21,-2.1719,0.0,0.0,0.0,0.0,0.0,0.0,-2.1713,-2.2483,-2.241,-2.4553,-3.0577,-3.2335,-3.4243,-3.7146,-3.9224,-4.0757,-4.175,-4.3793,-4.5658,-4.7377,-4.9567,-5.1303,-5.2517,-5.3238,-5.3637,-5.3729,-5.3681,-5.3258,-5.2475,-5.3026,-5.3474,-5.3957,-5.4755,-5.5798,-5.6863,-5.698,-5.7386,-5.7895,-5.8321,-5.8634,-5.8943,-5.9412,-6.0273,-6.1322,-6.1806,-6.2076,-6.2303,-6.2391,-6.2879,-6.3627,-6.4487,-6.526,-6.6034,-6.6898,-6.7216,-6.7459,-6.8502,-6.8809,-6.89,-6.9214,-6.9463,-6.9701,-7.0073,-7.0997,-7.1911,-7.2302,-7.3581,-7.4784,-7.5061,-7.5812,-7.6433,-7.6573,-7.6804,-7.7023,-7.7091,-7.7145,-7.7187,-7.7142,-7.8098,-7.8901,-7.9272,-8.0144,-8.0849,-8.1308,-8.1214,-8.1201,-8.14,-8.2208,-8.3324,-8.4863,-8.5132,-8.5517,-8.6094,-8.6094,-8.6099,-8.6031,-8.5887,-8.5779,-8.559,-8.4968,-8.4551,-2.2349,-2.2939,-2.3365,-2.2996,-2.2741,-2.2392,-2.1975,-2.1727,-2.1319,-2.1014,-2.0927,-2.0856,-2.056,0.0,0.0,0.0,0.0,0.0,0.0,-1.815,-1.9579,-2.4802,-2.7435,-2.9587,-3.1501,-3.3617,-3.5561,-3.7402,-3.9594,-4.1697,-4.3414,-4.5516,-4.7281,-4.8677,-4.9484,-5.0342,-5.1394,-5.0819,-5.0756,-5.1344,-5.1493,-5.1698,-5.2246,-5.3364,-5.4253,-5.4704,-5.5134,-5.5538,-5.6047,-5.6635,-5.7156,-5.7594,-5.8031,-5.8528,-5.9282,-6.0564,-6.1104,-6.13,-6.1656,-6.2549,-6.3763,-6.4548,-6.5018,-6.5426,-6.6353,-6.6611,-6.6897,-6.8,-6.8321,-6.842,-6.8763,-6.8997,-6.9219,-6.9701,-7.0682,-7.1837,-7.2939,-7.3914,-7.4879,-7.587,-7.6186,-7.6359,-7.6555,-7.6807,-7.7028,-7.7078,-7.7178,-7.7187,-7.7184,-7.8657,-7.9587,-7.9415,-8.0753,-8.1579,-8.1427,-8.1263,-8.1493,-8.2208,-8.3093,-8.3939,-8.4863,-8.567,-8.6055,-8.6094,-8.6094,-8.6094,-8.6094,-8.6031,-8.5923,-8.5779,-8.5228,-8.4787,-1.9657,-2.0074,-2.0503,-2.0388,-2.0455,-2.0509,-2.0083,-2.0083,-1.9915,-1.9757,-1.9605,-1.9499,-1.9609,0.0,0.0,0.0,0.0,0.0,0.0,-1.5424,-1.5453,-1.751,-2.1464,-2.4405,-2.5782,-2.8357,-3.0615,-3.2221,-3.4733,-3.7246,-3.9585,-4.1638,-4.3398,-4.4917,-4.6234,-4.7188,-4.7869,-4.8353,-4.8557,-4.8698,-4.9355,-4.9705,-4.9756,-5.0998,-5.185,-5.2483,-5.3015,-5.3624,-5.4421,-5.5117,-5.5716,-5.6224,-5.6844,-5.7189,-5.756,-5.9113,-6.0001,-6.0574,-6.1652,-6.2723,-6.3747,-6.4809,-6.554,-6.6126,-6.67,-6.6828,-6.6957,-6.754,-6.781,-6.7967,-6.8198,-6.8538,-6.8863,-6.9219,-7.0722,-7.2204,-7.283,-7.4178,-7.5449,-7.5879,-7.6145,-7.6335,-7.6454,-7.6676,-7.6916,-7.7073,-7.7178,-7.7187,-7.7186,-7.8657,-7.9633,-7.9489,-8.0839,-8.1699,-8.1475,-8.128,-8.1762,-8.3054,-8.3439,-8.4209,-8.5632,-8.5978,-8.6094,-8.6094,-8.6094,-8.6094,-8.6094,-8.6031,-8.5923,-8.5815,-8.5511,-8.5143,-1.7398,-1.7721,-1.8054,-1.8153,-1.8487,-1.866,-1.8703,-1.8677,-1.8876,-1.8916,-1.8716,-1.8742,-1.8883,0.0,0.0,0.0,0.0,0.0,0.0,-1.335,-1.2955,-1.335,-1.6936,-1.9902,-2.124,-2.4161,-2.681,-2.8865,-3.1602,-3.4286,-3.6722,-3.857,-4.0338,-4.1864,-4.3203,-4.4214,-4.4969,-4.5978,-4.6414,-4.6542,-4.7364,-4.7841,-4.797,-4.8862,-4.9844,-5.0674,-5.1173,-5.1911,-5.2931,-5.3577,-5.4179,-5.4851,-5.5588,-5.5988,-5.6459,-5.8031,-5.9012,-5.9919,-6.1488,-6.2541,-6.336,-6.4813,-6.5679,-6.6233,-6.6572,-6.6691,-6.6772,-6.7061,-6.7322,-6.7488,-6.7826,-6.8097,-6.8517,-6.9237,-7.0766,-7.2198,-7.2889,-7.4361,-7.5595,-7.5794,-7.6034,-7.6212,-7.6343,-7.6575,-7.6805,-7.7043,-7.7126,-7.7183,-7.7187,-7.8665,-7.9655,-7.9548,-8.0922,-8.177,-8.1507,-8.1335,-8.1908,-8.3541,-8.3625,-8.4362,-8.6017,-8.6094,-8.6094,-8.6094,-8.6094,-8.6094,-8.6094,-8.6065,-8.5958,-8.5852,-8.5704,-8.5624]},{"header":{"parameterUnit":"m.s-1","parameterCategory":1,"la1":30.6,"la2":29.2853,"lo1":-89.7004,"lo2":-87.6739,"dy":0.0162,"dx":0.0183,"nx":112,"ny":82,"refTime":"2024-03-19T18:00:00:Z","depth":0,"parameterNumber":3,"parameterNumberName":"V-component_of_WINDS"},"data":[0.0,0.0,0.0,0.0,0.0,0.0,0.0,0.0,0.0,0.0,0.0,0.0,0.0,0.0,0.0,0.0,0.0,0.0,0.0,0.0,0.0,0.0,0.0,0.0,0.0,0.0,0.0,0.0,0.0,0.0,0.0,0.0,0.0,0.0,0.0,0.0,0.0,0.0,0.0,0.0,0.0,0.0,0.0,0.0,0.0,0.0,0.0,0.0,0.0,0.0,0.0,0.0,0.0,0.0,0.0,0.0,0.0,0.0,0.0,0.0,0.0,0.0,0.0,0.0,0.0,0.0,0.0,0.0,0.0,0.0,0.0,0.0,0.0,0.0,0.0,0.0,0.0,0.0,0.0,0.0,0.0,0.0,0.0,0.0,0.0,0.0,0.0,0.0,0.0,0.0,5.7024,5.7949,5.9291,6.0099,6.0099,6.0007,5.9633,5.8805,0.0,0.0,0.0,0.0,0.0,0.0,0.0,0.0,0.0,0.0,0.0,0.0,0.0,0.0,0.0,0.0,0.0,0.0,0.0,0.0,0.0,0.0,0.0,0.0,0.0,0.0,0.0,0.0,0.0,0.0,0.0,0.0,0.0,0.0,0.0,0.0,0.0,0.0,0.0,0.0,0.0,0.0,0.0,0.0,0.0,0.0,0.0,0.0,0.0,0.0,0.0,0.0,0.0,0.0,0.0,0.0,0.0,0.0,0.0,0.0,0.0,0.0,0.0,0.0,0.0,0.0,0.0,0.0,0.0,0.0,0.0,0.0,0.0,0.0,0.0,0.0,0.0,0.0,0.0,0.0,0.0,0.0,0.0,0.0,0.0,0.0,0.0,0.0,0.0,0.0,0.0,0.0,0.0,0.0,0.0,0.0,0.0,0.0,0.0,0.0,0.0,0.0,0.0,0.0,5.8224,5.9807,6.017,6.0197,6.0099,6.0007,5.957,5.8608,0.0,0.0,0.0,0.0,0.0,0.0,0.0,0.0,0.0,0.0,0.0,0.0,0.0,0.0,0.0,0.0,0.0,0.0,0.0,0.0,0.0,0.0,0.0,0.0,0.0,0.0,0.0,0.0,0.0,0.0,0.0,0.0,0.0,0.0,0.0,0.0,0.0,0.0,0.0,0.0,0.0,0.0,0.0,0.0,0.0,0.0,0.0,0.0,0.0,0.0,0.0,0.0,0.0,0.0,0.0,0.0,0.0,0.0,0.0,0.0,0.0,0.0,0.0,0.0,0.0,0.0,0.0,0.0,0.0,0.0,0.0,0.0,0.0,0.0,0.0,0.0,0.0,0.0,0.0,0.0,0.0,0.0,0.0,0.0,0.0,0.0,0.0,0.0,0.0,0.0,0.0,0.0,0.0,0.0,0.0,0.0,0.0,0.0,0.0,0.0,0.0,0.0,0.0,5.7577,5.8921,6.0103,6.0294,6.0235,6.0076,5.9982,5.9696,5.9118,5.7702,0.0,0.0,0.0,0.0,0.0,0.0,0.0,0.0,0.0,0.0,0.0,0.0,0.0,0.0,0.0,0.0,0.0,0.0,0.0,0.0,0.0,0.0,0.0,0.0,0.0,0.0,0.0,0.0,0.0,0.0,0.0,0.0,0.0,0.0,0.0,0.0,0.0,0.0,0.0,0.0,0.0,0.0,0.0,0.0,0.0,0.0,0.0,0.0,0.0,0.0,0.0,0.0,0.0,0.0,0.0,0.0,0.0,0.0,0.0,0.0,0.0,0.0,0.0,0.0,0.0,0.0,0.0,0.0,0.0,0.0,0.0,0.0,0.0,0.0,0.0,0.0,0.0,0.0,0.0,0.0,0.0,0.0,0.0,0.0,0.0,0.0,0.0,0.0,0.0,0.0,0.0,0.0,0.0,0.0,0.0,0.0,0.0,0.0,0.0,0.0,0.0,0.0,5.8509,5.949,6.0297,6.0662,6.0639,6.0215,6.0118,5.9908,5.951,5.7678,0.0,0.0,0.0,0.0,0.0,0.0,0.0,0.0,0.0,0.0,0.0,0.0,0.0,0.0,0.0,0.0,0.0,0.0,0.0,0.0,0.0,0.0,0.0,0.0,0.0,0.0,0.0,0.0,0.0,0.0,0.0,0.0,0.0,0.0,0.0,0.0,0.0,0.0,0.0,0.0,0.0,0.0,0.0,0.0,0.0,0.0,0.0,0.0,0.0,0.0,0.0,0.0,0.0,0.0,0.0,0.0,0.0,0.0,0.0,0.0,0.0,0.0,0.0,0.0,0.0,0.0,0.0,0.0,0.0,0.0,0.0,0.0,0.0,0.0,0.0,0.0,0.0,0.0,0.0,0.0,0.0,0.0,0.0,0.0,0.0,0.0,0.0,0.0,0.0,0.0,0.0,0.0,0.0,0.0,0.0,0.0,0.0,0.0,0.0,0.0,0.0,0.0,5.8818,6.0178,6.1007,6.1874,6.1928,6.0821,6.0745,6.0227,5.91,5.7414,0.0,0.0,0.0,0.0,0.0,0.0,0.0,0.0,0.0,0.0,0.0,0.0,0.0,0.0,0.0,0.0,0.0,0.0,0.0,0.0,0.0,0.0,0.0,0.0,0.0,0.0,0.0,0.0,0.0,0.0,0.0,0.0,0.0,0.0,0.0,0.0,0.0,0.0,0.0,0.0,0.0,0.0,0.0,0.0,0.0,0.0,0.0,0.0,0.0,0.0,0.0,0.0,0.0,0.0,0.0,0.0,0.0,0.0,0.0,0.0,0.0,0.0,0.0,0.0,0.0,0.0,0.0,0.0,0.0,0.0,0.0,0.0,0.0,0.0,0.0,0.0,0.0,0.0,0.0,0.0,0.0,0.0,0.0,0.0,0.0,0.0,0.0,0.0,0.0,0.0,0.0,0.0,0.0,0.0,0.0,0.0,0.0,0.0,0.0,0.0,0.0,0.0,5.9794,6.0849,6.1573,6.1987,6.1691,6.0529,6.0415,5.9923,5.8739,0.0,0.0,0.0,0.0,0.0,0.0,0.0,0.0,0.0,0.0,0.0,0.0,0.0,0.0,0.0,0.0,0.0,0.0,0.0,0.0,0.0,0.0,0.0,0.0,0.0,0.0,0.0,0.0,0.0,0.0,0.0,0.0,0.0,0.0,0.0,0.0,0.0,0.0,0.0,0.0,0.0,0.0,0.0,0.0,0.0,0.0,0.0,0.0,0.0,0.0,0.0,0.0,0.0,0.0,0.0,0.0,0.0,0.0,0.0,0.0,0.0,0.0,0.0,0.0,0.0,0.0,0.0,0.0,0.0,0.0,0.0,0.0,0.0,0.0,0.0,0.0,0.0,0.0,0.0,0.0,0.0,0.0,0.0,0.0,0.0,0.0,0.0,0.0,0.0,0.0,0.0,0.0,0.0,0.0,0.0,0.0,0.0,0.0,0.0,0.0,0.0,0.0,5.9177,6.0451,6.1431,6.2108,6.2447,6.2142,6.0994,6.0655,5.9966,5.885,0.0,0.0,0.0,0.0,0.0,0.0,0.0,0.0,0.0,0.0,0.0,0.0,0.0,0.0,0.0,0.0,0.0,0.0,0.0,0.0,0.0,0.0,0.0,0.0,0.0,0.0,0.0,0.0,0.0,0.0,0.0,0.0,0.0,0.0,0.0,0.0,0.0,0.0,0.0,0.0,0.0,0.0,0.0,0.0,0.0,0.0,0.0,0.0,0.0,0.0,0.0,0.0,0.0,0.0,0.0,0.0,0.0,0.0,0.0,0.0,0.0,0.0,0.0,0.0,0.0,0.0,0.0,0.0,0.0,0.0,0.0,0.0,0.0,0.0,0.0,0.0,0.0,0.0,0.0,0.0,0.0,0.0,0.0,0.0,0.0,0.0,0.0,0.0,0.0,0.0,0.0,0.0,0.0,0.0,0.0,0.0,0.0,0.0,0.0,0.0,0.0,0.0,5.8989,6.06,6.1911,6.2694,6.3435,6.3494,6.2487,6.15,6.0552,0.0,0.0,0.0,0.0,0.0,0.0,0.0,0.0,0.0,0.0,0.0,0.0,0.0,0.0,0.0,0.0,0.0,0.0,0.0,0.0,0.0,0.0,0.0,0.0,0.0,0.0,0.0,0.0,0.0,0.0,0.0,0.0,0.0,0.0,0.0,0.0,0.0,0.0,0.0,0.0,0.0,0.0,0.0,0.0,0.0,0.0,0.0,0.0,0.0,0.0,0.0,0.0,0.0,0.0,0.0,0.0,0.0,0.0,0.0,0.0,0.0,0.0,0.0,0.0,0.0,0.0,0.0,0.0,0.0,0.0,0.0,0.0,0.0,0.0,0.0,0.0,0.0,0.0,0.0,0.0,0.0,0.0,0.0,0.0,0.0,0.0,0.0,0.0,0.0,0.0,0.0,0.0,0.0,0.0,0.0,0.0,0.0,0.0,0.0,0.0,0.0,0.0,0.0,6.0444,6.1229,6.201,6.3258,6.3587,6.3222,6.2086,6.1191,6.0287,5.9291,0.0,0.0,0.0,0.0,0.0,0.0,0.0,0.0,0.0,0.0,0.0,0.0,0.0,0.0,0.0,0.0,0.0,0.0,0.0,0.0,0.0,0.0,0.0,0.0,0.0,0.0,0.0,0.0,0.0,0.0,0.0,0.0,0.0,0.0,0.0,0.0,0.0,0.0,0.0,0.0,0.0,0.0,0.0,0.0,0.0,0.0,0.0,0.0,0.0,0.0,0.0,0.0,0.0,0.0,0.0,0.0,0.0,0.0,0.0,0.0,0.0,0.0,0.0,0.0,0.0,0.0,0.0,0.0,0.0,0.0,0.0,0.0,0.0,0.0,0.0,0.0,0.0,0.0,0.0,0.0,0.0,0.0,0.0,0.0,0.0,0.0,0.0,0.0,0.0,0.0,0.0,0.0,0.0,0.0,0.0,0.0,0.0,0.0,0.0,0.0,0.0,0.0,6.0953,6.14,6.1911,6.3453,6.3557,6.3197,6.253,6.1329,6.0434,5.9863,0.0,0.0,0.0,0.0,0.0,0.0,0.0,0.0,0.0,0.0,0.0,0.0,0.0,0.0,0.0,0.0,0.0,0.0,0.0,0.0,0.0,0.0,0.0,0.0,0.0,0.0,0.0,0.0,0.0,0.0,0.0,0.0,0.0,0.0,0.0,0.0,0.0,0.0,0.0,0.0,0.0,0.0,0.0,0.0,0.0,0.0,0.0,0.0,0.0,0.0,0.0,0.0,0.0,0.0,0.0,0.0,0.0,0.0,0.0,0.0,0.0,0.0,0.0,0.0,0.0,0.0,0.0,0.0,0.0,0.0,0.0,0.0,0.0,0.0,0.0,0.0,0.0,0.0,0.0,0.0,0.0,0.0,0.0,0.0,0.0,0.0,0.0,0.0,0.0,0.0,0.0,0.0,0.0,0.0,0.0,0.0,0.0,0.0,0.0,0.0,0.0,0.0,6.0778,6.1261,6.1893,6.3408,6.3465,6.3382,6.3382,6.1883,6.0868,6.0794,0.0,0.0,0.0,0.0,0.0,0.0,0.0,0.0,0.0,0.0,0.0,0.0,0.0,0.0,0.0,0.0,0.0,0.0,0.0,0.0,0.0,0.0,0.0,0.0,0.0,0.0,0.0,0.0,0.0,0.0,0.0,0.0,0.0,0.0,0.0,0.0,0.0,0.0,0.0,0.0,0.0,0.0,0.0,0.0,0.0,0.0,0.0,0.0,0.0,0.0,0.0,0.0,0.0,0.0,0.0,0.0,0.0,0.0,0.0,0.0,5.2766,5.2537,0.0,0.0,0.0,0.0,0.0,0.0,0.0,0.0,0.0,0.0,0.0,0.0,0.0,0.0,0.0,0.0,0.0,0.0,0.0,0.0,0.0,0.0,0.0,0.0,0.0,0.0,0.0,0.0,0.0,0.0,0.0,0.0,0.0,0.0,0.0,0.0,0.0,0.0,0.0,0.0,6.0853,6.1744,6.248,6.3354,6.3419,6.3336,6.3242,6.2308,6.1459,6.0831,5.8998,0.0,0.0,0.0,0.0,0.0,0.0,0.0,0.0,0.0,0.0,0.0,0.0,0.0,0.0,0.0,0.0,0.0,0.0,0.0,0.0,0.0,0.0,0.0,0.0,0.0,0.0,0.0,0.0,0.0,0.0,0.0,0.0,0.0,0.0,0.0,0.0,0.0,0.0,0.0,0.0,0.0,0.0,0.0,0.0,0.0,0.0,0.0,0.0,0.0,0.0,0.0,0.0,0.0,0.0,0.0,0.0,0.0,0.0,0.0,5.5008,5.4639,0.0,0.0,0.0,0.0,0.0,0.0,0.0,0.0,0.0,0.0,0.0,0.0,0.0,0.0,0.0,0.0,0.0,0.0,0.0,0.0,0.0,0.0,0.0,0.0,0.0,0.0,0.0,0.0,0.0,0.0,0.0,0.0,0.0,0.0,0.0,0.0,0.0,0.0,0.0,0.0,6.0927,6.1893,6.2666,6.3437,6.3511,6.3465,6.3419,6.2641,6.2011,6.1604,5.9684,0.0,0.0,0.0,0.0,0.0,0.0,0.0,0.0,0.0,0.0,0.0,0.0,0.0,0.0,0.0,0.0,0.0,0.0,0.0,0.0,0.0,0.0,0.0,0.0,0.0,0.0,0.0,0.0,0.0,0.0,0.0,0.0,0.0,0.0,0.0,0.0,0.0,0.0,0.0,0.0,0.0,0.0,0.0,0.0,0.0,0.0,0.0,0.0,0.0,0.0,0.0,0.0,0.0,5.6816,5.7275,5.8061,5.8348,5.8553,5.863,5.8004,5.7404,5.6869,5.692,0.0,0.0,0.0,0.0,0.0,0.0,0.0,0.0,0.0,0.0,0.0,0.0,0.0,0.0,0.0,0.0,0.0,0.0,0.0,0.0,0.0,0.0,6.1291,6.1291,6.1402,6.1291,6.0478,0.0,0.0,0.0,0.0,0.0,0.0,0.0,0.0,0.0,0.0,0.0,6.1373,6.2339,6.3156,6.3973,6.3899,6.3825,6.3825,6.3082,6.2562,6.2413,6.0481,5.9218,0.0,0.0,0.0,0.0,0.0,0.0,0.0,0.0,0.0,0.0,0.0,0.0,0.0,0.0,0.0,0.0,0.0,0.0,0.0,0.0,0.0,0.0,0.0,0.0,0.0,0.0,0.0,0.0,0.0,0.0,0.0,0.0,5.2568,5.3643,0.0,0.0,0.0,0.0,0.0,0.0,0.0,0.0,0.0,0.0,0.0,0.0,0.0,5.7404,5.7494,5.7442,5.7531,5.7813,5.7813,5.8285,5.9141,5.9894,6.0661,6.1428,6.1977,0.0,5.7901,5.7901,0.0,0.0,0.0,0.0,0.0,0.0,0.0,0.0,0.0,0.0,0.0,0.0,0.0,0.0,0.0,0.0,0.0,0.0,0.0,0.0,0.0,0.0,6.3222,6.3222,6.3779,6.4076,6.326,6.1871,6.0789,6.0567,5.943,5.8471,0.0,0.0,0.0,0.0,0.0,0.0,6.3007,6.401,6.4828,6.5682,6.5088,6.4642,6.4642,6.3899,6.3156,6.245,6.2116,6.1261,5.9812,5.8884,0.0,0.0,0.0,0.0,0.0,0.0,0.0,0.0,0.0,0.0,0.0,0.0,0.0,0.0,0.0,0.0,0.0,0.0,0.0,0.0,0.0,0.0,0.0,0.0,0.0,0.0,0.0,0.0,0.0,5.346,5.4611,5.5683,5.5706,5.5741,0.0,0.0,0.0,0.0,0.0,0.0,0.0,0.0,0.0,5.8731,5.8732,5.914,6.0135,6.0108,6.0365,6.0865,6.0865,6.1083,6.1505,6.1889,6.2273,6.2708,6.3053,6.24,6.0978,6.0468,5.9983,5.9434,0.0,0.0,0.0,0.0,5.8887,5.9025,5.9327,5.9278,5.9074,5.899,0.0,0.0,0.0,0.0,0.0,0.0,0.0,6.1032,6.2227,6.3461,6.4555,6.5046,6.5419,6.5456,6.4681,6.3891,6.291,6.1403,6.0593,6.0157,6.0157,5.9644,0.0,0.0,0.0,6.2029,6.3637,6.4443,6.5217,6.6072,6.5812,6.5403,6.4956,6.4584,6.4026,6.3245,6.2717,6.2079,6.1336,6.0518,5.9515,0.0,0.0,0.0,0.0,0.0,0.0,0.0,0.0,0.0,0.0,0.0,0.0,0.0,0.0,0.0,0.0,0.0,0.0,0.0,0.0,0.0,0.0,0.0,0.0,0.0,0.0,0.0,0.0,5.4949,5.5946,5.7045,5.6899,5.7041,0.0,0.0,0.0,0.0,0.0,0.0,5.9119,5.9119,5.947,6.02,6.02,6.0813,6.2142,6.2142,6.2502,6.313,6.3156,6.3322,6.3628,6.3603,6.3743,6.3998,6.3998,6.3974,6.3872,6.2746,6.1889,6.1224,6.0482,6.0092,5.9968,6.0297,6.0561,6.0866,6.1304,6.1358,6.1187,6.1187,6.0778,6.0221,6.0221,0.0,0.0,0.0,0.0,6.3028,6.3935,6.4905,6.5837,6.6523,6.6717,6.653,6.5933,6.5634,6.4806,6.2358,6.1768,6.1661,6.1661,6.1595,0.0,6.1786,6.2496,6.343,6.4476,6.521,6.5986,6.6806,6.6694,6.6247,6.5426,6.5165,6.4681,6.3861,6.3133,6.2754,6.2754,6.193,6.0815,5.9367,0.0,0.0,0.0,0.0,0.0,0.0,0.0,0.0,0.0,0.0,0.0,0.0,0.0,0.0,0.0,0.0,0.0,0.0,0.0,0.0,0.0,0.0,0.0,0.0,0.0,0.0,0.0,0.0,0.0,5.7239,5.7606,0.0,0.0,0.0,0.0,5.9302,5.9268,5.9933,6.1543,6.162,6.2003,6.2885,6.2885,6.2962,6.3039,6.3118,6.3194,6.3281,6.3353,6.3846,6.474,6.474,6.5118,6.5842,6.5842,6.5769,6.5525,6.3835,6.3105,6.3041,6.2787,6.2612,6.2389,6.2097,6.1808,6.1534,6.1367,6.1273,6.1187,6.1187,6.1187,6.115,6.115,6.1199,0.0,0.0,6.3195,6.4102,6.4924,6.6306,6.7502,6.7539,6.7539,6.7539,6.7502,6.6866,6.5821,6.4102,6.3168,6.2645,6.2645,0.0,6.1749,6.2533,6.3355,6.4476,6.6082,6.6979,6.78,6.8697,6.8024,6.7203,6.6418,6.5634,6.4812,6.3953,6.3786,6.3742,6.3742,6.2829,6.193,6.1113,5.9515,0.0,0.0,0.0,0.0,0.0,0.0,0.0,0.0,0.0,0.0,0.0,0.0,0.0,0.0,0.0,0.0,0.0,0.0,0.0,0.0,0.0,0.0,0.0,0.0,0.0,0.0,0.0,0.0,5.9792,6.0112,0.0,6.1196,6.0815,6.0879,6.1723,6.1773,6.2003,6.2617,6.2655,6.3269,6.4649,6.4742,6.5333,6.6499,6.6551,6.6627,6.6699,6.6183,6.609,6.6466,6.5836,6.5735,6.6005,6.5923,6.5846,6.5755,6.4939,6.4269,6.3772,6.3604,6.3416,6.3213,6.2933,6.3088,6.3303,6.314,6.3014,6.2929,6.2879,6.2923,6.3041,6.3512,6.3749,6.3985,6.4806,6.5254,6.5752,6.6618,6.7336,6.7897,6.8466,6.8622,6.851,6.7985,6.761,6.7085,6.5961,6.5057,6.4454,6.4454,6.3784,6.3563,6.4387,6.4762,6.5549,6.7198,6.7604,6.804,6.8863,6.8676,6.7965,6.6662,6.6288,6.5539,6.4117,6.3915,6.383,6.383,6.3525,6.2742,6.14,6.0804,5.9424,0.0,0.0,0.0,0.0,0.0,0.0,0.0,0.0,0.0,0.0,0.0,0.0,0.0,0.0,0.0,0.0,0.0,0.0,0.0,0.0,0.0,0.0,0.0,0.0,0.0,5.8967,6.0367,6.1603,6.1934,6.2309,6.2968,6.2498,6.2563,6.3444,6.3778,6.4019,6.4326,6.4649,6.5356,6.6496,6.6615,6.7205,6.8475,6.855,6.8598,6.8645,6.8088,6.7818,6.784,6.717,6.6853,6.6791,6.6372,6.6162,6.604,6.5528,6.4908,6.435,6.4258,6.4124,6.3875,6.3691,6.3875,6.4203,6.4042,6.3958,6.3873,6.3867,6.383,6.3985,6.4501,6.4731,6.493,6.5453,6.587,6.625,6.6861,6.7235,6.7616,6.8222,6.8377,6.8227,6.7701,6.7589,6.7513,6.7251,6.6495,6.5891,6.5891,6.5445,6.5298,6.5861,6.6162,6.6725,6.7851,6.8141,6.8472,6.8997,6.9072,6.8397,6.6828,6.6678,6.5966,6.4237,6.4042,6.3958,6.3958,6.3915,6.3168,6.1525,6.0665,5.9472,5.7828,0.0,0.0,0.0,0.0,0.0,0.0,0.0,0.0,0.0,0.0,0.0,0.0,0.0,0.0,0.0,0.0,0.0,0.0,0.0,0.0,0.0,0.0,0.0,5.9215,5.9723,6.0671,6.2427,6.2849,6.3035,6.3093,6.3159,6.3504,6.4346,6.515,6.5953,6.6795,6.7745,6.8345,6.8436,6.8514,6.8588,6.8699,6.8745,6.8767,6.8767,6.8833,6.8812,6.8729,6.8706,6.8574,6.8333,6.7434,6.6921,6.6643,6.5607,6.5099,6.4964,6.4926,6.4745,6.4558,6.4364,6.4203,6.4121,6.3958,6.3915,6.3915,6.3915,6.3915,6.3915,6.3953,6.4037,6.4158,6.4158,6.4841,6.5561,6.5561,6.6162,6.68,6.68,6.68,6.68,6.68,6.68,6.7025,6.7814,6.7326,6.68,6.68,6.68,6.68,6.68,6.7476,0.0,6.8039,6.8715,6.9203,6.9203,6.9203,6.8565,6.6913,6.68,6.6049,6.4397,6.4203,6.4121,6.4121,6.3958,6.3168,6.1562,5.9173,5.794,5.7978,0.0,0.0,0.0,0.0,0.0,0.0,0.0,0.0,0.0,0.0,0.0,0.0,0.0,0.0,0.0,0.0,0.0,0.0,0.0,0.0,0.0,5.6915,5.8178,5.929,6.1269,6.28,6.3427,6.4692,6.5512,6.5543,6.6139,6.6629,6.6896,6.7225,6.7514,6.7803,6.8119,6.8614,6.94,6.9475,6.9856,7.0483,7.0506,7.0506,7.0506,6.9903,6.9548,6.9398,6.8681,6.8268,6.8129,6.776,6.756,6.7463,6.703,6.6742,6.6446,6.5199,6.4596,6.4444,6.4324,6.4284,6.4244,6.4203,6.4203,6.4162,6.4079,6.4121,6.4316,6.4833,6.5062,6.5257,6.5857,6.6237,6.6425,6.6425,6.6612,6.68,6.68,6.68,6.68,6.68,6.68,6.6879,6.7146,6.7037,6.7033,6.7551,6.7176,6.6988,6.7589,6.7851,6.8227,6.8828,6.9091,6.9203,6.9203,6.9203,6.8565,6.6913,6.68,6.6049,6.4397,6.4284,6.4244,6.4244,6.4203,6.3716,6.2703,6.0791,5.9815,0.0,0.0,0.0,0.0,0.0,0.0,0.0,0.0,0.0,0.0,0.0,0.0,0.0,0.0,0.0,0.0,0.0,0.0,0.0,0.0,0.0,0.0,5.7209,5.8835,6.0115,6.2108,6.3761,6.4623,6.5673,6.6493,6.6907,6.7502,6.7833,6.7833,6.8304,6.8625,6.8655,6.9078,6.9613,7.0221,7.0337,7.058,7.113,7.113,7.1106,7.1081,7.0504,7.0156,7.0063,6.9424,6.9115,6.8992,6.8488,6.8202,6.8098,6.7576,6.7241,6.6973,0.0,0.0,0.0,0.0,6.4585,6.4284,6.4284,6.4284,6.4284,6.4203,6.4244,6.4397,6.4803,6.4957,6.511,6.5598,6.5749,6.5749,6.5749,6.5749,6.5749,6.5749,6.5752,6.5793,6.5793,6.5871,6.5986,6.6365,6.644,0.0,6.7943,6.7714,6.7717,6.8504,6.8696,6.8805,6.9251,6.9289,6.9246,6.9203,6.9203,6.8565,6.6913,6.68,0.0,0.0,0.0,6.4284,6.4284,6.3984,0.0,0.0,0.0,6.1093,6.1093,6.1581,0.0,0.0,6.0454,6.0792,0.0,0.0,0.0,0.0,0.0,0.0,0.0,0.0,0.0,0.0,0.0,0.0,0.0,0.0,0.0,0.0,5.7314,5.9788,6.1295,6.2531,6.395,6.5729,6.6181,6.667,6.7536,6.7901,6.8041,6.8079,6.889,6.9406,6.9406,7.0286,0.0,0.0,0.0,7.0952,7.0979,7.0914,7.086,7.0843,7.0681,7.0593,7.0532,7.0439,7.0348,7.0179,6.9312,6.8901,6.8641,6.7808,6.7351,6.7153,6.7083,6.6965,6.6687,6.5936,6.511,6.4434,6.4434,0.0,0.0,6.4284,6.4284,6.4284,6.4284,6.4359,6.4434,6.4434,6.451,6.4585,6.4585,6.4585,6.4585,6.4585,6.4627,6.4668,6.4593,6.4633,6.4898,6.5539,6.569,6.6181,6.7918,6.8218,6.8596,6.9463,6.9577,6.9536,6.9453,6.9416,6.9411,6.9246,6.9203,0.0,6.7105,6.6879,6.6124,6.4547,6.4359,6.4284,6.4284,6.3533,6.3158,6.3233,6.2369,6.2031,6.2219,6.2219,6.3008,6.4547,6.2857,6.2595,0.0,0.0,0.0,0.0,0.0,0.0,0.0,0.0,0.0,0.0,0.0,0.0,0.0,0.0,0.0,5.519,5.6984,5.9038,6.1795,6.31,6.4207,6.5448,6.6972,6.7996,6.8337,6.9129,6.9619,6.9763,6.998,7.009,7.009,7.0342,7.0508,7.057,7.0601,7.0593,7.0652,7.0532,7.0439,7.04,7.0276,0.0,7.0109,7.0001,6.9891,6.9815,6.9548,6.947,6.9393,6.9202,6.9046,6.8771,6.7372,6.6804,6.6762,6.6612,6.6011,6.5261,6.5261,6.4847,6.4284,6.4284,6.4284,6.4284,6.4284,6.4735,0.0,6.5261,6.5749,6.6312,6.6312,6.6312,6.6312,6.6312,6.6357,6.6249,6.5572,6.55,6.5464,6.501,6.4897,6.5463,6.7278,6.7996,6.8596,6.9463,6.9577,6.9577,6.9577,6.9536,6.9536,6.9536,6.9453,6.8955,6.7977,6.7259,6.6349,6.5336,6.466,6.4284,6.4284,6.3533,6.3421,6.4059,6.327,6.3496,6.4772,6.4772,6.5298,6.6274,6.4585,6.4622,0.0,0.0,0.0,0.0,0.0,0.0,0.0,0.0,0.0,0.0,0.0,4.5529,4.7284,0.0,5.16,5.4109,5.627,5.8391,6.0803,6.2833,6.4692,6.6254,6.731,6.8241,6.89,6.9473,6.9815,6.9929,7.0003,7.0038,7.0038,7.0147,7.0251,7.0247,7.0281,7.0315,7.0315,7.0141,7.0035,6.9999,6.9816,6.9701,6.9739,6.9622,6.962,6.9657,6.9617,6.9577,6.9495,6.9453,6.9369,6.9214,6.8345,6.7739,6.7401,6.7401,6.6875,6.6162,6.6162,6.5598,6.4885,6.4885,6.4622,6.4284,6.4284,6.4585,6.4885,6.4885,6.5226,6.5605,6.5605,6.5645,6.5798,6.6174,6.6367,6.6445,6.6445,6.6522,6.6522,6.6142,6.6029,6.6482,6.7769,6.8262,6.8753,6.9623,6.9737,6.9737,6.9657,6.9657,6.9657,6.9577,6.9536,6.9155,6.8326,6.7457,6.6739,6.6206,6.5793,6.5605,6.5523,6.4735,6.451,6.4885,6.4096,6.4284,6.5523,6.5523,6.6162,6.7363,6.6537,6.6612,0.0,0.0,0.0,0.0,0.0,0.0,0.0,4.2818,4.3712,4.3269,4.493,4.6516,4.695,4.8875,5.0959,5.2716,5.5345,5.7709,5.9553,6.222,6.471,6.6736,6.7343,6.8054,6.9128,6.9294,6.9419,6.9542,6.9622,6.9623,6.9623,6.9739,6.9778,6.9778,6.9853,6.9891,6.9778,6.97,6.9622,6.9579,6.9336,6.9294,6.9378,6.9332,6.9374,6.9495,6.9495,6.9453,6.9332,6.9246,6.9203,6.9203,6.9203,6.8828,6.8227,6.8227,6.7701,6.7025,6.7025,6.6462,6.5749,6.5749,6.5298,6.4735,6.4585,6.466,6.4735,6.4585,6.4702,6.4894,6.4894,6.501,6.5238,6.5879,6.6144,6.6371,6.6863,6.7051,6.7162,6.7162,6.7162,6.7466,6.8488,6.864,6.8943,6.9778,6.9891,6.9853,6.9738,6.9738,6.9661,6.9431,6.9391,6.9051,6.8143,6.7615,6.7237,6.6967,6.693,6.6889,6.6804,6.5977,6.5523,6.5523,6.4697,6.4772,6.5749,6.5749,6.6612,6.8227,6.8227,6.8227,4.0224,4.0788,4.1617,4.189,4.2817,4.38,0.0,4.4959,4.5543,4.5817,4.6693,4.7438,4.7494,4.9105,5.0838,5.205,5.4442,5.6825,5.9041,6.1311,6.3447,6.5304,6.6882,6.7936,6.849,6.8633,6.8817,6.9078,6.9078,6.9078,6.9078,6.9122,6.9078,6.8908,6.9078,6.9122,6.9122,6.9122,6.9078,6.9078,6.902,6.8929,6.8975,6.9027,6.9072,6.9072,6.9203,6.9203,6.9203,6.9203,6.9203,6.9203,6.9203,6.9166,6.9091,6.9091,6.8565,6.7851,6.7851,6.7326,6.665,6.665,6.6575,6.6349,6.5598,6.5899,6.6349,6.5598,6.5981,6.6626,6.6626,6.6744,6.686,6.6935,6.7013,6.69,6.6295,6.618,6.6253,6.6253,6.6253,6.6782,6.8485,6.8787,6.9055,6.9778,6.9891,6.9891,6.9891,6.9891,6.9588,6.8793,6.8641,6.8261,6.7313,6.7803,6.7841,6.7124,6.7086,6.7047,6.6889,6.6137,6.5605,6.5486,6.4697,6.5073,6.665,6.665,6.7476,6.9091,6.9091,6.9091,4.1477,4.2131,4.2978,4.3526,4.4578,4.5573,4.6016,4.6709,4.7224,4.7121,4.7524,4.7955,4.8116,4.8903,4.9944,5.1203,5.3528,5.5796,5.759,5.9631,6.1476,6.2853,6.3599,6.4999,6.7393,6.7663,6.7819,6.8111,6.8161,6.8161,6.8297,6.8297,6.8297,6.8346,6.8442,6.8538,6.8538,6.867,6.8707,6.8707,6.8697,6.8697,6.8828,6.8884,6.902,6.9116,6.916,6.9203,6.9203,6.9203,6.9203,6.9203,6.9203,6.8903,6.8565,6.9053,6.9015,6.8715,6.8715,6.8189,6.7476,6.7476,6.6838,6.5974,6.5598,6.5451,6.5304,6.4966,6.5235,6.5653,6.5653,6.5729,6.5917,6.6409,6.6522,6.6597,6.6786,6.6823,6.6859,6.6893,6.6893,6.7157,6.7984,6.8098,6.8403,6.9203,6.9773,7.0077,7.0077,7.0004,6.9625,6.8679,6.8149,6.7695,6.7316,6.8035,6.83,6.7959,6.8374,6.856,6.848,6.7608,6.6889,6.6319,6.594,6.6087,6.68,6.7251,6.8077,6.9203,6.9203,6.9203,4.2657,4.3436,4.4245,4.5125,4.6096,4.7009,4.7453,4.8009,4.8287,4.797,4.8169,4.8351,4.8387,4.874,4.9335,5.0337,5.2722,5.4885,5.6031,5.7882,5.9482,6.0382,6.0551,6.171,6.4689,6.5671,6.6374,6.6935,6.6935,6.7084,6.7323,6.7378,6.7432,6.7577,6.7789,6.7945,6.7996,6.8222,6.8321,6.8371,6.8408,6.8506,6.8602,6.8828,6.8975,6.916,6.916,6.9203,6.9203,6.9203,6.9203,6.9203,6.9203,6.8715,6.8077,6.8677,6.8753,6.8565,6.8565,6.8152,6.7664,6.7664,6.6838,6.5824,6.5561,6.5154,6.4706,6.448,6.4558,6.4707,6.4707,6.4779,6.504,6.5644,6.5796,6.5985,6.6666,6.678,6.6891,6.7151,6.7189,6.73,6.7597,6.7669,6.7897,6.8541,6.915,6.9645,6.9804,6.9353,6.8749,6.807,6.7463,6.7121,6.7085,6.7844,6.8375,6.8489,6.9057,6.9472,6.9617,6.8744,6.7909,6.7266,6.6958,6.6913,6.7138,6.7701,6.8415,6.9203,6.916,6.916,4.361,4.4762,4.5713,4.6361,4.7102,4.7927,4.8566,4.8711,4.8721,4.8837,4.8881,4.8749,4.823,4.8744,4.9375,4.9652,5.221,5.4199,5.473,5.6361,5.7756,5.8442,5.8527,5.8827,5.943,6.2092,6.4215,6.5447,6.5582,6.5743,6.6125,6.6344,6.6464,6.6536,6.7004,6.7286,6.7396,6.7757,6.7967,6.8121,6.8259,6.8309,6.8309,6.8697,6.8929,6.9027,6.916,6.9203,6.9203,6.9203,6.9203,6.9203,6.9203,6.8715,6.8002,6.8039,6.7551,6.6838,6.6838,6.6838,6.6838,6.6838,6.68,6.6575,6.5749,6.5567,6.5459,6.4631,6.4558,6.4707,6.4707,6.4779,6.4924,6.4993,6.5027,6.5099,6.5204,6.5275,6.5503,6.6269,6.6421,6.6721,6.7621,6.7774,6.7807,6.7935,6.7935,6.8215,6.8887,6.7521,6.6497,6.6459,6.6421,6.6387,6.6319,6.7078,6.784,6.8565,6.8641,6.8944,6.9661,6.8787,6.8254,6.8169,6.7259,6.7176,6.7964,6.8002,6.8415,6.9203,6.9072,6.9027,4.4772,4.5628,4.6497,4.752,4.8085,4.8566,4.9204,4.9349,4.931,4.8951,4.8909,4.8749,4.8192,4.8475,4.8872,4.9098,5.069,5.2002,5.2456,5.3462,5.4391,5.4875,5.4988,5.5453,5.6626,5.9843,6.2255,6.2926,6.3552,6.4148,6.4667,6.487,6.5207,6.5633,6.6172,6.6536,6.6831,6.723,6.7542,6.7847,6.8055,6.8259,6.8457,6.8602,6.8754,6.9027,6.9072,6.9116,6.9203,6.9203,6.9203,6.9166,6.8602,6.7926,6.7138,6.6537,6.5824,6.5298,6.6387,6.68,6.68,6.68,6.6387,6.5899,6.568,6.5348,6.4898,6.4671,6.4707,6.4853,6.4853,6.4924,6.4993,6.4989,6.5061,6.5128,6.5199,6.5199,6.5308,6.5607,6.5645,6.5792,6.6154,6.6192,6.6414,6.7018,6.7553,6.798,6.8155,6.7202,6.6445,6.6417,6.5922,6.558,6.5584,6.6307,6.7075,6.784,6.7878,6.8487,6.9778,6.8826,6.8254,6.8132,6.8227,6.8091,6.7747,6.8346,6.8713,6.8975,6.8846,6.88,4.5952,4.6771,4.763,4.8537,4.9106,4.9493,4.9902,4.9892,4.9698,4.9207,4.8837,4.8435,4.8048,4.8008,4.8127,4.8447,4.9495,5.0298,5.0668,5.1229,5.1876,5.2227,5.2306,5.2788,5.3845,5.6872,5.9396,6.0728,6.166,6.2489,6.3171,6.3574,6.4041,6.4567,6.5176,6.5633,6.6012,6.6536,6.7004,6.7488,6.781,6.807,6.8272,6.8371,6.8565,6.8846,6.8892,6.8983,6.9116,6.9116,6.916,6.9128,6.8302,6.7513,6.6687,6.5824,6.4998,6.4434,6.5523,6.5899,6.5899,6.5899,6.5523,6.5073,6.5193,6.4935,6.4634,6.467,6.4817,6.4888,6.4924,6.4993,6.5023,6.5095,6.5161,6.5226,6.5258,6.5258,6.529,6.5321,6.5321,6.5352,6.5413,6.5413,6.5605,6.6139,6.6674,6.7102,6.7343,6.6656,6.6084,6.6058,6.5601,6.5258,6.5264,6.5955,6.6759,6.7458,6.78,6.8525,6.9778,6.9129,6.8625,6.8504,6.8765,6.8585,6.8016,6.853,6.8744,6.8744,6.865,6.8554,4.7073,4.8248,4.9186,4.9528,5.0029,5.0501,5.0501,5.025,4.9931,4.9375,4.8538,4.7826,4.7667,4.7364,4.7238,4.7512,4.8527,4.92,4.92,4.9709,5.0112,5.0411,5.0514,5.0733,5.1105,5.3249,5.5806,5.873,5.9905,6.0837,6.1736,6.2402,6.2939,6.3348,6.4112,6.4634,6.4972,6.5633,6.6355,6.7154,6.7433,6.7687,6.781,6.8121,6.8321,6.8468,6.865,6.88,6.8983,6.8983,6.9072,6.9085,6.8302,6.7513,6.6687,6.5824,6.4998,6.4284,6.4284,6.4284,6.4284,6.4284,6.4324,6.4324,6.4366,6.4482,6.4634,6.4707,6.4779,6.4924,6.4955,6.4989,6.5095,6.5258,6.529,6.5321,6.5383,6.5413,6.5413,6.5413,6.5413,6.5413,6.5413,6.5413,6.5413,6.5413,6.5413,6.5719,6.6522,6.591,6.5413,6.5413,6.5413,6.5383,6.5366,6.6052,6.6788,6.7496,6.8294,6.9019,6.9661,6.946,6.9294,6.9166,6.8846,6.866,6.8697,6.8517,6.8468,6.8468,6.8321,6.8309,4.8983,4.9667,5.0024,5.0653,5.0922,5.0947,5.0728,5.0183,4.945,4.8808,4.7731,4.6861,4.6424,4.6347,4.6325,4.6405,4.6785,4.7142,4.7142,4.7688,4.8098,4.8404,4.8938,4.9814,5.0993,5.2278,5.3772,5.553,5.7645,5.9234,6.0194,6.0501,6.1003,6.185,6.2489,6.3171,6.3829,6.4838,6.5597,6.6074,6.6283,6.6618,6.6967,6.7193,6.7523,6.7982,6.8272,6.8517,6.8754,6.8884,6.8975,6.8997,6.8172,6.7391,6.6687,6.5824,6.4998,6.4284,6.4284,6.4324,6.4366,6.4366,6.4443,6.4558,6.4596,6.467,6.4707,6.4817,6.4853,6.4924,6.4955,6.5095,6.5161,6.5258,6.5321,6.5383,6.5413,6.5413,6.5413,6.5413,6.5413,6.5413,6.5413,6.5413,6.5413,6.5413,6.5413,6.549,6.5719,6.5528,6.5413,6.5413,6.5413,6.5681,6.63,6.6428,6.7021,6.8294,6.7994,6.8262,6.946,6.8767,6.8478,6.8726,6.8613,6.842,6.8222,6.8222,6.8171,6.8171,6.807,6.8299,5.0516,5.1031,5.1364,5.1758,5.1849,5.1757,5.1542,5.069,4.9749,4.9026,4.7485,4.6104,4.5746,4.541,4.5273,4.5372,4.5735,4.6114,4.6383,4.6835,4.7257,4.7543,4.8518,4.9433,5.0098,5.1439,5.2645,5.3603,5.5883,5.7496,5.8268,5.8722,5.9258,5.9838,6.0604,6.1475,6.2608,6.3543,6.4288,6.4632,6.507,6.5462,6.5878,6.6186,6.6664,6.7323,6.763,6.8033,6.8383,6.865,6.8791,6.8817,6.804,6.7529,6.7091,6.5853,6.5182,6.4772,6.4397,6.4403,6.4481,6.4405,6.452,6.4634,6.467,6.4707,6.4743,6.4853,6.4924,6.4958,6.5061,6.5161,6.5258,6.5321,6.5383,6.5413,6.5413,6.5413,6.5413,6.5413,6.5413,6.5413,6.5413,6.5413,6.5413,6.5413,6.5413,6.5413,6.5413,6.5413,6.5413,6.5413,6.5689,6.6077,6.6574,6.7131,6.7794,6.8489,6.8414,6.8558,6.9085,6.854,6.8361,6.848,6.8321,6.8171,6.8018,6.7915,6.7952,6.7952,6.7847,6.8235,5.083,5.121,5.1696,5.1729,5.1729,5.1685,5.1379,5.048,4.9536,4.876,4.6837,4.5156,4.4943,4.434,4.4032,4.4384,4.497,4.5608,4.6299,4.6705,4.7029,4.7325,4.8538,4.9342,4.9182,5.0844,5.2052,5.2422,5.4226,5.5629,5.6317,5.696,5.7402,5.7744,5.8659,5.9805,6.1117,6.1919,6.254,6.2993,6.3653,6.4183,6.4495,6.5035,6.5681,6.6391,6.678,6.7323,6.7893,6.8235,6.8468,6.8538,6.797,6.7726,6.756,6.6026,6.5474,6.5332,6.4585,6.4403,6.4558,6.4444,6.452,6.4671,6.4707,6.4743,6.4743,6.4853,6.4958,6.5023,6.5199,6.5264,6.5321,6.5383,6.5413,6.5413,6.5413,6.5413,6.5413,6.5413,6.5413,6.5413,6.5413,6.5413,6.5413,6.5413,6.5413,6.5413,6.5413,6.549,6.5566,6.5536,6.6199,6.6706,6.6821,6.7946,6.8603,6.8563,6.9086,6.9214,6.8809,6.867,6.848,6.8222,6.8018,6.7899,6.7899,6.7741,6.7687,6.7687,6.7687,6.8128,4.6005,4.6234,4.6387,4.6697,4.6733,4.6644,4.6281,4.5825,4.5204,4.4217,4.3308,4.2591,4.2384,4.2243,4.2436,4.3177,4.365,4.4301,4.559,4.627,4.6865,4.7593,4.8382,4.9141,5.0067,5.0505,5.1084,5.1915,5.2,5.2963,5.4958,5.516,5.5629,5.648,5.7308,5.8205,5.9129,5.9773,6.0454,6.128,6.1327,6.1919,6.2912,6.3289,6.4079,6.5202,6.5904,6.6546,6.7137,6.7757,6.807,6.8148,6.832,6.798,6.7411,6.6618,6.5919,6.5249,6.4544,6.4364,6.4444,6.4558,6.4708,6.4853,6.4853,6.4853,6.4853,6.4888,6.4958,6.5023,6.5199,6.5264,6.5321,6.5383,6.5413,6.5413,6.5413,6.5413,6.5413,6.5413,6.5413,6.5413,6.5413,6.5413,6.5413,6.5413,6.5413,6.5383,6.5321,6.5994,6.6414,6.6351,6.7082,6.7779,6.8288,6.8413,6.8677,6.9193,6.9047,6.8809,6.8565,6.842,6.8222,6.7967,6.7952,6.7847,6.7741,6.7687,6.7687,6.7687,6.7687,6.8128,4.5329,4.5423,4.5461,4.5632,4.578,4.5727,4.5131,4.4781,4.4256,4.3241,4.2378,4.1707,4.146,4.1499,4.1828,4.271,4.3176,4.3981,4.5343,4.6425,4.705,4.7133,4.8626,4.9584,4.9336,4.9968,5.0464,5.0628,5.0405,5.1155,5.2886,5.3097,5.3594,5.4696,5.54,5.6128,5.6962,5.7744,5.8478,5.9016,5.9545,6.0148,6.0986,6.1635,6.2574,6.3794,6.4732,6.559,6.6344,6.7081,6.7451,6.7614,6.8018,6.7704,6.6998,6.6499,6.5814,6.5036,6.4383,6.4284,6.4364,6.4444,6.4633,6.4817,6.4888,6.4888,6.4888,6.4958,6.5027,6.5128,6.5232,6.529,6.5352,6.5413,6.5413,6.5413,6.5413,6.5413,6.5413,6.5413,6.5413,6.5413,6.5413,6.5413,6.5413,6.5413,6.5383,6.5321,6.529,6.602,6.645,6.6345,6.7072,6.784,6.8452,6.8631,6.8795,6.8952,6.8717,6.8431,6.8171,6.8121,6.8004,6.7794,6.7794,6.7794,6.7687,6.7687,6.7687,6.7687,6.7687,6.8348,4.3917,4.384,4.3804,4.3992,4.418,4.4266,4.365,4.3532,4.3225,4.2284,4.1552,4.1012,4.0826,4.094,4.1337,4.2085,4.2783,4.3691,4.5161,4.6368,4.6964,4.6618,4.8592,4.9467,4.8271,4.9247,4.9756,4.9301,4.9186,4.9616,5.0851,5.1183,5.1839,5.2779,5.3413,5.4009,5.4929,5.5925,5.6607,5.6896,5.7807,5.8451,5.8992,5.9793,6.082,6.2063,6.291,6.3867,6.487,6.5682,6.6243,6.6749,6.7066,6.6948,6.6515,6.5901,6.5301,6.477,6.4214,6.4121,6.4203,6.4364,6.4521,6.4743,6.4817,6.4853,6.4888,6.4993,6.5095,6.5232,6.5258,6.5352,6.5413,6.5413,6.5413,6.5413,6.5413,6.5413,6.5413,6.5413,6.5413,6.5413,6.5413,6.5413,6.5413,6.5383,6.5321,6.5258,6.5226,6.5631,6.5947,6.6027,6.6937,6.7732,6.8135,6.8628,6.8809,6.8575,6.8371,6.8121,6.7899,6.7899,6.7794,6.7687,6.7687,6.7687,6.7687,6.7687,6.7687,6.7687,6.7871,6.8641,3.7719,3.7471,3.7448,3.8032,3.8389,3.868,3.8526,3.9009,3.9449,3.863,3.9009,3.9469,3.9444,3.9702,4.0156,4.0895,4.177,4.2751,4.4235,4.5433,4.6425,4.6763,4.7536,4.802,4.78,4.8153,4.8405,4.8289,4.8055,4.8379,4.9643,4.9983,5.046,5.11,5.1621,5.238,5.3203,5.4068,5.4786,5.529,5.5888,5.6541,5.7245,5.7666,5.841,5.9498,6.0155,6.1002,6.1952,6.2817,6.3912,6.4986,6.4908,6.5387,6.5952,6.493,6.4535,6.4398,6.3952,6.3823,6.3867,6.4203,6.4482,6.4707,6.4707,6.4779,6.4888,6.4888,6.5027,6.5199,6.5232,6.529,6.5413,6.5413,6.5413,6.5413,6.5413,6.5413,6.5413,6.5413,6.5413,6.5413,6.5413,6.5413,6.5383,6.5321,6.529,6.5194,6.4958,6.4891,6.4974,6.5332,6.708,6.8097,6.771,6.8278,6.8575,6.8321,6.807,6.7952,6.7899,6.7794,6.7741,6.7687,6.7687,6.7687,6.7687,6.7687,6.7687,6.7724,6.8458,6.8862,3.6338,3.63,3.6423,3.6789,3.7396,3.7851,3.7564,3.8245,3.8635,3.7893,3.8421,3.905,3.905,3.9362,4.008,4.1027,4.1798,4.2677,4.388,4.5227,4.5998,4.5647,4.6435,4.69,4.6446,4.6592,4.6847,4.6993,4.7138,4.7375,4.7821,4.8521,4.9213,4.9756,5.0517,5.1183,5.1759,5.2701,5.3337,5.3652,5.4124,5.462,5.5024,5.5409,5.6081,5.7204,5.8002,5.9076,6.0136,6.1118,6.2086,6.2999,6.3377,6.368,6.3848,6.3746,6.3496,6.3209,6.3353,6.3465,6.3511,6.3867,6.4125,6.4405,6.4633,6.4743,6.4779,6.4958,6.5027,6.5095,6.5226,6.5321,6.5413,6.5413,6.5413,6.5413,6.5413,6.5413,6.5566,6.6101,6.6178,6.6178,6.6178,6.6147,6.5855,6.5264,6.5128,6.4958,6.4707,6.4897,6.5032,6.5073,6.6331,6.7223,6.73,6.7937,6.8222,6.807,6.7899,6.7794,6.7794,6.7741,6.7687,6.7687,6.7687,6.7687,6.7687,6.7687,6.7944,6.8421,6.8752,6.9412,3.5882,3.5949,3.6178,3.63,3.7032,3.7732,3.7449,3.8019,3.8524,3.7917,3.8315,3.8841,3.8945,3.9465,4.0107,4.0926,4.18,4.2628,4.344,4.4725,4.5302,4.4666,4.5252,4.5562,4.5285,4.5598,4.5968,4.6155,4.6421,4.6686,4.6686,4.7375,4.8055,4.8842,4.9756,5.032,5.0683,5.1649,5.2216,5.2124,5.2642,5.2938,5.3006,5.3405,5.3957,5.4727,5.5693,5.6672,5.7767,5.8672,5.9706,6.0807,6.1317,6.1658,6.191,6.2371,6.2312,6.2149,6.2618,6.2904,6.3051,6.3428,6.3691,6.3915,6.4328,6.4596,6.4707,6.4815,6.492,6.5027,6.5194,6.529,6.5352,6.5352,6.5352,6.5352,6.5352,6.5543,6.5855,6.6466,6.6771,6.6962,6.6962,6.6859,6.6531,6.5821,6.5609,6.5388,6.5083,6.5324,6.544,6.5134,6.5914,6.6564,6.6951,6.7627,6.7967,6.7847,6.7741,6.7687,6.7687,6.7687,6.7687,6.7687,6.7687,6.7687,6.7687,6.7687,6.8091,6.8898,6.9155,7.0091,3.5721,3.5575,3.5541,3.6178,3.6911,3.7471,3.7633,3.8245,3.8635,3.8427,3.8631,3.8945,3.9258,3.9775,4.0083,4.0083,4.1517,4.2578,4.2578,4.3588,4.4313,4.4313,4.4026,4.4016,4.4568,4.5266,4.5817,4.5817,4.6059,4.6326,4.6326,4.6686,4.7257,4.8198,4.9098,4.9783,5.001,5.0906,5.1151,5.0888,5.1498,5.1575,5.1279,5.1611,5.1965,5.2162,5.2671,5.3427,5.4305,5.5215,5.6645,5.8287,5.8453,5.9357,6.0625,6.0689,6.095,6.1243,6.1787,6.2149,6.2464,6.2904,6.3099,6.3289,6.3749,6.4247,6.4596,6.4596,6.4745,6.4924,6.5166,6.5199,6.5199,6.5199,6.5199,6.5199,6.5199,6.5846,6.6417,6.6417,6.7064,6.7597,6.7597,6.7531,6.7425,6.7203,6.7089,6.6814,6.635,6.6209,6.6063,6.5644,6.6081,6.6455,6.6684,6.7421,6.7847,6.7687,6.7687,6.7687,6.7687,6.7687,6.7687,6.7687,6.7687,6.7687,6.7687,6.7687,6.8091,6.8935,6.9706,7.0897,3.529,3.5465,3.5755,3.656,3.7014,3.731,3.793,3.8301,3.8404,3.8461,3.8841,3.9154,3.9258,3.9775,4.0185,4.0287,4.1338,4.2268,4.2762,4.3332,4.3738,4.3958,4.3815,4.3629,4.3448,4.4691,4.5453,4.5453,4.5939,4.6301,4.6301,4.6566,4.7019,4.7442,4.8289,4.8568,4.8512,4.9386,4.9556,4.9171,4.9476,4.9587,4.9671,4.9753,5.0155,5.0736,5.1229,5.2033,5.2931,5.3483,5.4517,5.5831,5.6282,5.7264,5.845,5.8875,5.9408,6.0058,6.0555,6.095,6.1358,6.186,6.2235,6.253,6.294,6.358,6.4166,6.4405,6.4558,6.4632,6.4815,6.4924,6.4993,6.4993,6.4993,6.4958,6.485,6.5078,6.5535,6.6597,6.7051,6.7392,6.8035,6.8035,6.769,6.7122,6.6729,6.6431,6.6118,6.6405,6.6494,6.6191,6.6716,6.6956,6.637,6.7012,6.7433,6.7378,6.747,6.7524,6.7378,6.747,6.7524,6.7378,6.7378,6.7378,6.7378,6.787,6.8856,7.0208,7.1034,7.1633,3.4976,3.5435,3.5746,3.6622,3.6964,3.7331,3.8059,3.8375,3.8539,3.8729,3.905,3.9362,3.9569,3.9981,4.0389,4.0593,4.1286,4.2087,4.2736,4.299,4.3201,4.3437,4.383,4.3766,4.3168,4.4451,4.5331,4.5331,4.5939,4.6301,4.6301,4.6566,4.678,4.6993,4.7613,4.7791,4.7652,4.8118,4.8271,4.7893,4.802,4.8243,4.8331,4.855,4.8881,4.9375,4.996,5.0728,0.0,5.1972,5.2723,5.3773,5.4389,5.5345,5.6448,5.7022,5.7755,5.8427,5.9076,5.9574,5.996,6.0509,6.1171,6.1659,6.1933,6.2757,6.3668,6.3963,6.4091,6.4172,6.4367,6.4482,6.4521,6.4521,6.4521,6.4521,6.4406,6.4593,6.5156,6.6428,6.6913,6.7443,6.8353,6.8377,6.806,6.7529,6.7232,6.6955,6.6704,6.6948,6.7037,6.6719,6.7085,6.7084,6.6462,6.6919,6.721,6.721,6.7322,6.7322,6.721,6.7322,6.7322,6.721,6.721,6.721,6.721,6.8304,6.9544,7.0821,7.1623,7.1927,0.0,3.5172,3.5656,3.6627,3.7086,3.7496,3.8123,3.855,0.0,3.9278,3.9362,3.9465,3.9981,4.0287,4.0593,4.0795,4.1388,4.1983,4.2422,4.2639,4.266,4.2914,4.3856,4.4159,4.3505,4.4622,4.5331,4.5331,4.5939,4.6301,4.6301,4.6301,4.6421,4.6755,4.6992,4.7169,4.7169,4.7271,4.7213,4.7135,4.7135,4.7183,4.7288,4.7773,4.8078,4.8078,4.8909,4.9502,5.0086,5.0537,5.1263,5.2185,5.2812,5.3624,5.4505,5.5264,5.5949,5.6568,5.7312,5.7895,5.8357,5.894,5.9826,6.07,6.07,6.1806,6.3036,6.3271,6.34,6.3445,6.3712,6.3792,6.3792,6.3792,6.3835,6.3792,6.3792,6.4264,6.4956,6.5849,6.663,6.7496,6.8389,6.849,6.8442,6.8346,6.8235,6.807,6.7741,6.7633,6.7488,6.7154,6.6983,6.6903,6.6727,6.6983,6.7154,6.7154,6.7154,6.7154,6.7154,6.7154,6.7154,6.7154,6.719,6.7263,6.7336,6.8866,6.9973,7.0834,7.1599,7.1744,3.3968,0.0,3.5566,3.6882,3.7156,3.7307,0.0,3.8586,3.8672,3.9179,3.9465,3.9672,4.0083,4.0287,4.0491,4.0593,4.1081,4.1542,4.1868,4.2645,4.2945,4.2616,4.35,4.3917,4.3505,4.4378,4.4963,4.5331,4.5696,4.6059,4.6301,4.6301,4.6125,4.5817,4.5472,4.563,4.6316,4.6081,4.5945,4.5688,4.6115,4.6458,4.6637,4.6977,4.7391,4.7801,4.8179,4.8681,4.9207,4.9502,5.0154,5.0857,5.1233,5.1942,5.2781,5.3396,5.3967,5.4608,5.5296,5.5824,5.6305,5.7211,5.8148,5.8872,5.9042,6.0413,6.1986,6.2162,6.2266,6.242,6.2671,6.2769,6.2769,6.294,6.2988,6.294,6.2843,6.2941,6.3443,6.4809,6.516,6.5799,6.7337,6.754,6.754,6.7736,6.7469,6.7286,6.7322,6.7004,6.6714,6.644,6.6294,6.6207,6.6057,6.6391,6.6632,6.6512,6.6632,6.6632,6.6512,6.6632,6.6632,6.6512,6.7004,6.7554,6.8352,6.9074,6.9937,7.0951,7.1002,7.1045,3.3077,3.4011,3.5175,3.6319,3.6763,3.713,3.8216,3.8427,3.8526,3.9154,3.9362,3.9672,4.0083,4.0185,4.0389,4.0644,4.0821,4.0988,4.1255,4.2436,4.3124,4.2656,4.3626,4.4281,4.389,4.4401,4.4963,4.5331,4.5574,4.5939,4.6301,4.6075,4.5679,4.526,4.4461,4.4382,4.5155,4.4815,4.4707,4.4964,4.5261,4.5582,4.6007,4.6455,4.6873,4.7184,4.7596,4.8004,4.8409,4.861,4.9178,4.9737,5.0057,5.0603,5.1203,5.1636,5.2093,5.2723,5.3309,5.3967,5.4773,5.5393,5.615,5.6838,5.6913,5.7939,5.9329,6.0473,6.0867,6.1042,6.1328,6.144,6.1532,6.1733,6.1788,6.1788,6.177,6.2004,6.2542,6.3747,6.4194,6.4806,6.6211,6.6332,6.6332,6.6664,6.6487,6.6344,6.638,6.6038,6.5788,6.5597,6.5504,6.5308,6.5145,6.5374,6.5633,6.6057,6.6146,6.6182,6.6083,6.6146,6.6263,6.6396,6.6696,6.7415,6.8623,6.8848,6.9522,7.0475,7.0339,7.027,3.2365,3.3438,3.4513,3.5488,3.6145,3.6796,3.7655,3.8104,3.8421,3.905,3.9154,3.9362,3.9878,4.0031,4.0259,4.061,4.0545,4.0458,4.0668,4.2123,4.2974,4.2735,4.3917,4.4594,4.4347,4.4594,4.484,4.5208,4.5379,4.5693,4.6055,4.5529,4.506,4.463,4.3738,4.3447,4.3778,4.3523,4.3738,4.4505,4.4613,4.4938,4.5475,4.6007,4.6323,4.6323,4.6873,4.7288,4.7494,4.7773,4.8179,4.871,4.9009,4.9277,4.9737,5.0028,5.0412,5.0887,5.1296,5.2153,5.3103,5.3278,5.3935,5.4576,5.4659,5.5069,5.5883,5.7905,5.8905,5.9373,5.9534,5.9762,5.9925,6.0113,6.0238,6.03,6.0423,6.1034,6.1757,6.2534,6.3146,6.3819,6.4831,6.4937,6.4968,6.5232,6.5232,6.5202,6.5171,6.4905,6.4702,6.4566,6.4358,6.4148,6.4006,6.4006,6.4323,6.5212,6.5445,6.551,6.551,6.5617,6.584,6.6309,6.6352,6.6954,6.8328,6.8398,6.8785,6.9527,6.9527,6.9455,3.1769,3.2529,3.3636,3.4803,3.5708,3.6495,3.712,3.7465,3.7916,3.8421,3.8526,3.8736,3.9362,3.9735,3.9954,3.9841,3.9892,4.0016,4.0243,4.1543,4.24,4.24,4.3575,4.4347,4.4347,4.4347,4.447,4.484,4.4524,4.4352,4.4738,4.422,4.3585,4.2769,4.2389,4.1982,4.1613,4.2562,4.3184,4.3602,4.4396,4.4722,4.483,4.5475,4.5715,4.5715,4.6007,4.6323,4.6637,4.6977,4.7391,4.7903,4.7903,4.8106,4.8453,4.8681,4.8881,4.8951,4.9415,4.994,5.0484,5.0768,5.1206,5.1698,5.2183,5.2541,5.2834,5.335,5.515,5.6955,5.7177,5.7358,5.7577,5.7725,5.8044,5.8323,5.8323,5.908,5.994,6.0768,6.1487,6.2204,6.3033,6.3211,6.3285,6.3615,6.3577,6.3612,6.3935,6.3466,6.3171,6.3096,6.2795,6.2566,6.2489,6.2489,6.2566,6.2719,6.3754,6.4323,6.4323,6.4809,6.5047,6.5152,6.5994,6.6677,6.7073,6.7453,6.7798,6.8293,6.8137,6.8137,3.1431,3.2188,3.298,3.3776,3.4714,3.5488,3.6036,3.6363,3.6796,3.7334,3.7441,3.775,3.8572,3.8922,3.9285,3.9671,3.9855,3.9872,3.9989,4.114,4.2016,4.2016,4.333,4.4347,4.4347,4.4347,4.435,4.4403,4.4038,4.3772,4.3839,4.2947,4.23,4.1707,4.1069,4.0575,4.0106,4.0894,4.1696,4.2712,4.3295,4.3628,4.3848,4.4396,4.4587,4.4696,4.5154,4.5368,4.5475,4.5795,4.6218,4.656,4.6742,4.695,4.726,4.7335,4.7205,4.7205,4.7457,4.7836,4.8239,4.8311,4.8681,4.9173,4.9339,4.9504,4.9543,4.9706,5.1938,5.4448,5.4498,5.4663,5.4907,5.5085,5.5357,5.5758,5.6198,5.7094,5.8045,5.8852,5.9531,6.0275,6.0886,6.0953,6.1117,6.1327,6.1441,6.1589,6.1795,6.1475,6.1265,6.1265,6.0854,6.0604,6.0604,6.0436,6.0937,6.2099,6.3128,6.3707,6.3707,6.4006,6.4461,6.4835,6.5106,6.548,6.5969,6.617,6.6339,6.6559,6.6475,6.6475,3.0843,3.1634,3.2238,3.2591,3.3529,3.4513,3.5068,3.5424,3.5911,3.6599,3.6732,3.7067,3.8013,3.8288,3.8689,3.9632,3.9779,3.9684,3.9802,4.0901,4.1895,4.1895,4.333,4.4347,4.4347,4.4227,4.3986,4.3796,4.3313,4.3,4.271,4.1567,4.081,4.0336,3.9705,3.9144,3.8812,3.9144,4.0083,4.172,4.2061,4.24,4.2737,4.3159,4.3356,4.3356,4.3823,4.4152,4.4177,4.4479,4.4804,4.5046,4.5342,4.5555,4.5662,4.5635,4.5502,4.5262,4.5342,4.5555,4.5634,4.5713,4.5924,4.6315,4.6315,4.6288,4.6234,4.6102,4.8099,5.0351,5.112,5.1486,5.1727,5.1876,5.2175,5.2657,5.3454,5.4559,5.5637,5.6419,5.7176,5.7803,5.8169,5.8414,5.8627,5.8774,5.9073,5.925,5.9337,5.9105,5.9016,5.9016,5.86,5.8423,5.8582,5.8398,5.9126,6.1,6.2183,6.2832,6.2915,6.323,6.3637,6.4254,6.3979,6.4162,6.4753,6.4753,6.4753,6.4753,6.4753,6.4852,2.9768,3.05,3.1236,3.1277,3.2734,3.4194,3.4696,3.5032,3.5505,3.6541,3.6767,3.6996,3.7588,3.8114,3.8619,3.9288,3.9403,3.9426,3.9802,4.0901,4.1895,4.228,4.3453,4.4347,4.4347,4.3866,4.3431,4.3187,4.2161,4.1377,4.0854,3.9986,3.9213,3.8477,3.8096,3.7856,3.7495,3.7856,3.8789,4.0339,4.087,4.1353,4.172,4.2037,4.2125,4.2125,4.2125,4.2351,4.2687,4.2936,4.327,4.3466,4.3797,4.3797,4.3577,4.3577,4.333,4.3108,4.2724,4.2699,4.2699,4.2674,4.2674,4.2649,4.2624,4.2624,4.2599,4.2239,4.2413,4.3355,4.6538,4.7483,4.7684,4.7785,4.8254,4.8989,4.9593,5.0883,5.2151,5.267,5.3781,5.4719,5.469,5.5249,5.5675,5.5969,5.6164,5.6453,5.6614,5.655,5.6357,5.6357,5.6158,5.6237,5.6816,5.6877,5.712,5.7901,6.0076,6.1413,6.1718,6.2248,6.2482,6.2547,6.297,6.3228,6.3292,6.3292,6.3292,6.3292,6.3292,6.3549,2.8043,2.8761,2.9391,2.9661,3.0738,3.2119,3.3612,3.3949,3.4423,3.5729,3.5954,3.6274,3.726,3.8082,3.8703,3.8908,3.9167,3.9423,3.9983,4.1088,4.2013,4.2367,4.3235,4.3818,4.3818,4.3118,4.2567,4.2114,4.1234,4.0287,3.9488,3.8425,3.7594,3.7089,3.6624,3.6401,3.6524,3.6524,3.7132,3.8194,3.9003,3.9474,3.9849,4.0176,4.0408,4.0524,4.0755,4.0985,4.11,4.1215,4.1444,4.1647,4.1987,4.1761,4.1281,4.1281,4.1052,4.0592,4.0221,4.0082,4.0082,3.9826,3.9593,3.9453,3.9453,3.9173,3.8798,3.8444,3.8208,3.8987,4.2695,4.3816,4.3924,4.3924,4.4483,4.5175,4.5726,4.6857,4.7996,4.8784,4.9692,5.0464,5.0793,5.1393,5.196,5.2521,5.2732,5.3048,5.336,5.3286,5.3286,5.3286,5.3001,5.3078,5.3496,5.3898,5.4495,5.5516,5.811,5.9793,5.9991,6.0477,6.085,6.1083,6.106,6.1113,6.1113,6.1113,6.1113,6.1113,6.1516,6.1753,2.5465,2.624,2.6946,2.7463,2.8627,2.9949,3.1662,3.2632,3.3526,3.496,3.5703,3.6264,3.7066,3.7993,3.8693,3.8693,3.9072,3.9423,3.9887,4.0851,4.168,4.2178,4.283,4.3144,4.3144,4.2448,4.1781,4.1164,4.0264,3.9294,3.8455,3.7231,3.638,3.6135,3.5418,3.517,3.5418,3.5541,3.5788,3.6258,3.6989,3.7714,3.8335,3.8551,3.8789,3.9026,3.9239,3.9357,3.9357,3.9357,3.9592,3.9943,4.0036,3.9686,3.9216,3.8957,3.8602,3.8029,3.7528,3.7385,3.7265,3.6639,3.6374,3.6131,3.5886,3.5498,3.4985,3.4614,3.4242,3.4594,3.7242,3.8801,3.9686,3.9686,4.0293,4.1046,4.1519,4.2616,4.3626,4.4499,4.537,4.6112,4.6442,4.7289,4.8126,4.8611,4.8953,4.9432,4.9684,4.9824,4.9824,4.9963,4.9851,5.001,5.0432,5.0837,5.1529,5.2506,5.4714,5.672,5.8065,5.8513,5.8782,5.9165,5.8979,5.8979,5.9009,5.9009,5.9099,5.9308,5.9757,6.0206,2.2204,2.3158,2.4045,2.4662,2.6217,2.7761,2.8906,3.087,3.2993,3.4614,3.5911,3.7032,3.7374,3.7998,3.838,3.838,3.8953,3.9426,3.9802,4.0243,4.0808,4.1401,4.1971,4.228,4.228,4.1805,4.1141,4.0163,3.9323,3.8335,3.7495,3.6401,3.5788,3.5418,3.4797,3.4423,3.4423,3.4673,3.4922,3.4922,3.517,3.6034,3.7374,3.7374,3.7374,3.7374,3.7374,3.7374,3.7374,3.7616,3.7954,3.8171,3.7932,3.7572,3.721,3.656,3.6072,3.5746,3.4757,3.4383,3.4113,3.3068,3.2815,3.2689,3.1944,3.1542,3.1139,3.09,3.0513,3.0125,2.9717,3.2359,3.5108,3.5108,3.5707,3.6415,3.6855,3.8061,3.915,3.9779,4.1002,4.1994,4.1994,4.2997,4.401,4.4402,4.5011,4.5519,4.5905,4.593,4.605,4.6577,4.6815,4.7282,4.7846,4.7897,4.8249,4.8814,4.9651,5.191,5.5936,5.6194,5.6337,5.6593,5.6593,5.6849,5.7187,5.7187,5.7536,5.8031,5.8031,5.8726,1.7904,1.8809,1.9866,2.0821,2.2544,2.432,2.5595,2.8668,3.1827,3.4138,3.5665,3.6667,3.7032,3.7637,3.7998,3.7998,3.8574,3.9067,3.9551,4.0237,4.0805,4.1275,4.1375,4.1353,4.1353,4.0527,3.9752,3.9277,3.8305,3.7374,3.6401,3.5665,3.4922,3.4423,3.3922,3.3796,3.4047,3.4173,3.4298,3.4548,3.4673,3.5294,3.6279,3.6279,3.6401,3.6667,3.6667,3.6524,3.6279,3.6156,3.6156,3.6258,3.589,3.5376,3.486,3.4113,3.334,3.2581,3.1817,3.1304,3.09,3.0125,2.9735,2.9492,2.8952,2.841,2.7883,2.7635,2.7238,2.6886,2.6734,2.7288,2.8444,3.0686,3.1865,3.2393,3.2502,3.3643,3.464,3.5065,3.6147,3.7064,3.7881,3.854,3.9325,4.0511,4.0768,4.1279,4.2086,4.2488,4.2637,4.2762,4.2888,4.3224,4.3739,4.3786,4.4253,4.531,4.5629,4.7681,5.2098,5.2917,5.3375,5.3735,5.4002,5.4149,5.4268,5.4828,5.5252,5.5474,5.6304,5.6913,1.3089,1.4062,1.5327,1.6581,1.8547,2.0628,2.2918,2.6987,3.0902,3.2922,3.4507,3.5541,3.6178,3.6889,3.7495,3.7637,3.8238,3.8687,3.9145,3.9431,3.9882,4.0421,4.0406,4.0339,4.0339,3.9705,3.893,3.8074,3.7352,3.6524,3.5541,3.4922,3.4298,3.3922,3.3544,3.3544,3.367,3.3796,3.4047,3.4173,3.4173,3.4548,3.517,3.5294,3.5418,3.5541,3.5418,3.5294,3.5046,3.4797,3.4548,3.4403,3.3902,3.3253,3.26,3.1579,3.066,2.9735,2.8952,2.8427,2.79,2.7105,2.6722,2.6321,2.592,2.5233,2.4559,2.4438,2.4017,2.3543,2.3292,2.3187,2.3954,2.7106,2.834,2.8755,2.8755,2.9731,3.0701,3.1,3.1826,3.2767,3.3909,3.4458,3.5122,3.6475,3.7031,3.7586,3.8381,3.8908,3.9192,3.9344,3.9475,3.9713,3.9994,4.0015,4.0409,4.1353,4.1861,4.3476,4.6335,4.8457,4.9926,5.0358,5.0787,5.1168,5.168,5.2145,5.2817,5.3316,5.4129,5.4576,0.7728,0.8913,1.031,1.1888,1.4192,1.6902,2.0102,2.4981,2.9179,3.1029,3.2581,3.3882,3.4901,3.6013,3.6746,3.7132,3.7758,3.8261,3.8261,3.8261,3.8477,3.9072,3.919,3.919,3.919,3.919,3.8455,3.6989,3.6502,3.589,3.4797,3.4173,3.3922,3.3796,3.3544,3.3418,3.3418,3.367,3.3796,3.3796,3.3796,3.3796,3.3796,3.4173,3.4298,3.4298,3.3922,3.367,3.367,3.3292,3.3019,3.2619,3.1873,3.1212,3.0419,2.8969,2.79,2.7089,2.6054,2.5517,2.4979,2.391,2.3502,2.3365,2.2682,2.1859,2.1308,2.1333,2.078,2.0145,1.9577,1.9968,2.1006,2.3741,2.48,2.5296,2.5296,2.6099,2.7026,2.7475,2.8182,2.8884,2.9774,3.0468,3.1299,3.2438,3.355,3.4396,3.4808,3.5199,3.5588,3.5898,3.6285,3.6555,3.6555,3.6555,3.6709,3.7153,3.8173,3.9075,3.9592,4.3532,4.6167,4.6908,4.7377,4.8064,4.9215,4.9313,5.0147,5.1408,5.1619,5.1893,0.2022,0.2849,0.3848,0.5912,0.92,1.2497,1.4955,1.793,2.1803,2.7026,2.983,3.1798,3.2835,3.4113,3.5129,3.5788,3.6401,3.6889,3.7132,3.7495,3.7736,3.8118,3.8238,3.8358,3.8619,3.8118,3.7495,3.6624,3.589,3.5046,3.3796,3.3796,3.367,3.3165,3.3292,3.3418,3.3418,3.3418,3.3418,3.3165,3.2804,3.253,3.2384,3.3165,3.3418,3.3146,3.2638,3.2128,3.1873,3.1488,3.1102,3.0825,3.0178,2.9395,2.8592,2.7121,2.5786,2.4573,2.3502,2.2682,2.1996,2.0743,2.0467,2.0328,1.9634,1.8798,1.8272,1.8322,1.7806,1.7325,1.7125,1.6963,1.7038,1.7931,2.012,2.1965,2.1965,2.246,2.3091,2.3819,2.4248,2.4983,2.5994,2.659,2.746,2.89,2.9884,3.0593,3.0892,3.1597,3.2018,3.2018,3.2735,3.3152,3.3152,3.3448,3.3872,3.4445,3.4752,3.5425,3.6387,4.0885,4.3294,4.3542,4.4474,4.5138,4.539,4.6747,4.7513,4.7885,4.9038,4.9606,-0.4178,-0.3388,-0.2284,0.0549,0.3636,0.6394,0.8576,1.1147,1.4386,1.9244,2.4343,2.8491,2.9942,3.1652,3.2961,3.3737,3.4632,3.5253,3.5376,3.589,3.6279,3.6624,3.7011,3.7253,3.7374,3.7132,3.6624,3.5767,3.5046,3.4298,3.3165,3.3165,3.3038,3.2676,3.3058,3.3038,3.2931,3.3038,3.2912,3.2403,3.1891,3.1249,3.0455,3.1616,3.2001,3.1598,3.0954,3.0567,3.0307,2.9657,2.9134,2.874,2.78,2.6988,2.592,2.4573,2.3079,2.1709,2.0756,1.9785,1.8949,1.7959,1.7539,1.7268,1.6529,1.5845,1.5462,1.5369,1.4984,1.4473,1.3837,1.3755,1.3801,1.3815,1.6303,1.8754,1.8905,1.951,2.0113,2.0692,2.1141,2.1739,2.2917,2.3819,2.4703,2.5716,2.6299,2.6866,2.7446,2.8038,2.8613,2.89,2.9488,3.0075,3.0376,3.0843,3.1313,3.2056,3.2415,3.3085,3.4074,3.6938,3.9149,4.0205,4.1296,4.2063,4.2648,4.372,4.4525,4.4909,4.6058,4.6632,-1.0834,-0.9786,-0.8418,-0.5159,-0.2837,-0.0717,0.1576,0.4295,0.7157,1.0297,1.7717,2.4175,2.6479,2.836,3.0089,3.1249,3.2308,3.3087,3.3214,3.3757,3.4383,3.486,3.5376,3.5869,3.6013,3.6013,3.5644,3.4673,3.4047,3.3418,3.2657,3.2403,3.2294,3.2166,3.2403,3.2549,3.2294,3.253,3.2275,3.1616,3.0732,2.9691,2.8362,2.9395,2.9787,2.9787,2.9134,2.874,2.8477,2.7535,2.7004,2.6486,2.5383,2.4303,2.3079,2.1709,2.019,1.8949,1.797,1.6987,1.5999,1.515,1.46,1.4223,1.3504,1.3137,1.2765,1.2466,1.2067,1.1508,1.058,1.0456,1.0638,1.044,1.2622,1.4927,1.5863,1.6626,1.7236,1.7834,1.8299,1.8905,2.0102,2.1141,2.2037,2.2484,2.293,2.3375,2.4248,2.4703,2.5157,2.6022,2.6517,2.7144,2.8046,2.8364,2.902,2.9818,3.0356,3.1173,3.2057,3.3076,3.4675,3.6782,3.7991,3.9237,4.0218,4.0774,4.1317,4.2136,4.3055,4.3359,-1.7745,-1.6255,-1.4602,-1.2643,-1.0715,-0.855,-0.5998,-0.3147,0.0,0.3437,1.1657,1.891,2.1432,2.377,2.568,2.7422,2.8622,2.97,3.0606,3.1011,3.167,3.2562,3.3107,3.3631,3.4133,3.4278,3.4047,3.367,3.3292,3.2657,3.1635,3.1891,3.1763,3.1138,3.1377,3.1635,3.1506,3.1635,3.123,3.0437,2.8888,2.7567,2.6501,2.595,2.6486,2.7551,2.7169,2.6486,2.5547,2.5412,2.4723,2.3774,2.3092,2.1984,2.0869,1.9356,1.81,1.6846,1.5425,1.4432,1.3587,1.2459,1.1969,1.1491,1.0779,1.0281,0.9949,0.9764,0.9041,0.8459,0.8092,0.7493,0.703,0.7357,0.7821,0.9211,1.2783,1.3714,1.4022,1.4782,1.5557,1.6321,1.7236,1.7844,1.8451,1.9197,1.951,2.0113,2.1003,2.144,2.19,2.2806,2.3616,2.4507,2.5419,2.5992,2.6889,2.7922,2.8177,2.8637,2.968,3.0572,3.1526,3.2424,3.545,3.709,3.718,3.7995,3.8669,3.9216,3.9964,4.0588,-2.4162,-2.3089,-2.1923,-2.0265,-1.8383,-1.6372,-1.3743,-1.0799,-0.769,-0.4277,0.1134,0.7495,1.4928,1.8324,2.0561,2.2496,2.4011,2.5383,2.6464,2.7422,2.8377,2.9327,3.0254,3.1029,3.1524,3.1689,3.1835,3.1982,3.1488,3.0972,3.0473,3.0325,3.0065,2.9691,2.9787,2.9787,2.9657,2.9787,2.9248,2.7932,2.6604,2.5278,2.4181,2.3502,2.4046,2.5697,2.4873,2.4181,2.3638,2.2819,2.2134,2.1433,2.019,1.9066,1.7949,1.6685,1.5274,1.4006,1.3159,1.2015,1.0868,1.0155,0.9518,0.8745,0.8216,0.7853,0.7494,0.6965,0.6523,0.6068,0.5008,0.4388,0.4231,0.439,0.4388,0.5167,0.7968,0.9992,1.1553,1.2481,1.3252,1.4022,1.433,1.5097,1.5871,1.6465,1.7084,1.7702,1.8309,1.9018,1.9864,2.0624,2.1448,2.2212,2.3298,2.4162,2.4843,2.5568,2.6066,2.6662,2.7734,2.873,2.9529,3.0469,3.3226,3.4625,3.4986,3.546,3.585,3.6029,3.7135,3.7773,-3.0004,-2.9638,-2.8931,-2.7385,-2.5782,-2.3747,-2.1225,-1.8561,-1.569,-1.219,-0.922,-0.4387,0.4803,1.0492,1.4518,1.6658,1.8622,2.0299,2.1705,2.3229,2.4473,2.5457,2.6792,2.7719,2.8245,2.8935,2.9344,2.9752,2.9378,2.9134,2.9003,2.8493,2.8097,2.7965,2.78,2.7652,2.7403,2.7387,2.6722,2.5398,2.4181,2.3092,2.2134,2.1308,2.1584,2.2682,2.2271,2.1996,2.1584,2.034,1.9646,1.8938,1.7539,1.6272,1.5141,1.3855,1.258,1.1299,1.0731,0.9579,0.8425,0.7847,0.7052,0.6269,0.5879,0.5501,0.5114,0.4378,0.4075,0.3764,0.2353,0.1884,0.1727,0.1884,0.1884,0.251,0.4544,0.7197,0.9382,1.0158,1.0779,1.1399,1.1708,1.2635,1.3568,1.4184,1.4992,1.5641,1.6111,1.7052,1.795,1.8727,1.9386,2.0148,2.1246,2.1941,2.2588,2.327,2.3952,2.4703,2.6015,2.6901,2.7825,2.8938,3.0765,3.2212,3.2952,3.3444,3.3608,3.3772,3.475,3.5237,-3.5348,-3.5465,-3.5313,-3.3536,-3.2217,-3.0773,-2.8145,-2.5919,-2.3609,-2.0219,-1.7591,-1.4518,-1.0741,-0.1132,0.7291,1.0303,1.244,1.4437,1.6708,1.7993,1.9404,2.1208,2.2316,2.3419,2.4516,2.5606,2.6424,2.6839,2.7105,2.7121,2.6737,2.647,2.6069,2.5682,2.5412,2.5143,2.5143,2.4452,2.391,2.3502,2.1996,2.1032,2.0201,1.91,1.8261,1.7819,1.9518,1.9669,1.8541,1.811,1.7278,1.6291,1.5,1.3863,1.2731,1.1155,1.0149,0.9291,0.7702,0.6982,0.6402,0.5238,0.4588,0.4228,0.3478,0.3231,0.3137,0.2353,0.1727,0.1413,0.0784,0.0157,-0.0314,0.0,0.0157,0.1099,0.4231,0.5796,0.6733,0.7513,0.7669,0.8136,0.9387,1.0314,1.1095,1.1876,1.278,1.3818,1.4594,1.5224,1.5973,1.6739,1.7412,1.8173,1.8955,1.9312,2.0171,2.1534,2.172,2.2444,2.4268,2.5298,2.6117,2.6927,2.8292,2.9802,3.1647,3.1994,3.2505,3.2819,3.2983,3.3132,-3.9947,-4.0402,-4.0619,-3.9198,-3.8123,-3.6924,-3.4644,-3.2564,-3.0357,-2.7877,-2.5242,-2.2432,-1.9546,-0.995,-0.1417,0.1548,0.4223,0.6766,0.945,1.1434,1.3316,1.5429,1.6847,1.8389,1.9945,2.0921,2.1893,2.3025,2.3161,2.3297,2.346,2.3202,2.2929,2.2792,2.2382,2.2108,2.2108,2.1433,2.0743,2.0178,1.8938,1.7819,1.6836,1.5858,1.515,1.4432,1.4849,1.5425,1.6141,1.5575,1.4583,1.3444,1.2294,1.1005,0.9568,0.8564,0.7408,0.625,0.5673,0.4802,0.3644,0.3233,0.2535,0.1818,0.1221,0.0929,0.0471,-0.0314,-0.0628,-0.0942,-0.1569,-0.204,-0.2042,-0.1728,-0.0942,0.0,0.1412,0.3137,0.439,0.5014,0.5483,0.6108,0.6893,0.819,0.9336,0.9814,1.1183,1.2383,1.302,1.38,1.4708,1.5506,1.6162,1.6923,1.7403,1.8247,1.8891,1.9454,1.9747,2.0625,2.2118,2.2638,2.3608,2.4909,2.6443,2.7968,2.9816,3.0499,3.1013,3.1164,3.1662,3.1978,-4.3631,-4.4199,-4.4781,-4.3657,-4.2711,-4.1719,-3.9696,-3.8112,-3.65,-3.4327,-3.2056,-2.9832,-2.7457,-2.0318,-1.3078,-0.7539,-0.4203,-0.1403,0.1687,0.3944,0.6226,0.8723,1.0593,1.2448,1.4305,1.5588,1.6867,1.8282,1.8849,1.9149,1.9577,1.96,1.9472,1.9472,1.9206,1.9066,1.8916,1.8229,1.7529,1.6826,1.5557,1.4566,1.3571,1.2723,1.1865,1.1149,1.0712,1.1572,1.3436,1.2723,1.1722,1.0718,0.9424,0.8126,0.6825,0.596,0.4799,0.3492,0.3201,0.2328,0.1313,0.1034,0.0449,-0.0303,-0.0921,-0.1243,-0.1569,-0.251,-0.2667,-0.2823,-0.3609,-0.3609,-0.3454,-0.3142,-0.22,-0.1099,-0.0942,0.0785,0.2511,0.2982,0.3607,0.4238,0.4889,0.6029,0.7342,0.8176,0.9547,1.0751,1.1397,1.2501,1.3575,1.4222,1.4982,1.5569,1.6121,1.6909,1.7539,1.7829,1.8291,1.9126,2.0201,2.0716,2.1646,2.3009,2.4384,2.5921,2.7461,2.8992,2.9677,2.9677,3.0767,3.1372,0.0,0.0,0.0,-4.6634,-4.5982,-4.5091,-4.3308,-4.2655,-4.1872,-3.9474,-3.825,-3.6872,-3.4697,-3.2536,-2.7698,-1.7035,-1.2951,-0.99,-0.6528,-0.4127,-0.1713,0.1003,0.3443,0.5597,0.7464,0.9473,1.1193,1.2768,1.3924,1.4788,1.522,1.5671,1.5971,1.599,1.599,1.5698,1.5416,1.4566,1.3998,1.3571,1.2137,1.1136,1.0706,0.9701,0.8698,0.7837,0.7106,0.8117,1.0,0.9419,0.8698,0.7837,0.625,0.5235,0.4361,0.3201,0.2037,0.1019,0.0146,-0.0437,-0.0875,-0.1627,-0.1948,-0.2125,-0.2919,-0.3265,-0.3452,-0.4236,-0.4547,-0.4549,-0.5019,-0.4709,-0.4397,-0.4397,-0.3456,-0.2514,-0.2514,-0.0942,0.0785,0.1728,0.1886,0.2209,0.351,0.4157,0.4973,0.6651,0.7705,0.8747,0.9573,1.0992,1.2235,1.2567,1.3562,1.4289,1.4784,1.5318,1.5971,1.6639,1.719,1.7966,1.9021,1.9553,2.024,2.1272,2.2481,2.3686,2.4543,2.7448,2.8824,2.8837,2.9987,3.0979,-4.8169,0.0,0.0,0.0,0.0,0.0,-4.699,-4.5997,-4.5039,-4.3912,-4.2506,-4.1176,-4.0164,-3.8313,-3.5643,-3.1513,-2.456,-1.8585,-1.5236,-1.278,-1.007,-0.723,-0.4982,-0.2567,0.0,0.1859,0.3868,0.6019,0.7469,0.8775,0.9638,1.0811,1.1695,1.1994,1.1994,1.1844,1.1409,1.0693,0.9827,0.8817,0.781,0.6801,0.5502,0.5216,0.4348,0.3045,0.29,0.2609,0.2609,0.4933,0.5225,0.4213,0.3197,0.218,0.1164,0.0291,-0.1018,-0.2182,-0.2472,-0.3199,-0.3935,-0.4283,-0.4489,-0.4999,-0.552,-0.5742,-0.5955,-0.6893,-0.7049,-0.7049,-0.7209,-0.674,-0.6115,-0.5805,-0.5176,-0.4549,-0.3611,-0.2669,-0.157,-0.0157,0.0633,0.1115,0.1917,0.2917,0.3935,0.4602,0.6142,0.7353,0.8019,0.9207,1.0393,1.1225,1.2483,1.3398,1.3944,1.4842,1.5526,1.579,1.6435,1.7055,1.763,1.8164,1.8864,1.9728,2.0761,2.1801,2.2675,2.5933,2.763,2.8305,2.9803,3.0938,0.0,0.0,-5.1327,-5.1102,0.0,0.0,-4.947,-4.8667,-4.7786,-4.6862,-4.5956,-4.5159,-4.4336,-4.3259,-4.1929,-4.053,-3.5371,-2.9563,-2.4101,-2.1211,-1.8575,-1.5853,-1.3261,-1.076,-0.8077,-0.5838,-0.3569,-0.1287,0.0717,0.2589,0.4467,0.5774,0.6645,0.7225,0.7373,0.7373,0.6941,0.6188,0.531,0.4305,0.3284,0.2142,0.0861,0.0431,-0.0432,-0.1447,-0.2026,-0.2606,-0.3333,-0.1447,-0.0145,0.0581,-0.0436,-0.1453,-0.2324,-0.3052,-0.4213,-0.5232,-0.5232,-0.5667,-0.641,-0.6492,-0.6704,-0.7069,-0.765,-0.7881,-0.8243,-0.891,-0.9231,-0.9387,-0.9236,-0.8608,-0.7985,-0.7521,-0.6893,-0.6111,-0.5019,-0.4236,-0.3144,-0.1265,-0.0318,0.0321,0.0972,0.164,0.2486,0.3329,0.4519,0.5544,0.6214,0.7554,0.8892,0.9726,1.1339,1.2627,1.3363,1.4442,1.514,1.5199,1.582,1.6233,1.6585,1.6761,1.7288,1.8331,1.9021,2.0288,2.1782,2.4441,2.6556,2.8326,2.9494,3.0601,0.0,0.0,0.0,-5.252,-5.2241,0.0,-5.1122,-5.0657,-5.0059,-4.8834,-4.8805,-4.8594,-4.7673,-4.7178,-4.6633,-4.5469,-4.4387,-4.074,-3.2487,-2.9212,-2.6857,-2.4363,-2.1533,-1.8823,-1.6363,-1.3735,-1.1235,-0.8986,-0.644,-0.3732,-0.072,0.0144,0.1011,0.1876,0.2312,0.2312,0.1878,0.1285,0.0567,-0.0142,-0.168,-0.2801,-0.3678,-0.4814,-0.556,-0.635,-0.736,-0.794,-0.8237,-0.8673,-0.6513,-0.3195,-0.4646,-0.537,-0.5805,-0.668,-0.7408,-0.8131,-0.8131,-0.828,-0.8589,-0.869,-0.873,-0.8775,-0.9429,-0.9813,-1.0157,-1.0755,-1.1256,-1.1405,-1.0946,-1.048,-1.0008,-0.9236,-0.8453,-0.7673,-0.674,-0.5645,-0.4252,-0.2237,-0.1282,-0.0484,0.033,0.0663,0.0999,0.2352,0.3027,0.3532,0.4374,0.6053,0.7566,0.8407,1.0356,1.2009,1.2993,1.418,1.4856,1.4985,1.5352,1.5704,1.5704,1.5704,1.6057,1.6936,1.7471,1.8981,2.1303,2.3206,2.5413,2.8186,2.8974,2.9961,0.0,0.0,0.0,-5.3583,-5.3382,0.0,-5.2424,-5.1809,-5.1253,-5.0993,-5.0586,-5.0204,-5.01,-4.9609,-4.9103,-4.8776,-4.7952,-4.4996,-3.8457,-3.6024,-3.4044,-3.1565,-2.9247,-2.6889,-2.4892,-2.2231,-1.9811,-1.7898,-1.4014,-1.053,-0.786,-0.6729,-0.5594,-0.46,-0.4171,-0.4011,-0.4259,-0.4952,-0.5621,-0.626,-0.7484,-0.8634,-1.0004,-1.0429,-1.1348,-1.2626,-1.2775,-1.2932,-1.3097,-1.3531,-1.1389,-0.7963,-0.8261,-0.8837,-0.9413,-0.9856,-1.0575,-1.1299,-1.1299,-1.1592,-1.1743,-1.1777,-1.1728,-1.1544,-1.175,-1.1782,-1.1841,-1.2461,-1.2656,-1.2656,-1.2656,-1.2037,-1.1411,-1.0952,-1.0325,-0.9703,-0.8613,-0.7833,-0.6938,-0.5319,-0.3077,-0.1465,-0.0495,-0.0167,0.0336,0.101,0.202,0.2861,0.3029,0.471,0.6243,0.765,0.9616,1.1279,1.2619,1.3813,1.4441,1.4476,1.4822,1.5168,1.5168,1.5528,1.5704,1.6057,1.725,1.8483,1.9572,2.2892,2.5148,2.6342,2.8004,2.9264,-5.4217,-5.4337,-5.4551,-5.4551,-5.4425,0.0,0.0,-5.3414,-5.2941,-5.2753,-5.262,-5.2473,-5.2465,-5.2308,-5.2125,-5.1745,-5.1359,-4.9824,-4.6138,-4.3119,-4.0475,-3.8387,-3.6318,-3.4207,-3.2095,-2.9669,-2.6971,-2.4216,-2.1091,-1.8369,-1.6048,-1.4414,-1.3052,-1.1952,-1.1402,-1.092,-1.0657,-1.1283,-1.1718,-1.2239,-1.3095,-1.4272,-1.5653,-1.6079,-1.6823,-1.7715,-1.7993,-1.7875,-1.7746,-1.7767,-1.6777,-1.5062,-1.3113,-1.2701,-1.2993,-1.3294,-1.3587,-1.3872,-1.3872,-1.388,-1.3888,-1.4022,-1.3945,-1.3609,-1.3551,-1.3667,-1.3824,-1.446,-1.4661,-1.4507,-1.4199,-1.3583,-1.2958,-1.2037,-1.1572,-1.0952,-0.9858,-0.9433,-0.8735,-0.7436,-0.5544,-0.3781,-0.1997,-0.1006,-0.0168,0.0337,0.1178,0.1851,0.2356,0.3701,0.5403,0.6989,0.913,1.1139,1.2487,1.3683,1.4299,1.4299,1.4476,1.4646,1.4646,1.4893,1.5155,1.5592,1.701,1.787,1.8507,2.0943,2.3167,2.4801,2.6725,2.7963,-5.5788,-5.5729,-5.5729,-5.5859,-5.5753,-5.5589,0.0,0.0,0.0,-5.4287,-5.4445,-5.4593,-5.4493,-5.4668,-5.4702,-5.4347,-5.4309,-5.3957,-5.2829,-4.9644,-4.6656,-4.4573,-4.278,-4.0828,-3.8758,-3.6275,-3.3414,-2.9978,-2.8196,-2.6387,-2.454,-2.2459,-2.0896,-1.971,-1.8902,-1.8254,-1.7495,-1.7817,-1.7982,-1.8007,-1.8732,-1.9811,-2.1097,-2.1582,-2.2058,-2.2576,-2.2739,-2.2616,-2.2206,-2.1821,-2.1833,-2.1683,-1.7938,-1.6404,-1.6404,-1.6423,-1.6433,-1.6291,-1.6291,-1.615,-1.5877,-1.615,-1.5877,-1.5497,-1.5443,-1.5588,-1.5887,-1.6438,-1.651,-1.6357,-1.5582,-1.496,-1.4345,-1.312,-1.2501,-1.1889,-1.1137,-1.0757,-1.0231,-0.9083,-0.7872,-0.6133,-0.3355,-0.185,-0.0842,-0.0168,0.0337,0.101,0.1683,0.3033,0.4741,0.6669,0.8985,1.0998,1.2523,1.3696,1.4299,1.4299,1.4299,1.4312,1.434,1.4482,1.4812,1.5336,1.6368,1.7188,1.7596,1.8845,2.0852,2.3422,2.5082,2.6458,-5.7747,-5.7704,-5.7788,-5.8174,-5.7654,-5.71,-5.7178,0.0,-5.568,-5.5759,0.0,-5.5565,-5.568,0.0,0.0,-5.6089,-5.5985,-5.5726,-5.5177,-5.4548,-5.2948,-4.9656,-4.819,-4.6851,-4.5227,-4.2292,-3.9585,-3.7574,-3.6135,-3.4409,-3.2037,-3.0447,-2.8717,-2.7084,-2.643,-2.5651,-2.484,-2.5037,-2.473,-2.4064,-2.5046,-2.5766,-2.6183,-2.6665,-2.7182,-2.7851,-2.7222,-2.6706,-2.6424,-2.5786,-2.5248,-2.4694,-2.0995,-1.9495,-1.9518,-1.9518,-1.939,-1.9111,-1.9111,-1.8971,-1.8971,-1.8703,-1.8142,-1.7521,-1.7649,-1.7663,-1.7635,-1.7757,-1.7873,-1.7569,-1.6806,-1.6042,-1.5275,-1.4345,-1.3583,-1.2697,-1.2043,-1.1931,-1.1537,-1.0492,-0.9231,-0.7286,-0.4363,-0.2691,-0.1515,-0.0674,0.0168,0.0842,0.1346,0.2714,0.4453,0.6745,0.8735,1.0765,1.2668,1.3755,1.4299,1.4299,1.4299,1.4353,1.4482,1.4631,1.4787,1.5128,1.5505,1.5953,1.6097,1.7608,1.9648,2.2208,2.3709,2.5183,-5.8592,-5.825,-5.8393,-5.8862,-5.87,-5.816,-5.7297,-5.7009,-5.7097,-5.7794,0.0,0.0,0.0,0.0,0.0,0.0,-5.7334,-5.7421,-5.6952,-5.7306,-5.628,-5.2733,-5.1476,-5.0105,-4.8038,-4.642,-4.4881,-4.3073,-4.1859,-4.0404,-3.8501,-3.7066,-3.548,-3.3962,-3.3119,-3.2181,-3.1181,-3.1191,-3.0691,-2.983,-3.0591,-3.0838,-3.0719,-3.1256,-3.1458,-3.1377,-3.0992,-3.0495,-2.9717,-2.9083,-2.8558,-2.8015,-2.5859,-2.4003,-2.2682,-2.2408,-2.1859,-2.1446,-2.1446,-2.1044,-2.04,-2.0274,-2.0002,-1.9746,-1.9814,-1.9768,-1.9539,-1.9436,-1.938,-1.9077,-1.8168,-1.7255,-1.6339,-1.5275,-1.4268,-1.3432,-1.2876,-1.2708,-1.254,-1.1843,-1.0442,-0.8838,-0.6707,-0.4199,-0.2017,-0.1178,-0.0337,0.0505,0.1178,0.2379,0.4119,0.6759,0.8752,1.0786,1.2686,1.3768,1.4299,1.4299,1.438,1.4529,1.4767,1.4841,1.4943,1.5092,1.5279,1.5494,1.5938,1.6868,1.8168,1.9843,2.1879,2.3536,-6.0143,-5.9771,-5.9792,-6.015,-6.002,-5.9561,-5.8469,-5.819,-5.8519,-5.9505,-5.9271,0.0,0.0,0.0,0.0,0.0,0.0,-5.8857,-5.819,-5.8762,-5.8196,-5.5448,-5.4351,-5.2983,-5.0893,-5.0205,-4.9223,-4.7607,-4.6757,-4.5658,-4.3987,-4.271,-4.1359,-3.9935,-3.9036,-3.8082,-3.6927,-3.6721,-3.6092,-3.5228,-3.5598,-3.5561,-3.504,-3.5388,-3.5206,-3.4675,-3.4407,-3.3803,-3.2922,-3.2162,-3.167,-3.1176,-3.0272,-2.8427,-2.6188,-2.5128,-2.4452,-2.376,-2.3638,-2.2886,-2.2064,-2.2205,-2.1994,-2.1775,-2.1898,-2.1678,-2.1432,-2.1107,-2.1037,-2.0737,-1.952,-1.8613,-1.7702,-1.6339,-1.5253,-1.4304,-1.3727,-1.3472,-1.3186,-1.2729,-1.1499,-0.9893,-0.8386,-0.5371,-0.269,-0.1682,-0.0673,0.0168,0.101,0.2045,0.3617,0.6413,0.8424,1.0465,1.2514,1.3591,1.4135,1.4353,1.4496,1.4692,1.4964,1.5011,1.5079,1.5181,1.5181,1.5375,1.5751,1.6306,1.6868,1.7803,2.0399,2.2063,-6.3113,-6.3025,-6.291,-6.2755,-6.2058,-6.152,-6.1629,-6.0515,-5.9789,-6.06,-6.1209,-6.1439,-6.1003,0.0,0.0,0.0,0.0,0.0,0.0,-5.8908,-5.8943,-5.843,-5.7198,-5.5939,-5.4838,-5.3798,-5.2721,-5.148,-5.0907,-4.9914,-4.8428,-4.7546,-4.6463,-4.4997,-4.4167,-4.3187,-4.1991,-4.1521,-4.0918,-4.0114,-4.005,-3.9849,-3.9192,-3.9128,-3.8698,-3.8127,-3.7363,-3.676,-3.6051,-3.5047,-3.4342,-3.3757,-3.3,-3.211,-3.0696,-2.8081,-2.6886,-2.6337,-2.5697,-2.4955,-2.4317,-2.4778,-2.4309,-2.3652,-2.3497,-2.3588,-2.3362,-2.2917,-2.2694,-2.2396,-2.1187,-2.0274,-1.9359,-1.7702,-1.6481,-1.5433,-1.4343,-1.4033,-1.354,-1.2866,-1.1896,-1.0732,-0.8553,-0.5876,-0.3532,-0.2187,-0.1179,-0.0337,0.0674,0.1545,0.3127,0.5553,0.742,0.9655,1.1988,1.3053,1.382,1.4496,1.4652,1.4801,1.4964,1.5106,1.5174,1.5181,1.5181,1.5181,1.5181,1.5751,1.6119,1.6868,1.9285,2.114,-6.3798,-6.3668,-6.3572,-6.3691,-6.3424,-6.3119,-6.3214,-6.2271,-6.1751,-6.2662,-6.2178,-6.1842,-6.2668,0.0,0.0,0.0,0.0,0.0,0.0,-5.9639,-5.9753,-5.959,-5.8574,-5.7495,-5.6248,-5.5653,-5.4667,-5.3098,-5.2476,-5.1738,-5.0667,-5.0065,-4.9486,-4.8804,-4.7668,-4.6778,-4.6025,-4.5288,-4.4494,-4.3464,-4.3666,-4.3208,-4.2309,-4.2227,-4.1801,-4.1004,-4.0313,-3.9499,-3.8461,-3.7528,-3.6703,-3.5992,-3.5005,-3.4363,-3.3737,-3.0936,-2.9265,-2.8246,-2.7288,-2.6786,-2.6568,-2.6349,-2.6314,-2.6215,-2.5604,-2.5486,-2.5368,-2.4583,-2.4179,-2.3735,-2.2819,-2.1775,-2.0725,-1.9359,-1.8125,-1.6836,-1.5647,-1.4923,-1.4324,-1.3721,-1.2401,-1.0898,-0.9726,-0.7383,-0.4873,-0.2355,-0.1179,-0.0337,0.0505,0.1545,0.2955,0.5036,0.6895,0.8947,1.1088,1.2692,1.3866,1.4645,1.4713,1.4848,1.5099,1.516,1.5181,1.5181,1.5181,1.5181,1.5181,1.5751,1.6119,1.6681,1.8176,1.9657,-6.437,-6.4444,-6.4554,-6.4364,-6.4472,-6.4544,-6.4166,-6.3563,-6.3218,-6.3859,-6.3185,-6.2769,-6.3746,0.0,0.0,0.0,0.0,0.0,0.0,-6.0217,-6.0304,-6.0217,-5.9553,-5.8628,-5.7574,-5.692,-5.5895,-5.4287,-5.365,-5.3049,-5.2445,-5.2125,-5.1863,-5.1698,-5.0585,-4.9756,-4.9075,-4.8239,-4.7438,-4.6542,-4.6545,-4.5998,-4.5126,-4.497,-4.4292,-4.328,-4.2749,-4.185,-4.0616,-3.9826,-3.9003,-3.8052,-3.6967,-3.6359,-3.5623,-3.3,-3.1212,-2.9874,-2.9328,-2.8832,-2.8542,-2.835,-2.8218,-2.8114,-2.7405,-2.7114,-2.6808,-2.6078,-2.5506,-2.5065,-2.4018,-2.3116,-2.2097,-2.0838,-1.9625,-1.8504,-1.7163,-1.6145,-1.5208,-1.439,-1.3065,-1.173,-1.056,-0.8725,-0.6382,-0.3195,-0.1851,-0.0842,0.0168,0.103,0.226,0.3995,0.5836,0.7874,1.055,1.2337,1.3707,1.4355,1.4557,1.4875,1.5167,1.5181,1.5181,1.5181,1.5181,1.5181,1.5181,1.5563,1.5931,1.6494,1.7242,1.8395]}]]